Darstellungsparameter: Aktuell verwendete Einstellungen:
Skalierung der Graphiken ... ?
xyx+y,   Skalierungsfaktor:      Skalierung: Modus: x, Faktor: 1
Darstellungszeitraum ... ?
Vom - - bis: - -   Zeitraum: 12.03.2010 - 11.09.2010
Min/Max/Avg-Anzeige ... ?
Zeige MMA aktuell
Zeige MMA Monat
Zeige MMA alles
Zeige --A aktuell
Zeige --A Monat
Zeige --A alles
Keine MMA-Anzeige
MMA:
Average (ber die Originaldaten)
MMA-Basis: 12.03.2010 - 11.09.2010
Quicknavigation für Darstellung... ?
Tage:      1T, 2T, 3T, 5T -1T -2T -3T -5T +1T +2T +3T +5T
Wochen: 1W, 2W, 3W -1W -2W -3W +1W +2W +3W
Monate: 1M, 3M, 6M -1M -3M -6M +1M +3M +6M
Jahre:    1J, 3J, 5J, 10J -1J -3J -5J -10J +1J +3J +5J +10J
Nutze für die Darstellung ... ?
Originaldaten oder Mittelwerte auf ...
Stundenbasis Tagesbasis Wochenbasis
Monatsbasis Jahresbasis      Datenbasis: Original-Daten
Darstellen als:
Statistik (Auto) Statistik J:M      Darstellung:
Zur Graphik,    zurück zur Übersicht aller Sensoren.
 
Tabellarische Datenbersicht: ?
 
Sensor: Nr:Datum:Temp:Abs-Feuchte:Windchill:Wind:
Aussen-T/F 1 12-03-2010 00:07:05 -2.6 C 2.87 g/m*3 -2.6 C 0 km/h
2 12-03-2010 00:19:05 -2.6 C 2.87 g/m*3 -2.6 C 0 km/h
3 12-03-2010 00:31:05 -2.7 C 2.89 g/m*3 -2.7 C 0 km/h
4 12-03-2010 00:43:05 -2.7 C 2.89 g/m*3 -2.7 C 0 km/h
5 12-03-2010 00:55:05 -2.3 C 2.97 g/m*3 -2.3 C 0 km/h
6 12-03-2010 01:07:05 -1.9 C 3.06 g/m*3 -1.9 C 0 km/h
7 12-03-2010 01:19:05 -1.6 C 3.08 g/m*3 -1.6 C 0 km/h
8 12-03-2010 01:31:05 -1.5 C 3.06 g/m*3 -1.5 C 0 km/h
9 12-03-2010 01:43:05 -1.3 C 3.1 g/m*3 -1.3 C 0 km/h
10 12-03-2010 01:55:06 -1.4 C 3.03 g/m*3 -1.4 C 0 km/h
11 12-03-2010 02:07:06 -1.4 C 3.03 g/m*3 -1.4 C 0 km/h
12 12-03-2010 02:19:06 -1.3 C 3.1 g/m*3 -1.3 C 0 km/h
13 12-03-2010 02:31:06 -1.3 C 3.1 g/m*3 -1.3 C 0 km/h
14 12-03-2010 02:43:06 -1.3 C 3.1 g/m*3 -1.3 C 0 km/h
15 12-03-2010 02:55:06 -1.3 C 3.1 g/m*3 -1.3 C 0 km/h
16 12-03-2010 03:07:06 -1.2 C 3.12 g/m*3 -1.2 C 0 km/h
17 12-03-2010 03:19:06 -1.3 C 3.1 g/m*3 -1.3 C 0 km/h
18 12-03-2010 03:31:06 -1.3 C 3.1 g/m*3 -1.3 C 0 km/h
19 12-03-2010 03:43:06 -1.3 C 3.14 g/m*3 -1.3 C 0 km/h
20 12-03-2010 03:55:06 -1.2 C 3.17 g/m*3 -1.2 C 0 km/h
21 12-03-2010 04:07:06 -1.3 C 3.14 g/m*3 -1.3 C 0 km/h
22 12-03-2010 04:19:06 -1.3 C 3.14 g/m*3 -1.3 C 0 km/h
23 12-03-2010 04:31:06 -1.3 C 3.14 g/m*3 -1.3 C 0 km/h
24 12-03-2010 04:43:06 -1.3 C 3.14 g/m*3 -1.3 C 0 km/h
25 12-03-2010 04:55:06 -1.3 C 3.14 g/m*3 -1.3 C 0 km/h
Sensor: Nr:Datum:Temp:Abs-Feuchte:Windchill:Wind:
Aussen-T/F 26 12-03-2010 05:07:06 -1.2 C 3.17 g/m*3 -1.2 C 0 km/h
27 12-03-2010 05:19:06 -1.2 C 3.21 g/m*3 -1.2 C 0 km/h
28 12-03-2010 05:31:06 -1.2 C 3.21 g/m*3 -1.2 C 0 km/h
29 12-03-2010 05:43:06 -1.1 C 3.23 g/m*3 -1.1 C 0 km/h
30 12-03-2010 05:55:06 -1.1 C 3.23 g/m*3 -1.1 C 0 km/h
31 12-03-2010 06:07:07 -1.1 C 3.28 g/m*3 -1.1 C 0 km/h
32 12-03-2010 06:19:07 -1.1 C 3.28 g/m*3 -1.1 C 0 km/h
33 12-03-2010 06:31:07 -0.9 C 3.32 g/m*3 -0.9 C 0 km/h
34 12-03-2010 06:43:07 -0.9 C 3.32 g/m*3 -0.9 C 0 km/h
35 12-03-2010 06:55:07 -0.9 C 3.37 g/m*3 -0.9 C 0 km/h
36 12-03-2010 07:07:03 -0.9 C 3.41 g/m*3 -0.9 C 0 km/h
37 12-03-2010 07:19:04 -0.9 C 3.46 g/m*3 -0.9 C 0 km/h
38 12-03-2010 07:31:03 -0.9 C 3.51 g/m*3 -0.9 C 0 km/h
39 12-03-2010 07:43:03 -0.9 C 3.55 g/m*3 -0.9 C 0 km/h
40 12-03-2010 07:55:01 -0.9 C 3.6 g/m*3 -0.9 C 0 km/h
41 12-03-2010 08:07:02 -0.7 C 3.69 g/m*3 -0.7 C 0 km/h
42 12-03-2010 08:19:02 -0.7 C 3.69 g/m*3 -0.7 C 0 km/h
43 12-03-2010 08:31:01 -0.5 C 3.74 g/m*3 -0.5 C 0 km/h
44 12-03-2010 08:43:01 -0.4 C 3.77 g/m*3 -0.4 C 0 km/h
45 12-03-2010 08:55:03 -0.4 C 3.82 g/m*3 -0.4 C 0 km/h
46 12-03-2010 09:07:02 -0.3 C 3.89 g/m*3 -0.3 C 0 km/h
47 12-03-2010 09:19:02 -0.2 C 3.92 g/m*3 -0.2 C 0 km/h
48 12-03-2010 09:31:03 0 C 4.02 g/m*3 0 C 0 km/h
49 12-03-2010 09:43:03 0.1 C 4.05 g/m*3 0.1 C 0 km/h
50 12-03-2010 09:55:02 0.3 C 4.06 g/m*3 0.3 C 0 km/h
Sensor: Nr:Datum:Temp:Abs-Feuchte:Windchill:Wind:
Aussen-T/F 51 12-03-2010 10:07:01 0.4 C 4.08 g/m*3 0.4 C 0 km/h
52 12-03-2010 10:19:02 0.7 C 4.12 g/m*3 0.7 C 0 km/h
53 12-03-2010 10:31:02 0.9 C 4.12 g/m*3 0.9 C 0 km/h
54 12-03-2010 10:43:02 1.3 C 4.13 g/m*3 1.3 C 0 km/h
55 12-03-2010 10:55:02 1.5 C 4.14 g/m*3 1.5 C 0 km/h
56 12-03-2010 11:07:03 1.8 C 4.11 g/m*3 1.8 C 0 km/h
57 12-03-2010 11:19:02 2.1 C 4.08 g/m*3 2.1 C 0 km/h
58 12-03-2010 11:31:02 2.2 C 4.06 g/m*3 2.2 C 0 km/h
59 12-03-2010 11:43:03 2.6 C 4.17 g/m*3 2.6 C 0 km/h
60 12-03-2010 11:55:01 2.7 C 4.2 g/m*3 2.7 C 0 km/h
61 12-03-2010 12:07:02 2.8 C 4.16 g/m*3 2.8 C 0 km/h
62 12-03-2010 12:19:01 3.1 C 4.19 g/m*3 3.1 C 0 km/h
63 12-03-2010 12:31:01 3.4 C 4.28 g/m*3 3.4 C 0 km/h
64 12-03-2010 12:43:01 3.8 C 4.27 g/m*3 3.8 C 0 km/h
65 12-03-2010 12:55:01 3.9 C 4.29 g/m*3 3.9 C 0 km/h
66 12-03-2010 13:07:02 4.4 C 4.31 g/m*3 4.4 C 0 km/h
67 12-03-2010 13:19:01 4.4 C 4.24 g/m*3 4.4 C 0 km/h
68 12-03-2010 13:31:02 4.6 C 4.3 g/m*3 4.6 C 0 km/h
69 12-03-2010 13:43:02 5 C 4.14 g/m*3 5 C 0 km/h
70 12-03-2010 13:55:01 5.2 C 4.27 g/m*3 5.2 C 0 km/h
71 12-03-2010 14:07:02 4.8 C 4.16 g/m*3 4.8 C 0 km/h
72 12-03-2010 14:19:02 5 C 4.08 g/m*3 5 C 0 km/h
73 12-03-2010 14:31:01 5.1 C 4.1 g/m*3 5.1 C 0 km/h
74 12-03-2010 14:43:01 5.4 C 4.12 g/m*3 5.4 C 0 km/h
75 12-03-2010 14:55:01 6.1 C 4.09 g/m*3 6.1 C 0 km/h
Sensor: Nr:Datum:Temp:Abs-Feuchte:Windchill:Wind:
Aussen-T/F 76 12-03-2010 15:07:02 7.1 C 4.29 g/m*3 7.1 C 0 km/h
77 12-03-2010 15:19:02 6.9 C 3.85 g/m*3 6.9 C 0 km/h
78 12-03-2010 15:31:01 7.4 C 4.06 g/m*3 7.4 C 0 km/h
79 12-03-2010 15:43:01 7.3 C 3.95 g/m*3 7.3 C 0 km/h
80 12-03-2010 15:55:01 6.1 C 3.8 g/m*3 6.1 C 0 km/h
81 12-03-2010 16:07:01 5.3 C 4.09 g/m*3 5.3 C 0 km/h
82 12-03-2010 16:19:02 4.9 C 4.25 g/m*3 4.9 C 0 km/h
83 12-03-2010 16:31:01 5.1 C 4.38 g/m*3 5.1 C 0 km/h
84 12-03-2010 16:43:01 5.2 C 4.41 g/m*3 5.2 C 0 km/h
85 12-03-2010 16:55:02 5.1 C 4.31 g/m*3 5.1 C 0 km/h
86 12-03-2010 17:07:01 4.9 C 4.32 g/m*3 4.9 C 0 km/h
87 12-03-2010 17:19:01 4.9 C 4.32 g/m*3 4.9 C 0 km/h
88 12-03-2010 17:31:01 4.8 C 4.29 g/m*3 4.8 C 0 km/h
89 12-03-2010 17:43:01 4.4 C 4.24 g/m*3 4.4 C 0 km/h
90 12-03-2010 17:55:02 4.1 C 4.29 g/m*3 4.1 C 0 km/h
91 12-03-2010 18:07:02 3.9 C 4.36 g/m*3 3.9 C 0 km/h
92 12-03-2010 18:19:02 3.7 C 4.36 g/m*3 3.7 C 0 km/h
93 12-03-2010 18:31:01 3.5 C 4.37 g/m*3 3.5 C 0 km/h
94 12-03-2010 18:43:01 3.2 C 4.28 g/m*3 3.2 C 0 km/h
95 12-03-2010 18:55:02 3 C 4.28 g/m*3 3 C 0 km/h
96 12-03-2010 19:07:01 2.8 C 4.34 g/m*3 2.8 C 0 km/h
97 12-03-2010 19:19:02 2.8 C 4.34 g/m*3 2.8 C 0 km/h
98 12-03-2010 19:31:01 2.8 C 4.4 g/m*3 2.8 C 0 km/h
99 12-03-2010 19:43:01 2.9 C 4.43 g/m*3 2.9 C 0 km/h
100 12-03-2010 19:55:02 3.1 C 4.43 g/m*3 3.1 C 0 km/h
Sensor: Nr:Datum:Temp:Abs-Feuchte:Windchill:Wind:
Aussen-T/F 101 12-03-2010 20:07:02 3.1 C 4.43 g/m*3 3.1 C 0 km/h
102 12-03-2010 20:19:02 3.1 C 4.43 g/m*3 3.1 C 0 km/h
103 12-03-2010 20:31:03 3.2 C 4.46 g/m*3 3.2 C 0 km/h
104 12-03-2010 20:43:03 3.1 C 4.37 g/m*3 3.1 C 0 km/h
105 12-03-2010 20:55:02 2.9 C 4.43 g/m*3 2.9 C 0 km/h
106 12-03-2010 21:07:01 2.8 C 4.4 g/m*3 2.8 C 0 km/h
107 12-03-2010 21:19:02 2.8 C 4.46 g/m*3 2.8 C 0 km/h
108 12-03-2010 21:31:02 2.7 C 4.43 g/m*3 2.7 C 0 km/h
109 12-03-2010 21:43:02 2.7 C 4.43 g/m*3 2.7 C 0 km/h
110 12-03-2010 21:55:03 2.6 C 4.4 g/m*3 2.6 C 0 km/h
111 12-03-2010 22:07:03 2.6 C 4.4 g/m*3 2.6 C 0 km/h
112 12-03-2010 22:20:03 2.6 C 4.46 g/m*3 2.6 C 0 km/h
113 12-03-2010 22:32:03 2.4 C 4.4 g/m*3 2.4 C 0 km/h
114 12-03-2010 22:44:03 2.4 C 4.45 g/m*3 2.4 C 0 km/h
115 12-03-2010 22:56:03 2.4 C 4.45 g/m*3 2.4 C 0 km/h
116 12-03-2010 23:08:03 2.4 C 4.45 g/m*3 2.4 C 0 km/h
117 12-03-2010 23:20:03 2.4 C 4.45 g/m*3 2.4 C 0 km/h
118 12-03-2010 23:32:03 2.3 C 4.42 g/m*3 2.3 C 0 km/h
119 12-03-2010 23:44:03 2.2 C 4.45 g/m*3 2.2 C 0 km/h
120 12-03-2010 23:56:03 2.3 C 4.48 g/m*3 2.3 C 0 km/h
121 13-03-2010 00:08:03 2.3 C 4.48 g/m*3 2.3 C 0 km/h
122 13-03-2010 00:20:03 2.2 C 4.45 g/m*3 2.2 C 0 km/h
123 13-03-2010 00:32:03 2.3 C 4.48 g/m*3 2.3 C 0 km/h
124 13-03-2010 00:44:03 2.3 C 4.48 g/m*3 2.3 C 0 km/h
125 13-03-2010 00:56:03 2.3 C 4.48 g/m*3 2.3 C 0 km/h
Sensor: Nr:Datum:Temp:Abs-Feuchte:Windchill:Wind:
Aussen-T/F 126 13-03-2010 01:08:03 2.2 C 4.45 g/m*3 2.2 C 0 km/h
127 13-03-2010 01:20:03 2.2 C 4.39 g/m*3 2.2 C 0 km/h
128 13-03-2010 01:32:03 2.3 C 4.42 g/m*3 2.3 C 0 km/h
129 13-03-2010 01:44:03 2.2 C 4.39 g/m*3 2.2 C 0 km/h
130 13-03-2010 01:56:03 2.2 C 4.39 g/m*3 2.2 C 0 km/h
131 13-03-2010 02:08:03 2.2 C 4.39 g/m*3 2.2 C 0 km/h
132 13-03-2010 02:20:03 2.1 C 4.31 g/m*3 2.1 C 0 km/h
133 13-03-2010 02:32:03 2.2 C 4.34 g/m*3 2.2 C 0 km/h
134 13-03-2010 02:44:04 2.1 C 4.25 g/m*3 2.1 C 0 km/h
135 13-03-2010 02:56:04 2.2 C 4.28 g/m*3 2.2 C 0 km/h
136 13-03-2010 03:08:04 2.2 C 4.22 g/m*3 2.2 C 0 km/h
137 13-03-2010 03:20:04 2.2 C 4.22 g/m*3 2.2 C 0 km/h
138 13-03-2010 03:32:04 2.2 C 4.22 g/m*3 2.2 C 0 km/h
139 13-03-2010 03:44:04 2 C 4.17 g/m*3 2 C 0 km/h
140 13-03-2010 03:56:04 1.8 C 4.22 g/m*3 1.8 C 0 km/h
141 13-03-2010 04:08:04 1.9 C 4.19 g/m*3 1.9 C 0 km/h
142 13-03-2010 04:20:04 2 C 4.17 g/m*3 2 C 0 km/h
143 13-03-2010 04:32:04 2 C 4.17 g/m*3 2 C 0 km/h
144 13-03-2010 04:44:04 2 C 4.17 g/m*3 2 C 0 km/h
145 13-03-2010 04:56:04 2 C 4.17 g/m*3 2 C 0 km/h
146 13-03-2010 05:08:04 2 C 4.17 g/m*3 2 C 0 km/h
147 13-03-2010 05:20:04 1.8 C 4.17 g/m*3 1.8 C 0 km/h
148 13-03-2010 05:32:04 1.9 C 4.19 g/m*3 1.9 C 0 km/h
149 13-03-2010 05:44:04 2 C 4.11 g/m*3 2 C 0 km/h
150 13-03-2010 05:56:04 2 C 4.11 g/m*3 2 C 0 km/h
Sensor: Nr:Datum:Temp:Abs-Feuchte:Windchill:Wind:
Aussen-T/F 151 13-03-2010 06:08:04 2 C 4.11 g/m*3 2 C 0 km/h
152 13-03-2010 06:20:04 2.1 C 4.08 g/m*3 2.1 C 0 km/h
153 13-03-2010 06:32:04 2.2 C 4.11 g/m*3 2.2 C 0 km/h
154 13-03-2010 06:44:04 2.1 C 4.08 g/m*3 2.1 C 0 km/h
155 13-03-2010 06:56:02 2.3 C 4.2 g/m*3 2.3 C 0 km/h
156 13-03-2010 07:08:02 2.3 C 4.25 g/m*3 2.3 C 0 km/h
157 13-03-2010 07:20:02 2.3 C 4.31 g/m*3 2.3 C 0 km/h
158 13-03-2010 07:32:02 2.3 C 4.31 g/m*3 2.3 C 0 km/h
159 13-03-2010 07:44:02 2.4 C 4.45 g/m*3 2.4 C 0 km/h
160 13-03-2010 07:56:02 2.6 C 4.63 g/m*3 2.6 C 0 km/h
161 13-03-2010 08:08:02 2.7 C 4.66 g/m*3 2.7 C 0 km/h
162 13-03-2010 08:20:02 2.8 C 4.69 g/m*3 2.8 C 0 km/h
163 13-03-2010 08:32:02 2.9 C 4.72 g/m*3 2.9 C 0 km/h
164 13-03-2010 08:44:02 3.1 C 4.73 g/m*3 3.1 C 0 km/h
165 13-03-2010 08:56:02 3.3 C 4.73 g/m*3 3.3 C 0 km/h
166 13-03-2010 09:08:01 3.4 C 4.7 g/m*3 3.4 C 0 km/h
167 13-03-2010 09:20:02 3.4 C 4.64 g/m*3 3.4 C 0 km/h
168 13-03-2010 09:32:01 3.6 C 4.7 g/m*3 3.6 C 0 km/h
169 13-03-2010 09:44:01 3.6 C 4.7 g/m*3 3.6 C 0 km/h
170 13-03-2010 09:56:02 3.7 C 4.74 g/m*3 3.7 C 0 km/h
171 13-03-2010 10:08:01 4 C 4.7 g/m*3 4 C 0 km/h
172 13-03-2010 10:20:02 4.4 C 4.7 g/m*3 4.4 C 0 km/h
173 13-03-2010 10:32:02 4.8 C 4.69 g/m*3 4.8 C 0 km/h
174 13-03-2010 10:44:02 4.8 C 4.49 g/m*3 4.8 C 0 km/h
175 13-03-2010 10:56:02 5 C 4.42 g/m*3 5 C 0 km/h
Sensor: Nr:Datum:Temp:Abs-Feuchte:Windchill:Wind:
Aussen-T/F 176 13-03-2010 11:08:02 4.8 C 4.22 g/m*3 4.8 C 0 km/h
177 13-03-2010 11:20:02 4.7 C 4.26 g/m*3 4.7 C 0 km/h
178 13-03-2010 11:32:02 5.2 C 4.34 g/m*3 5.2 C 0 km/h
179 13-03-2010 11:44:02 5.3 C 4.23 g/m*3 5.3 C 0 km/h
180 13-03-2010 11:56:02 6 C 4.06 g/m*3 6 C 0 km/h
181 13-03-2010 12:08:02 6.5 C 4.05 g/m*3 6.5 C 0 km/h
182 13-03-2010 12:20:01 6.2 C 3.75 g/m*3 6.2 C 0 km/h
183 13-03-2010 12:32:02 5.8 C 3.72 g/m*3 5.8 C 0 km/h
184 13-03-2010 12:44:02 6.3 C 3.78 g/m*3 6.3 C 0 km/h
185 13-03-2010 12:56:02 6.7 C 3.72 g/m*3 6.7 C 0 km/h
186 13-03-2010 13:08:02 6.3 C 3.7 g/m*3 6.3 C 0 km/h
187 13-03-2010 13:20:02 6 C 3.7 g/m*3 6 C 0 km/h
188 13-03-2010 13:32:02 5.8 C 3.94 g/m*3 5.8 C 0 km/h
189 13-03-2010 13:44:02 5.8 C 4.01 g/m*3 5.8 C 0 km/h
190 13-03-2010 13:56:02 6.1 C 4.16 g/m*3 6.1 C 0 km/h
191 13-03-2010 14:08:02 6.3 C 4.07 g/m*3 6.3 C 0 km/h
192 13-03-2010 14:20:02 6.3 C 4.07 g/m*3 6.3 C 0 km/h
193 13-03-2010 14:32:02 6.1 C 4.02 g/m*3 6.1 C 0 km/h
194 13-03-2010 14:44:02 6.2 C 3.97 g/m*3 6.2 C 0 km/h
195 13-03-2010 14:56:02 6.3 C 4 g/m*3 6.3 C 0 km/h
196 13-03-2010 15:08:02 6.5 C 4.05 g/m*3 6.5 C 0 km/h
197 13-03-2010 15:20:02 6.5 C 3.9 g/m*3 6.5 C 0 km/h
198 13-03-2010 15:32:02 6.5 C 3.9 g/m*3 6.5 C 0 km/h
199 13-03-2010 15:44:02 6.7 C 4.03 g/m*3 6.7 C 0 km/h
200 13-03-2010 15:56:02 6.6 C 3.93 g/m*3 6.6 C 0 km/h
Sensor: Nr:Datum:Temp:Abs-Feuchte:Windchill:Wind:
Aussen-T/F 201 13-03-2010 16:08:02 6.6 C 3.93 g/m*3 6.6 C 0 km/h
202 13-03-2010 16:20:03 6.5 C 3.9 g/m*3 6.5 C 0 km/h
203 13-03-2010 16:32:02 6.5 C 3.9 g/m*3 6.5 C 0 km/h
204 13-03-2010 16:44:02 6.4 C 3.87 g/m*3 6.4 C 0 km/h
205 13-03-2010 16:56:02 6.4 C 3.95 g/m*3 6.4 C 0 km/h
206 13-03-2010 17:08:02 6.4 C 3.95 g/m*3 6.4 C 0 km/h
207 13-03-2010 17:20:02 6.3 C 3.92 g/m*3 6.3 C 0 km/h
208 13-03-2010 17:32:02 6.3 C 4 g/m*3 6.3 C 0 km/h
209 13-03-2010 17:44:02 6.2 C 3.97 g/m*3 6.2 C 0 km/h
210 13-03-2010 17:56:02 6.2 C 3.97 g/m*3 6.2 C 0 km/h
211 13-03-2010 18:08:02 6.2 C 3.97 g/m*3 6.2 C 0 km/h
212 13-03-2010 18:20:02 6.1 C 3.95 g/m*3 6.1 C 0 km/h
213 13-03-2010 18:32:01 6.1 C 3.95 g/m*3 6.1 C 0 km/h
214 13-03-2010 18:44:01 6 C 3.92 g/m*3 6 C 0 km/h
215 13-03-2010 18:56:02 6.1 C 3.95 g/m*3 6.1 C 0 km/h
216 13-03-2010 19:08:01 6 C 3.92 g/m*3 6 C 0 km/h
217 13-03-2010 19:20:02 6 C 3.99 g/m*3 6 C 0 km/h
218 13-03-2010 19:32:02 6 C 3.99 g/m*3 6 C 0 km/h
219 13-03-2010 19:44:02 6 C 3.99 g/m*3 6 C 0 km/h
220 13-03-2010 19:56:02 6 C 3.99 g/m*3 6 C 0 km/h
221 13-03-2010 20:08:01 5.8 C 4.08 g/m*3 5.8 C 0 km/h
222 13-03-2010 20:20:01 5.8 C 4.23 g/m*3 5.8 C 0 km/h
223 13-03-2010 20:32:02 5.5 C 4.28 g/m*3 5.5 C 0 km/h
224 13-03-2010 20:44:02 5.5 C 4.42 g/m*3 5.5 C 0 km/h
225 13-03-2010 20:56:02 5.6 C 4.45 g/m*3 5.6 C 0 km/h
Sensor: Nr:Datum:Temp:Abs-Feuchte:Windchill:Wind:
Aussen-T/F 226 13-03-2010 21:08:02 5.6 C 4.45 g/m*3 5.6 C 0 km/h
227 13-03-2010 21:20:02 5.5 C 4.35 g/m*3 5.5 C 0 km/h
228 13-03-2010 21:32:02 5.6 C 4.17 g/m*3 5.6 C 0 km/h
229 13-03-2010 21:44:02 5.5 C 4.07 g/m*3 5.5 C 0 km/h
230 13-03-2010 21:56:01 5.4 C 4.05 g/m*3 5.4 C 0 km/h
231 13-03-2010 22:08:02 5.3 C 4.02 g/m*3 5.3 C 0 km/h
232 13-03-2010 22:21:03 5.2 C 4.13 g/m*3 5.2 C 0 km/h
233 13-03-2010 22:33:04 5 C 4.21 g/m*3 5 C 0 km/h
234 13-03-2010 22:45:04 5 C 4.08 g/m*3 5 C 0 km/h
235 13-03-2010 22:57:04 5.2 C 3.79 g/m*3 5.2 C 0 km/h
236 13-03-2010 23:09:04 5.1 C 3.63 g/m*3 5.1 C 0 km/h
237 13-03-2010 23:21:04 5.1 C 3.63 g/m*3 5.1 C 0 km/h
238 13-03-2010 23:33:04 5.1 C 3.63 g/m*3 5.1 C 0 km/h
239 13-03-2010 23:45:04 5 C 3.67 g/m*3 5 C 0 km/h
240 13-03-2010 23:57:04 4.9 C 3.71 g/m*3 4.9 C 0 km/h
241 14-03-2010 00:09:04 4.8 C 3.62 g/m*3 4.8 C 0 km/h
242 14-03-2010 00:21:04 4.7 C 3.6 g/m*3 4.7 C 0 km/h
243 14-03-2010 00:33:04 4.7 C 3.6 g/m*3 4.7 C 0 km/h
244 14-03-2010 00:45:04 4.7 C 3.6 g/m*3 4.7 C 0 km/h
245 14-03-2010 00:57:04 4.6 C 3.57 g/m*3 4.6 C 0 km/h
246 14-03-2010 01:09:04 4.6 C 3.64 g/m*3 4.6 C 0 km/h
247 14-03-2010 01:21:04 4.5 C 3.68 g/m*3 4.5 C 0 km/h
248 14-03-2010 01:33:04 4.4 C 3.66 g/m*3 4.4 C 0 km/h
249 14-03-2010 01:45:04 4.3 C 3.7 g/m*3 4.3 C 0 km/h
250 14-03-2010 01:57:04 4.3 C 3.76 g/m*3 4.3 C 0 km/h
Sensor: Nr:Datum:Temp:Abs-Feuchte:Windchill:Wind:
Aussen-T/F 251 14-03-2010 02:09:04 4.3 C 3.76 g/m*3 4.3 C 0 km/h
252 14-03-2010 02:21:04 4.3 C 3.83 g/m*3 4.3 C 0 km/h
253 14-03-2010 02:33:04 4.3 C 3.83 g/m*3 4.3 C 0 km/h
254 14-03-2010 02:45:05 4.2 C 3.8 g/m*3 4.2 C 0 km/h
255 14-03-2010 02:57:05 4.3 C 3.83 g/m*3 4.3 C 0 km/h
256 14-03-2010 03:09:05 4.3 C 3.89 g/m*3 4.3 C 0 km/h
257 14-03-2010 03:21:05 4.3 C 3.89 g/m*3 4.3 C 0 km/h
258 14-03-2010 03:33:05 4.4 C 3.85 g/m*3 4.4 C 0 km/h
259 14-03-2010 03:45:05 4.4 C 3.85 g/m*3 4.4 C 0 km/h
260 14-03-2010 03:57:05 4.4 C 3.85 g/m*3 4.4 C 0 km/h
261 14-03-2010 04:09:05 4.4 C 3.85 g/m*3 4.4 C 0 km/h
262 14-03-2010 04:21:05 4.5 C 3.88 g/m*3 4.5 C 0 km/h
263 14-03-2010 04:33:05 4.4 C 3.92 g/m*3 4.4 C 0 km/h
264 14-03-2010 04:45:05 4.4 C 3.92 g/m*3 4.4 C 0 km/h
265 14-03-2010 04:57:05 4.3 C 3.96 g/m*3 4.3 C 0 km/h
266 14-03-2010 05:09:05 4.3 C 4.02 g/m*3 4.3 C 0 km/h
267 14-03-2010 05:21:05 4.3 C 4.02 g/m*3 4.3 C 0 km/h
268 14-03-2010 05:33:05 4.3 C 4.02 g/m*3 4.3 C 0 km/h
269 14-03-2010 05:45:05 4.2 C 3.99 g/m*3 4.2 C 0 km/h
270 14-03-2010 05:57:05 4.2 C 3.99 g/m*3 4.2 C 0 km/h
271 14-03-2010 06:09:05 4.3 C 4.02 g/m*3 4.3 C 0 km/h
272 14-03-2010 06:21:05 4.2 C 3.99 g/m*3 4.2 C 0 km/h
273 14-03-2010 06:33:05 4.2 C 3.99 g/m*3 4.2 C 0 km/h
274 14-03-2010 06:45:06 4.2 C 3.99 g/m*3 4.2 C 0 km/h
275 14-03-2010 06:57:06 4.2 C 4.06 g/m*3 4.2 C 0 km/h
Sensor: Nr:Datum:Temp:Abs-Feuchte:Windchill:Wind:
Aussen-T/F 276 14-03-2010 07:09:06 4.3 C 4.02 g/m*3 4.3 C 0 km/h
277 14-03-2010 07:21:06 4.3 C 4.02 g/m*3 4.3 C 0 km/h
278 14-03-2010 07:33:06 4.5 C 4.08 g/m*3 4.5 C 0 km/h
279 14-03-2010 07:45:06 4.6 C 4.04 g/m*3 4.6 C 0 km/h
280 14-03-2010 07:57:06 4.7 C 4 g/m*3 4.7 C 0 km/h
281 14-03-2010 08:09:06 4.8 C 3.96 g/m*3 4.8 C 0 km/h
282 14-03-2010 08:21:06 4.9 C 3.92 g/m*3 4.9 C 0 km/h
283 14-03-2010 08:33:06 5.2 C 3.86 g/m*3 5.2 C 0 km/h
284 14-03-2010 08:45:01 5.3 C 3.81 g/m*3 5.3 C 0 km/h
285 14-03-2010 08:57:01 5.4 C 3.77 g/m*3 5.4 C 0 km/h
286 14-03-2010 09:09:02 5.6 C 3.82 g/m*3 5.6 C 0 km/h
287 14-03-2010 09:21:01 5.7 C 3.77 g/m*3 5.7 C 0 km/h
288 14-03-2010 09:33:02 6 C 3.7 g/m*3 6 C 0 km/h
289 14-03-2010 09:45:02 5.9 C 3.75 g/m*3 5.9 C 0 km/h
290 14-03-2010 09:57:02 6 C 3.77 g/m*3 6 C 0 km/h
291 14-03-2010 10:09:02 6.3 C 3.78 g/m*3 6.3 C 0 km/h
292 14-03-2010 10:21:02 6.5 C 3.75 g/m*3 6.5 C 0 km/h
293 14-03-2010 10:33:02 6.8 C 3.82 g/m*3 6.8 C 0 km/h
294 14-03-2010 10:45:02 7 C 3.64 g/m*3 7 C 0 km/h
295 14-03-2010 10:57:02 6.9 C 3.7 g/m*3 6.9 C 0 km/h
296 14-03-2010 11:09:02 7.2 C 3.69 g/m*3 7.2 C 0 km/h
297 14-03-2010 11:21:02 7.5 C 3.76 g/m*3 7.5 C 0 km/h
298 14-03-2010 11:33:02 7.4 C 3.66 g/m*3 7.4 C 0 km/h
299 14-03-2010 11:45:01 7.5 C 3.76 g/m*3 7.5 C 0 km/h
300 14-03-2010 11:57:01 7.6 C 3.63 g/m*3 7.6 C 0 km/h
Sensor: Nr:Datum:Temp:Abs-Feuchte:Windchill:Wind:
Aussen-T/F 301 14-03-2010 12:09:02 7.8 C 3.51 g/m*3 7.8 C 0 km/h
302 14-03-2010 12:21:01 7.8 C 3.43 g/m*3 7.8 C 0 km/h
303 14-03-2010 12:33:01 7.7 C 3.49 g/m*3 7.7 C 0 km/h
304 14-03-2010 12:45:01 7.6 C 3.54 g/m*3 7.6 C 0 km/h
305 14-03-2010 12:57:01 7.6 C 3.63 g/m*3 7.6 C 0 km/h
306 14-03-2010 13:09:02 7.6 C 3.63 g/m*3 7.6 C 0 km/h
307 14-03-2010 13:21:01 7.7 C 3.73 g/m*3 7.7 C 0 km/h
308 14-03-2010 13:33:02 7.7 C 3.73 g/m*3 7.7 C 0 km/h
309 14-03-2010 13:45:02 7.5 C 3.76 g/m*3 7.5 C 0 km/h
310 14-03-2010 13:57:02 7.5 C 3.76 g/m*3 7.5 C 0 km/h
311 14-03-2010 14:09:02 7.4 C 3.74 g/m*3 7.4 C 0 km/h
312 14-03-2010 14:21:01 7.3 C 3.79 g/m*3 7.3 C 0 km/h
313 14-03-2010 14:33:02 7.4 C 3.82 g/m*3 7.4 C 0 km/h
314 14-03-2010 14:45:02 7.5 C 3.84 g/m*3 7.5 C 0 km/h
315 14-03-2010 14:57:02 7.5 C 3.84 g/m*3 7.5 C 0 km/h
316 14-03-2010 15:09:02 7.7 C 3.89 g/m*3 7.7 C 0 km/h
317 14-03-2010 15:21:02 7.7 C 3.89 g/m*3 7.7 C 0 km/h
318 14-03-2010 15:33:02 7.8 C 3.84 g/m*3 7.8 C 0 km/h
319 14-03-2010 15:45:02 7.8 C 3.92 g/m*3 7.8 C 0 km/h
320 14-03-2010 15:57:02 7.7 C 3.97 g/m*3 7.7 C 0 km/h
321 14-03-2010 16:09:02 7.6 C 3.95 g/m*3 7.6 C 0 km/h
322 14-03-2010 16:21:02 7.3 C 4.03 g/m*3 7.3 C 0 km/h
323 14-03-2010 16:33:02 7.2 C 4.08 g/m*3 7.2 C 0 km/h
324 14-03-2010 16:45:02 6.9 C 4.31 g/m*3 6.9 C 0 km/h
325 14-03-2010 16:57:02 6.5 C 4.27 g/m*3 6.5 C 0 km/h
Sensor: Nr:Datum:Temp:Abs-Feuchte:Windchill:Wind:
Aussen-T/F 326 14-03-2010 17:09:02 6.4 C 4.47 g/m*3 6.4 C 0 km/h
327 14-03-2010 17:21:02 6.7 C 4.18 g/m*3 6.7 C 0 km/h
328 14-03-2010 17:33:02 6.8 C 4.21 g/m*3 6.8 C 0 km/h
329 14-03-2010 17:45:02 6.6 C 4.23 g/m*3 6.6 C 0 km/h
330 14-03-2010 17:57:02 6.4 C 4.32 g/m*3 6.4 C 0 km/h
331 14-03-2010 18:09:02 6.4 C 4.4 g/m*3 6.4 C 0 km/h
332 14-03-2010 18:21:02 6.2 C 4.49 g/m*3 6.2 C 0 km/h
333 14-03-2010 18:33:02 5.9 C 4.61 g/m*3 5.9 C 0 km/h
334 14-03-2010 18:45:02 5.7 C 4.84 g/m*3 5.7 C 0 km/h
335 14-03-2010 18:57:02 5.4 C 4.95 g/m*3 5.4 C 0 km/h
336 14-03-2010 19:09:01 5.4 C 4.95 g/m*3 5.4 C 0 km/h
337 14-03-2010 19:21:02 5.4 C 4.95 g/m*3 5.4 C 0 km/h
338 14-03-2010 19:33:01 5.6 C 5.02 g/m*3 5.6 C 0 km/h
339 14-03-2010 19:45:02 5.7 C 4.98 g/m*3 5.7 C 0 km/h
340 14-03-2010 19:57:02 5.8 C 4.94 g/m*3 5.8 C 0 km/h
341 14-03-2010 20:09:01 5.7 C 4.91 g/m*3 5.7 C 0 km/h
342 14-03-2010 20:21:02 5.7 C 4.84 g/m*3 5.7 C 0 km/h
343 14-03-2010 20:33:01 5.7 C 4.77 g/m*3 5.7 C 0 km/h
344 14-03-2010 20:45:02 5.8 C 4.73 g/m*3 5.8 C 0 km/h
345 14-03-2010 20:57:02 5.7 C 4.63 g/m*3 5.7 C 0 km/h
346 14-03-2010 21:09:02 5.7 C 4.55 g/m*3 5.7 C 0 km/h
347 14-03-2010 21:21:02 5.7 C 4.55 g/m*3 5.7 C 0 km/h
348 14-03-2010 21:33:02 5.9 C 4.4 g/m*3 5.9 C 0 km/h
349 14-03-2010 21:46:05 5.8 C 4.37 g/m*3 5.8 C 0 km/h
350 14-03-2010 21:58:06 5.8 C 4.3 g/m*3 5.8 C 0 km/h
Sensor: Nr:Datum:Temp:Abs-Feuchte:Windchill:Wind:
Aussen-T/F 351 14-03-2010 22:10:06 5.8 C 4.3 g/m*3 5.8 C 0 km/h
352 14-03-2010 22:22:06 5.9 C 4.33 g/m*3 5.9 C 0 km/h
353 14-03-2010 22:34:06 5.8 C 4.3 g/m*3 5.8 C 0 km/h
354 14-03-2010 22:46:06 5.9 C 4.33 g/m*3 5.9 C 0 km/h
355 14-03-2010 22:58:06 5.9 C 4.33 g/m*3 5.9 C 0 km/h
356 14-03-2010 23:10:06 6.1 C 4.31 g/m*3 6.1 C 0 km/h
357 14-03-2010 23:22:06 6 C 4.5 g/m*3 6 C 0 km/h
358 14-03-2010 23:34:06 5.8 C 4.58 g/m*3 5.8 C 0 km/h
359 14-03-2010 23:46:06 6.1 C 4.75 g/m*3 6.1 C 0 km/h
360 14-03-2010 23:58:06 5.7 C 4.77 g/m*3 5.7 C 0 km/h
361 15-03-2010 00:10:06 5.8 C 4.73 g/m*3 5.8 C 0 km/h
362 15-03-2010 00:22:06 5.8 C 4.73 g/m*3 5.8 C 0 km/h
363 15-03-2010 00:34:06 5.9 C 4.76 g/m*3 5.9 C 0 km/h
364 15-03-2010 00:46:06 5.8 C 4.8 g/m*3 5.8 C 0 km/h
365 15-03-2010 00:58:06 5.8 C 4.73 g/m*3 5.8 C 0 km/h
366 15-03-2010 01:10:06 5.8 C 4.73 g/m*3 5.8 C 0 km/h
367 15-03-2010 01:22:06 5.8 C 4.73 g/m*3 5.8 C 0 km/h
368 15-03-2010 01:34:06 5.7 C 4.63 g/m*3 5.7 C 0 km/h
369 15-03-2010 01:46:06 5.7 C 4.7 g/m*3 5.7 C 0 km/h
370 15-03-2010 01:58:07 5.7 C 4.77 g/m*3 5.7 C 0 km/h
371 15-03-2010 02:10:07 5.4 C 4.81 g/m*3 5.4 C 0 km/h
372 15-03-2010 02:22:07 5.2 C 4.82 g/m*3 5.2 C 0 km/h
373 15-03-2010 02:34:07 4.9 C 4.93 g/m*3 4.9 C 0 km/h
374 15-03-2010 02:46:07 4.8 C 5.03 g/m*3 4.8 C 0 km/h
375 15-03-2010 02:58:07 4.7 C 5 g/m*3 4.7 C 0 km/h
Sensor: Nr:Datum:Temp:Abs-Feuchte:Windchill:Wind:
Aussen-T/F 376 15-03-2010 03:10:07 5 C 4.76 g/m*3 5 C 0 km/h
377 15-03-2010 03:22:07 5 C 4.69 g/m*3 5 C 0 km/h
378 15-03-2010 03:34:07 4.9 C 4.79 g/m*3 4.9 C 0 km/h
379 15-03-2010 03:46:07 4.8 C 4.69 g/m*3 4.8 C 0 km/h
380 15-03-2010 03:58:07 4.7 C 4.73 g/m*3 4.7 C 0 km/h
381 15-03-2010 04:10:07 4.6 C 4.63 g/m*3 4.6 C 0 km/h
382 15-03-2010 04:22:07 4.6 C 4.63 g/m*3 4.6 C 0 km/h
383 15-03-2010 04:34:07 4.6 C 4.63 g/m*3 4.6 C 0 km/h
384 15-03-2010 04:46:07 4.6 C 4.57 g/m*3 4.6 C 0 km/h
385 15-03-2010 04:58:07 4.7 C 4.6 g/m*3 4.7 C 0 km/h
386 15-03-2010 05:10:07 4.6 C 4.5 g/m*3 4.6 C 0 km/h
387 15-03-2010 05:22:07 4.6 C 4.57 g/m*3 4.6 C 0 km/h
388 15-03-2010 05:34:07 4.6 C 4.43 g/m*3 4.6 C 0 km/h
389 15-03-2010 05:46:07 4.7 C 4.33 g/m*3 4.7 C 0 km/h
390 15-03-2010 05:58:07 4.7 C 4.33 g/m*3 4.7 C 0 km/h
391 15-03-2010 06:10:08 4.7 C 4.26 g/m*3 4.7 C 0 km/h
392 15-03-2010 06:22:03 4.7 C 4.2 g/m*3 4.7 C 0 km/h
393 15-03-2010 06:34:04 4.6 C 4.17 g/m*3 4.6 C 0 km/h
394 15-03-2010 06:46:02 4.6 C 4.23 g/m*3 4.6 C 0 km/h
395 15-03-2010 06:58:02 4.7 C 4.2 g/m*3 4.7 C 0 km/h
396 15-03-2010 07:10:02 4.4 C 4.37 g/m*3 4.4 C 0 km/h
397 15-03-2010 07:22:02 4 C 4.64 g/m*3 4 C 0 km/h
398 15-03-2010 07:34:02 3.7 C 4.86 g/m*3 3.7 C 0 km/h
399 15-03-2010 07:46:02 3.6 C 4.95 g/m*3 3.6 C 0 km/h
400 15-03-2010 07:58:02 3.7 C 5.11 g/m*3 3.7 C 0 km/h
Sensor: Nr:Datum:Temp:Abs-Feuchte:Windchill:Wind:
Aussen-T/F 401 15-03-2010 08:10:02 3.8 C 5.21 g/m*3 3.8 C 0 km/h
402 15-03-2010 08:22:02 3.7 C 5.23 g/m*3 3.7 C 0 km/h
403 15-03-2010 08:34:02 3.8 C 5.33 g/m*3 3.8 C 0 km/h
404 15-03-2010 08:46:02 4 C 5.4 g/m*3 4 C 0 km/h
405 15-03-2010 08:58:02 4.2 C 5.54 g/m*3 4.2 C 0 km/h
406 15-03-2010 09:10:02 4.3 C 5.51 g/m*3 4.3 C 0 km/h
407 15-03-2010 09:22:02 4.3 C 5.51 g/m*3 4.3 C 0 km/h
408 15-03-2010 09:34:02 4.4 C 5.55 g/m*3 4.4 C 0 km/h
409 15-03-2010 09:46:02 4.6 C 5.62 g/m*3 4.6 C 0 km/h
410 15-03-2010 09:58:02 4.5 C 5.52 g/m*3 4.5 C 0 km/h
411 15-03-2010 10:10:02 4.5 C 5.52 g/m*3 4.5 C 0 km/h
412 15-03-2010 10:22:02 4.6 C 5.56 g/m*3 4.6 C 0 km/h
413 15-03-2010 10:34:02 5.1 C 5.61 g/m*3 5.1 C 0 km/h
414 15-03-2010 10:46:02 5.5 C 5.48 g/m*3 5.5 C 0 km/h
415 15-03-2010 10:58:02 6 C 5.44 g/m*3 6 C 0 km/h
416 15-03-2010 11:10:02 5.9 C 5.26 g/m*3 5.9 C 0 km/h
417 15-03-2010 11:22:02 6 C 5.08 g/m*3 6 C 0 km/h
418 15-03-2010 11:34:01 5.9 C 5.05 g/m*3 5.9 C 0 km/h
419 15-03-2010 11:46:02 5.9 C 4.98 g/m*3 5.9 C 0 km/h
420 15-03-2010 11:58:02 6 C 4.94 g/m*3 6 C 0 km/h
421 15-03-2010 12:10:01 6 C 4.79 g/m*3 6 C 0 km/h
422 15-03-2010 12:22:02 6.6 C 4.98 g/m*3 6.6 C 0 km/h
423 15-03-2010 12:34:01 7.4 C 4.85 g/m*3 7.4 C 0 km/h
424 15-03-2010 12:46:02 7.8 C 4.98 g/m*3 7.8 C 0 km/h
425 15-03-2010 12:58:02 8.5 C 4.87 g/m*3 8.5 C 0 km/h
Sensor: Nr:Datum:Temp:Abs-Feuchte:Windchill:Wind:
Aussen-T/F 426 15-03-2010 13:10:02 9.3 C 4.67 g/m*3 9.3 C 0 km/h
427 15-03-2010 13:22:02 9 C 4.58 g/m*3 9 C 0 km/h
428 15-03-2010 13:34:02 9.4 C 4.61 g/m*3 9.4 C 0 km/h
429 15-03-2010 13:46:02 9.9 C 4.58 g/m*3 9.9 C 0 km/h
430 15-03-2010 13:58:03 9.7 C 4.33 g/m*3 9.7 C 0 km/h
431 15-03-2010 14:10:01 10.1 C 4.35 g/m*3 10.1 C 0 km/h
432 15-03-2010 14:22:01 10 C 4.04 g/m*3 10 C 0 km/h
433 15-03-2010 14:34:02 10.4 C 3.95 g/m*3 10.4 C 0 km/h
434 15-03-2010 14:46:02 10.5 C 4.07 g/m*3 10.5 C 0 km/h
435 15-03-2010 14:58:02 10.3 C 4.02 g/m*3 10.3 C 0 km/h
436 15-03-2010 15:10:01 10.4 C 4.05 g/m*3 10.4 C 0 km/h
437 15-03-2010 15:22:02 11 C 4.1 g/m*3 11 C 0 km/h
438 15-03-2010 15:34:02 10.5 C 3.98 g/m*3 10.5 C 0 km/h
439 15-03-2010 15:46:02 10.4 C 4.05 g/m*3 10.4 C 0 km/h
440 15-03-2010 15:58:02 10.1 C 4.07 g/m*3 10.1 C 0 km/h
441 15-03-2010 16:10:03 9.9 C 4.2 g/m*3 9.9 C 0 km/h
442 15-03-2010 16:22:02 10 C 4.23 g/m*3 10 C 0 km/h
443 15-03-2010 16:34:02 9.9 C 4.29 g/m*3 9.9 C 0 km/h
444 15-03-2010 16:46:01 9.8 C 4.27 g/m*3 9.8 C 0 km/h
445 15-03-2010 16:58:01 9.7 C 4.43 g/m*3 9.7 C 0 km/h
446 15-03-2010 17:10:02 9.6 C 4.4 g/m*3 9.6 C 0 km/h
447 15-03-2010 17:22:01 9.2 C 4.55 g/m*3 9.2 C 0 km/h
448 15-03-2010 17:34:01 8.6 C 4.98 g/m*3 8.6 C 0 km/h
449 15-03-2010 17:46:01 8.3 C 5.06 g/m*3 8.3 C 0 km/h
450 15-03-2010 17:58:01 8.2 C 4.94 g/m*3 8.2 C 0 km/h
Sensor: Nr:Datum:Temp:Abs-Feuchte:Windchill:Wind:
Aussen-T/F 451 15-03-2010 18:10:02 8.2 C 5.11 g/m*3 8.2 C 0 km/h
452 15-03-2010 18:22:01 8.1 C 5.16 g/m*3 8.1 C 0 km/h
453 15-03-2010 18:34:02 8 C 5.21 g/m*3 8 C 0 km/h
454 15-03-2010 18:46:01 8.1 C 5.08 g/m*3 8.1 C 0 km/h
455 15-03-2010 18:58:01 7.7 C 5.27 g/m*3 7.7 C 0 km/h
456 15-03-2010 19:10:02 7.5 C 5.36 g/m*3 7.5 C 0 km/h
457 15-03-2010 19:22:01 7.2 C 5.42 g/m*3 7.2 C 0 km/h
458 15-03-2010 19:34:02 7.1 C 5.46 g/m*3 7.1 C 0 km/h
459 15-03-2010 19:46:01 7 C 5.5 g/m*3 7 C 0 km/h
460 15-03-2010 19:58:01 7 C 5.58 g/m*3 7 C 0 km/h
461 15-03-2010 20:10:02 6.7 C 5.77 g/m*3 6.7 C 0 km/h
462 15-03-2010 20:22:01 6.8 C 5.81 g/m*3 6.8 C 0 km/h
463 15-03-2010 20:34:02 6.9 C 5.62 g/m*3 6.9 C 0 km/h
464 15-03-2010 20:46:01 6.8 C 5.58 g/m*3 6.8 C 0 km/h
465 15-03-2010 20:58:01 6.8 C 5.58 g/m*3 6.8 C 0 km/h
466 15-03-2010 21:10:02 6.9 C 5.47 g/m*3 6.9 C 0 km/h
467 15-03-2010 21:22:02 6.6 C 5.59 g/m*3 6.6 C 0 km/h
468 15-03-2010 21:34:02 6.4 C 5.66 g/m*3 6.4 C 0 km/h
469 15-03-2010 21:46:01 6.3 C 5.85 g/m*3 6.3 C 0 km/h
470 15-03-2010 21:58:01 6.2 C 5.81 g/m*3 6.2 C 0 km/h
471 15-03-2010 22:10:01 6.1 C 5.77 g/m*3 6.1 C 0 km/h
472 15-03-2010 22:23:02 6 C 5.73 g/m*3 6 C 0 km/h
473 15-03-2010 22:35:02 6 C 5.88 g/m*3 6 C 0 km/h
474 15-03-2010 22:47:02 5.8 C 5.95 g/m*3 5.8 C 0 km/h
475 15-03-2010 22:59:02 5.8 C 6.02 g/m*3 5.8 C 0 km/h
Sensor: Nr:Datum:Temp:Abs-Feuchte:Windchill:Wind:
Aussen-T/F 476 15-03-2010 23:11:02 5.7 C 6.05 g/m*3 5.7 C 0 km/h
477 15-03-2010 23:23:02 5.6 C 6.08 g/m*3 5.6 C 0 km/h
478 15-03-2010 23:35:03 5.5 C 6.11 g/m*3 5.5 C 0 km/h
479 15-03-2010 23:47:03 5.5 C 6.11 g/m*3 5.5 C 0 km/h
480 15-03-2010 23:59:03 5.4 C 6.07 g/m*3 5.4 C 0 km/h
481 16-03-2010 00:11:03 5.4 C 6.14 g/m*3 5.4 C 0 km/h
482 16-03-2010 00:23:03 5.4 C 6.14 g/m*3 5.4 C 0 km/h
483 16-03-2010 00:35:03 5.3 C 6.1 g/m*3 5.3 C 0 km/h
484 16-03-2010 00:47:03 5.2 C 6.13 g/m*3 5.2 C 0 km/h
485 16-03-2010 00:59:03 5.1 C 6.09 g/m*3 5.1 C 0 km/h
486 16-03-2010 01:11:03 5 C 5.98 g/m*3 5 C 0 km/h
487 16-03-2010 01:23:03 5 C 6.05 g/m*3 5 C 0 km/h
488 16-03-2010 01:35:03 5 C 6.05 g/m*3 5 C 0 km/h
489 16-03-2010 01:47:03 5 C 6.05 g/m*3 5 C 0 km/h
490 16-03-2010 01:59:03 5 C 6.05 g/m*3 5 C 0 km/h
491 16-03-2010 02:11:03 5 C 6.12 g/m*3 5 C 0 km/h
492 16-03-2010 02:23:03 4.9 C 6.08 g/m*3 4.9 C 0 km/h
493 16-03-2010 02:35:03 4.9 C 6.08 g/m*3 4.9 C 0 km/h
494 16-03-2010 02:47:03 4.9 C 6.08 g/m*3 4.9 C 0 km/h
495 16-03-2010 02:59:03 4.8 C 5.97 g/m*3 4.8 C 0 km/h
496 16-03-2010 03:11:03 4.8 C 5.97 g/m*3 4.8 C 0 km/h
497 16-03-2010 03:23:03 4.7 C 5.93 g/m*3 4.7 C 0 km/h
498 16-03-2010 03:35:04 4.8 C 6.04 g/m*3 4.8 C 0 km/h
499 16-03-2010 03:47:04 4.8 C 6.04 g/m*3 4.8 C 0 km/h
500 16-03-2010 03:59:04 4.8 C 6.1 g/m*3 4.8 C 0 km/h
Sensor: Nr:Datum:Temp:Abs-Feuchte:Windchill:Wind:
Aussen-T/F 501 16-03-2010 04:11:04 4.8 C 6.1 g/m*3 4.8 C 0 km/h
502 16-03-2010 04:23:04 4.8 C 6.1 g/m*3 4.8 C 0 km/h
503 16-03-2010 04:35:04 4.7 C 6.06 g/m*3 4.7 C 0 km/h
504 16-03-2010 04:47:04 4.8 C 6.1 g/m*3 4.8 C 0 km/h
505 16-03-2010 04:59:04 4.7 C 6.06 g/m*3 4.7 C 0 km/h
506 16-03-2010 05:11:04 4.7 C 6.06 g/m*3 4.7 C 0 km/h
507 16-03-2010 05:23:04 4.7 C 6.13 g/m*3 4.7 C 0 km/h
508 16-03-2010 05:35:04 4.7 C 6.13 g/m*3 4.7 C 0 km/h
509 16-03-2010 05:47:04 4.6 C 6.02 g/m*3 4.6 C 0 km/h
510 16-03-2010 05:59:04 4.6 C 6.02 g/m*3 4.6 C 0 km/h
511 16-03-2010 06:11:04 4.6 C 6.02 g/m*3 4.6 C 0 km/h
512 16-03-2010 06:23:04 4.6 C 5.96 g/m*3 4.6 C 0 km/h
513 16-03-2010 06:35:04 4.6 C 5.96 g/m*3 4.6 C 0 km/h
514 16-03-2010 06:47:04 4.7 C 6.06 g/m*3 4.7 C 0 km/h
515 16-03-2010 06:59:04 4.7 C 6.06 g/m*3 4.7 C 0 km/h
516 16-03-2010 07:11:02 4.7 C 6.06 g/m*3 4.7 C 0 km/h
517 16-03-2010 07:23:01 4.8 C 6.1 g/m*3 4.8 C 0 km/h
518 16-03-2010 07:35:02 4.9 C 6.21 g/m*3 4.9 C 0 km/h
519 16-03-2010 07:47:02 5 C 6.18 g/m*3 5 C 0 km/h
520 16-03-2010 07:59:02 5 C 6.18 g/m*3 5 C 0 km/h
521 16-03-2010 08:11:02 5 C 6.18 g/m*3 5 C 0 km/h
522 16-03-2010 08:23:02 5.1 C 6.22 g/m*3 5.1 C 0 km/h
523 16-03-2010 08:35:02 5.3 C 6.31 g/m*3 5.3 C 0 km/h
524 16-03-2010 08:47:02 5.3 C 6.24 g/m*3 5.3 C 0 km/h
525 16-03-2010 08:59:02 5.5 C 6.32 g/m*3 5.5 C 0 km/h
Sensor: Nr:Datum:Temp:Abs-Feuchte:Windchill:Wind:
Aussen-T/F 526 16-03-2010 09:11:01 5.7 C 6.4 g/m*3 5.7 C 0 km/h
527 16-03-2010 09:23:02 6 C 6.46 g/m*3 6 C 0 km/h
528 16-03-2010 09:35:01 6.4 C 6.48 g/m*3 6.4 C 0 km/h
529 16-03-2010 09:47:02 6.4 C 6.26 g/m*3 6.4 C 0 km/h
530 16-03-2010 09:59:02 6.6 C 6.11 g/m*3 6.6 C 0 km/h
531 16-03-2010 10:11:01 6.7 C 6 g/m*3 6.7 C 0 km/h
532 16-03-2010 10:23:01 6.8 C 5.97 g/m*3 6.8 C 0 km/h
533 16-03-2010 10:35:02 6.8 C 5.81 g/m*3 6.8 C 0 km/h
534 16-03-2010 10:47:02 6.8 C 5.66 g/m*3 6.8 C 0 km/h
535 16-03-2010 10:59:03 6.9 C 5.7 g/m*3 6.9 C 0 km/h
536 16-03-2010 11:11:01 7.1 C 5.62 g/m*3 7.1 C 0 km/h
537 16-03-2010 11:23:02 7.5 C 5.44 g/m*3 7.5 C 0 km/h
538 16-03-2010 11:35:02 8.1 C 5.41 g/m*3 8.1 C 0 km/h
539 16-03-2010 11:47:02 8.5 C 5.29 g/m*3 8.5 C 0 km/h
540 16-03-2010 11:59:02 8.7 C 5.1 g/m*3 8.7 C 0 km/h
541 16-03-2010 12:11:03 8.7 C 5.1 g/m*3 8.7 C 0 km/h
542 16-03-2010 12:23:02 8.9 C 5.26 g/m*3 8.9 C 0 km/h
543 16-03-2010 12:35:02 8.4 C 5.17 g/m*3 8.4 C 0 km/h
544 16-03-2010 12:47:02 7.9 C 5.34 g/m*3 7.9 C 0 km/h
545 16-03-2010 12:59:02 7.8 C 5.39 g/m*3 7.8 C 0 km/h
546 16-03-2010 13:11:02 8 C 5.29 g/m*3 8 C 0 km/h
547 16-03-2010 13:23:01 7.8 C 5.14 g/m*3 7.8 C 0 km/h
548 16-03-2010 13:35:02 8.7 C 5.45 g/m*3 8.7 C 0 km/h
549 16-03-2010 13:47:02 8.2 C 5.11 g/m*3 8.2 C 0 km/h
550 16-03-2010 13:59:02 8.1 C 5.08 g/m*3 8.1 C 0 km/h
Sensor: Nr:Datum:Temp:Abs-Feuchte:Windchill:Wind:
Aussen-T/F 551 16-03-2010 14:11:02 8.1 C 5.16 g/m*3 8.1 C 0 km/h
552 16-03-2010 14:23:01 8.7 C 5.36 g/m*3 8.7 C 0 km/h
553 16-03-2010 14:35:02 8.7 C 5.1 g/m*3 8.7 C 0 km/h
554 16-03-2010 14:47:02 8.2 C 4.94 g/m*3 8.2 C 0 km/h
555 16-03-2010 14:59:02 8.1 C 4.99 g/m*3 8.1 C 0 km/h
556 16-03-2010 15:11:02 8.1 C 5.08 g/m*3 8.1 C 0 km/h
557 16-03-2010 15:23:01 8.5 C 5.12 g/m*3 8.5 C 0 km/h
558 16-03-2010 15:35:02 8.6 C 4.81 g/m*3 8.6 C 0 km/h
559 16-03-2010 15:47:01 8.8 C 4.79 g/m*3 8.8 C 0 km/h
560 16-03-2010 15:59:01 9 C 4.85 g/m*3 9 C 0 km/h
561 16-03-2010 16:11:02 8.7 C 4.76 g/m*3 8.7 C 0 km/h
562 16-03-2010 16:23:02 8.5 C 4.78 g/m*3 8.5 C 0 km/h
563 16-03-2010 16:35:02 8.7 C 4.84 g/m*3 8.7 C 0 km/h
564 16-03-2010 16:47:02 8.7 C 4.84 g/m*3 8.7 C 0 km/h
565 16-03-2010 16:59:02 8.7 C 4.84 g/m*3 8.7 C 0 km/h
566 16-03-2010 17:11:02 8.9 C 4.99 g/m*3 8.9 C 0 km/h
567 16-03-2010 17:23:02 8.8 C 5.05 g/m*3 8.8 C 0 km/h
568 16-03-2010 17:35:01 8.6 C 4.98 g/m*3 8.6 C 0 km/h
569 16-03-2010 17:47:02 8.6 C 4.98 g/m*3 8.6 C 0 km/h
570 16-03-2010 17:59:02 8.4 C 5.01 g/m*3 8.4 C 0 km/h
571 16-03-2010 18:11:01 8.2 C 5.28 g/m*3 8.2 C 0 km/h
572 16-03-2010 18:23:02 8 C 5.37 g/m*3 8 C 0 km/h
573 16-03-2010 18:35:01 7.8 C 5.55 g/m*3 7.8 C 0 km/h
574 16-03-2010 18:47:02 7.5 C 5.52 g/m*3 7.5 C 0 km/h
575 16-03-2010 18:59:02 7.3 C 5.53 g/m*3 7.3 C 0 km/h
Sensor: Nr:Datum:Temp:Abs-Feuchte:Windchill:Wind:
Aussen-T/F 576 16-03-2010 19:11:02 7.1 C 5.46 g/m*3 7.1 C 0 km/h
577 16-03-2010 19:23:02 7 C 5.58 g/m*3 7 C 0 km/h
578 16-03-2010 19:35:03 6.9 C 5.62 g/m*3 6.9 C 0 km/h
579 16-03-2010 19:47:02 6.8 C 5.58 g/m*3 6.8 C 0 km/h
580 16-03-2010 19:59:02 6.6 C 5.51 g/m*3 6.6 C 0 km/h
581 16-03-2010 20:11:01 6.2 C 5.37 g/m*3 6.2 C 0 km/h
582 16-03-2010 20:23:02 5.7 C 5.34 g/m*3 5.7 C 0 km/h
583 16-03-2010 20:35:02 5.3 C 5.2 g/m*3 5.3 C 0 km/h
584 16-03-2010 20:47:02 4.9 C 5.2 g/m*3 4.9 C 0 km/h
585 16-03-2010 20:59:03 4.6 C 5.16 g/m*3 4.6 C 0 km/h
586 16-03-2010 21:11:01 4.4 C 5.09 g/m*3 4.4 C 0 km/h
587 16-03-2010 21:23:01 4.2 C 5.03 g/m*3 4.2 C 0 km/h
588 16-03-2010 21:36:04 4 C 5.02 g/m*3 4 C 0 km/h
589 16-03-2010 21:48:04 3.8 C 5.02 g/m*3 3.8 C 0 km/h
590 16-03-2010 22:00:04 3.7 C 5.05 g/m*3 3.7 C 0 km/h
591 16-03-2010 22:12:04 3.3 C 4.91 g/m*3 3.3 C 0 km/h
592 16-03-2010 22:24:04 3.2 C 4.88 g/m*3 3.2 C 0 km/h
593 16-03-2010 22:36:04 2.9 C 4.84 g/m*3 2.9 C 0 km/h
594 16-03-2010 22:48:04 2.8 C 4.81 g/m*3 2.8 C 0 km/h
595 16-03-2010 23:00:04 2.7 C 4.78 g/m*3 2.7 C 0 km/h
596 16-03-2010 23:12:04 2.5 C 4.71 g/m*3 2.5 C 0 km/h
597 16-03-2010 23:24:04 2.4 C 4.74 g/m*3 2.4 C 0 km/h
598 16-03-2010 23:36:04 2.2 C 4.68 g/m*3 2.2 C 0 km/h
599 16-03-2010 23:48:04 2 C 4.61 g/m*3 2 C 0 km/h
600 17-03-2010 00:00:04 2.3 C 4.76 g/m*3 2.3 C 0 km/h
Sensor: Nr:Datum:Temp:Abs-Feuchte:Windchill:Wind:
Aussen-T/F 601 17-03-2010 00:12:04 2 C 4.67 g/m*3 2 C 0 km/h
602 17-03-2010 00:24:05 2.2 C 4.73 g/m*3 2.2 C 0 km/h
603 17-03-2010 00:36:05 2.3 C 4.82 g/m*3 2.3 C 0 km/h
604 17-03-2010 00:48:05 2.3 C 4.76 g/m*3 2.3 C 0 km/h
605 17-03-2010 01:00:05 2.3 C 4.76 g/m*3 2.3 C 0 km/h
606 17-03-2010 01:12:05 2.3 C 4.76 g/m*3 2.3 C 0 km/h
607 17-03-2010 01:24:05 1.8 C 4.6 g/m*3 1.8 C 0 km/h
608 17-03-2010 01:36:05 1.6 C 4.54 g/m*3 1.6 C 0 km/h
609 17-03-2010 01:48:05 1.7 C 4.63 g/m*3 1.7 C 0 km/h
610 17-03-2010 02:00:05 2 C 4.67 g/m*3 2 C 0 km/h
611 17-03-2010 02:12:05 2 C 4.67 g/m*3 2 C 0 km/h
612 17-03-2010 02:24:05 2.1 C 4.64 g/m*3 2.1 C 0 km/h
613 17-03-2010 02:36:05 2.1 C 4.64 g/m*3 2.1 C 0 km/h
614 17-03-2010 02:48:05 2.1 C 4.59 g/m*3 2.1 C 0 km/h
615 17-03-2010 03:00:05 2.2 C 4.62 g/m*3 2.2 C 0 km/h
616 17-03-2010 03:12:05 2 C 4.56 g/m*3 2 C 0 km/h
617 17-03-2010 03:24:05 2.1 C 4.59 g/m*3 2.1 C 0 km/h
618 17-03-2010 03:36:05 2 C 4.56 g/m*3 2 C 0 km/h
619 17-03-2010 03:48:05 2.1 C 4.59 g/m*3 2.1 C 0 km/h
620 17-03-2010 04:00:05 2 C 4.56 g/m*3 2 C 0 km/h
621 17-03-2010 04:12:05 1.9 C 4.58 g/m*3 1.9 C 0 km/h
622 17-03-2010 04:24:05 1.7 C 4.46 g/m*3 1.7 C 0 km/h
623 17-03-2010 04:36:06 1.4 C 4.37 g/m*3 1.4 C 0 km/h
624 17-03-2010 04:48:06 1.1 C 4.34 g/m*3 1.1 C 0 km/h
625 17-03-2010 05:00:06 1 C 4.31 g/m*3 1 C 0 km/h
Sensor: Nr:Datum:Temp:Abs-Feuchte:Windchill:Wind:
Aussen-T/F 626 17-03-2010 05:12:06 0.8 C 4.3 g/m*3 0.8 C 0 km/h
627 17-03-2010 05:24:06 0.8 C 4.35 g/m*3 0.8 C 0 km/h
628 17-03-2010 05:36:06 0.7 C 4.32 g/m*3 0.7 C 0 km/h
629 17-03-2010 05:48:06 0.7 C 4.37 g/m*3 0.7 C 0 km/h
630 17-03-2010 06:00:06 0.6 C 4.34 g/m*3 0.6 C 0 km/h
631 17-03-2010 06:12:06 0.5 C 4.31 g/m*3 0.5 C 0 km/h
632 17-03-2010 06:24:06 0.6 C 4.39 g/m*3 0.6 C 0 km/h
633 17-03-2010 06:36:06 0.4 C 4.33 g/m*3 0.4 C 0 km/h
634 17-03-2010 06:48:02 0.6 C 4.39 g/m*3 0.6 C 0 km/h
635 17-03-2010 07:00:02 0.5 C 4.36 g/m*3 0.5 C 0 km/h
636 17-03-2010 07:12:02 0.6 C 4.44 g/m*3 0.6 C 0 km/h
637 17-03-2010 07:24:03 0.8 C 4.51 g/m*3 0.8 C 0 km/h
638 17-03-2010 07:36:02 1.2 C 4.63 g/m*3 1.2 C 0 km/h
639 17-03-2010 07:48:02 1.5 C 4.73 g/m*3 1.5 C 0 km/h
640 17-03-2010 08:00:02 1.6 C 4.7 g/m*3 1.6 C 0 km/h
641 17-03-2010 08:12:02 1.8 C 4.77 g/m*3 1.8 C 0 km/h
642 17-03-2010 08:24:02 2 C 4.72 g/m*3 2 C 0 km/h
643 17-03-2010 08:36:02 2.3 C 4.76 g/m*3 2.3 C 0 km/h
644 17-03-2010 08:48:02 2.6 C 4.8 g/m*3 2.6 C 0 km/h
645 17-03-2010 09:00:02 2.9 C 4.67 g/m*3 2.9 C 0 km/h
646 17-03-2010 09:12:02 3.5 C 4.67 g/m*3 3.5 C 0 km/h
647 17-03-2010 09:24:03 4.2 C 4.77 g/m*3 4.2 C 0 km/h
648 17-03-2010 09:36:02 4.6 C 4.5 g/m*3 4.6 C 0 km/h
649 17-03-2010 09:48:02 4.8 C 4.36 g/m*3 4.8 C 0 km/h
650 17-03-2010 10:00:02 5.2 C 4.41 g/m*3 5.2 C 0 km/h
Sensor: Nr:Datum:Temp:Abs-Feuchte:Windchill:Wind:
Aussen-T/F 651 17-03-2010 10:12:02 5.5 C 4.35 g/m*3 5.5 C 0 km/h
652 17-03-2010 10:24:02 6.2 C 4.27 g/m*3 6.2 C 0 km/h
653 17-03-2010 10:36:02 6.8 C 4.36 g/m*3 6.8 C 0 km/h
654 17-03-2010 10:48:02 7.1 C 4.21 g/m*3 7.1 C 0 km/h
655 17-03-2010 11:00:02 7.6 C 4.11 g/m*3 7.6 C 0 km/h
656 17-03-2010 11:12:02 8.2 C 3.94 g/m*3 8.2 C 0 km/h
657 17-03-2010 11:24:02 8.8 C 3.92 g/m*3 8.8 C 0 km/h
658 17-03-2010 11:36:01 9 C 3.79 g/m*3 9 C 0 km/h
659 17-03-2010 11:48:02 9.1 C 3.73 g/m*3 9.1 C 0 km/h
660 17-03-2010 12:00:02 9.6 C 3.94 g/m*3 9.6 C 0 km/h
661 17-03-2010 12:12:01 10.1 C 3.78 g/m*3 10.1 C 0 km/h
662 17-03-2010 12:24:02 10.4 C 3.66 g/m*3 10.4 C 0 km/h
663 17-03-2010 12:36:02 11.1 C 3.73 g/m*3 11.1 C 0 km/h
664 17-03-2010 12:48:02 11.5 C 3.72 g/m*3 11.5 C 0 km/h
665 17-03-2010 13:00:03 11.8 C 3.58 g/m*3 11.8 C 0 km/h
666 17-03-2010 13:12:02 12.2 C 3.45 g/m*3 12.2 C 0 km/h
667 17-03-2010 13:24:02 12.8 C 3.47 g/m*3 12.8 C 0 km/h
668 17-03-2010 13:36:02 13.1 C 3.42 g/m*3 13.1 C 0 km/h
669 17-03-2010 13:48:02 13.2 C 3.44 g/m*3 13.2 C 0 km/h
670 17-03-2010 14:00:02 13.4 C 3.02 g/m*3 13.4 C 0 km/h
671 17-03-2010 14:12:02 13.5 C 2.92 g/m*3 13.5 C 0 km/h
672 17-03-2010 14:24:01 13.4 C 2.91 g/m*3 13.4 C 0 km/h
673 17-03-2010 14:36:02 13.8 C 3.1 g/m*3 13.8 C 0 km/h
674 17-03-2010 14:48:02 14.1 C 2.79 g/m*3 14.1 C 0 km/h
675 17-03-2010 15:00:02 14.5 C 3.11 g/m*3 14.5 C 0 km/h
Sensor: Nr:Datum:Temp:Abs-Feuchte:Windchill:Wind:
Aussen-T/F 676 17-03-2010 15:12:02 14.7 C 3.15 g/m*3 14.7 C 0 km/h
677 17-03-2010 15:24:02 14.6 C 3.13 g/m*3 14.6 C 0 km/h
678 17-03-2010 15:36:02 14.6 C 3.13 g/m*3 14.6 C 0 km/h
679 17-03-2010 15:48:02 14.1 C 3.16 g/m*3 14.1 C 0 km/h
680 17-03-2010 16:00:02 14.1 C 3.03 g/m*3 14.1 C 0 km/h
681 17-03-2010 16:12:03 13.9 C 3 g/m*3 13.9 C 0 km/h
682 17-03-2010 16:24:02 14 C 3.14 g/m*3 14 C 0 km/h
683 17-03-2010 16:36:02 13.9 C 3.12 g/m*3 13.9 C 0 km/h
684 17-03-2010 16:48:01 13.8 C 2.98 g/m*3 13.8 C 0 km/h
685 17-03-2010 17:00:01 13.7 C 3.08 g/m*3 13.7 C 0 km/h
686 17-03-2010 17:12:02 13.7 C 3.08 g/m*3 13.7 C 0 km/h
687 17-03-2010 17:24:01 13.4 C 3.25 g/m*3 13.4 C 0 km/h
688 17-03-2010 17:36:01 13.1 C 3.42 g/m*3 13.1 C 0 km/h
689 17-03-2010 17:48:01 12.5 C 3.63 g/m*3 12.5 C 0 km/h
690 17-03-2010 18:00:01 12 C 3.62 g/m*3 12 C 0 km/h
691 17-03-2010 18:12:02 11.7 C 3.77 g/m*3 11.7 C 0 km/h
692 17-03-2010 18:24:02 11.2 C 3.75 g/m*3 11.2 C 0 km/h
693 17-03-2010 18:36:01 10.8 C 3.76 g/m*3 10.8 C 0 km/h
694 17-03-2010 18:48:01 10.4 C 3.86 g/m*3 10.4 C 0 km/h
695 17-03-2010 19:00:01 10 C 3.95 g/m*3 10 C 0 km/h
696 17-03-2010 19:12:01 9.6 C 3.94 g/m*3 9.6 C 0 km/h
697 17-03-2010 19:24:02 9.5 C 3.91 g/m*3 9.5 C 0 km/h
698 17-03-2010 19:36:01 9.2 C 4.02 g/m*3 9.2 C 0 km/h
699 17-03-2010 19:48:03 9 C 4.14 g/m*3 9 C 0 km/h
700 17-03-2010 20:00:03 8.6 C 4.12 g/m*3 8.6 C 0 km/h
Sensor: Nr:Datum:Temp:Abs-Feuchte:Windchill:Wind:
Aussen-T/F 701 17-03-2010 20:12:02 8.5 C 4.18 g/m*3 8.5 C 0 km/h
702 17-03-2010 20:24:02 8.2 C 4.19 g/m*3 8.2 C 0 km/h
703 17-03-2010 20:36:02 7.9 C 4.19 g/m*3 7.9 C 0 km/h
704 17-03-2010 20:48:02 7.8 C 4.24 g/m*3 7.8 C 0 km/h
705 17-03-2010 21:00:02 7.5 C 4.32 g/m*3 7.5 C 0 km/h
706 17-03-2010 21:13:03 7.3 C 4.35 g/m*3 7.3 C 0 km/h
707 17-03-2010 21:25:03 7.3 C 4.35 g/m*3 7.3 C 0 km/h
708 17-03-2010 21:37:03 7 C 4.26 g/m*3 7 C 0 km/h
709 17-03-2010 21:49:03 6.9 C 4.39 g/m*3 6.9 C 0 km/h
710 17-03-2010 22:01:03 6.9 C 4.39 g/m*3 6.9 C 0 km/h
711 17-03-2010 22:13:03 6.9 C 4.39 g/m*3 6.9 C 0 km/h
712 17-03-2010 22:25:03 6.9 C 4.31 g/m*3 6.9 C 0 km/h
713 17-03-2010 22:37:03 6.9 C 4.23 g/m*3 6.9 C 0 km/h
714 17-03-2010 22:49:03 6.8 C 4.28 g/m*3 6.8 C 0 km/h
715 17-03-2010 23:01:03 6.6 C 4.38 g/m*3 6.6 C 0 km/h
716 17-03-2010 23:13:03 6.4 C 4.4 g/m*3 6.4 C 0 km/h
717 17-03-2010 23:25:03 6.1 C 4.38 g/m*3 6.1 C 0 km/h
718 17-03-2010 23:37:03 5.9 C 4.47 g/m*3 5.9 C 0 km/h
719 17-03-2010 23:49:03 6.2 C 4.49 g/m*3 6.2 C 0 km/h
720 18-03-2010 00:01:03 6.1 C 4.38 g/m*3 6.1 C 0 km/h
721 18-03-2010 00:13:03 6.1 C 4.38 g/m*3 6.1 C 0 km/h
722 18-03-2010 00:25:03 5.8 C 4.44 g/m*3 5.8 C 0 km/h
723 18-03-2010 00:37:03 5.7 C 4.41 g/m*3 5.7 C 0 km/h
724 18-03-2010 00:49:03 5.7 C 4.41 g/m*3 5.7 C 0 km/h
725 18-03-2010 01:01:03 5.6 C 4.38 g/m*3 5.6 C 0 km/h
Sensor: Nr:Datum:Temp:Abs-Feuchte:Windchill:Wind:
Aussen-T/F 726 18-03-2010 01:13:04 5.5 C 4.35 g/m*3 5.5 C 0 km/h
727 18-03-2010 01:25:04 5.6 C 4.38 g/m*3 5.6 C 0 km/h
728 18-03-2010 01:37:04 5.4 C 4.4 g/m*3 5.4 C 0 km/h
729 18-03-2010 01:49:04 5.4 C 4.47 g/m*3 5.4 C 0 km/h
730 18-03-2010 02:01:04 5.4 C 4.4 g/m*3 5.4 C 0 km/h
731 18-03-2010 02:13:04 5.4 C 4.4 g/m*3 5.4 C 0 km/h
732 18-03-2010 02:25:04 5.3 C 4.37 g/m*3 5.3 C 0 km/h
733 18-03-2010 02:37:04 4.9 C 4.39 g/m*3 4.9 C 0 km/h
734 18-03-2010 02:49:04 4.5 C 4.34 g/m*3 4.5 C 0 km/h
735 18-03-2010 03:01:04 4.3 C 4.35 g/m*3 4.3 C 0 km/h
736 18-03-2010 03:13:04 4 C 4.32 g/m*3 4 C 0 km/h
737 18-03-2010 03:25:04 3.8 C 4.39 g/m*3 3.8 C 0 km/h
738 18-03-2010 03:37:04 3.8 C 4.39 g/m*3 3.8 C 0 km/h
739 18-03-2010 03:49:04 3.8 C 4.39 g/m*3 3.8 C 0 km/h
740 18-03-2010 04:01:04 3.8 C 4.39 g/m*3 3.8 C 0 km/h
741 18-03-2010 04:13:04 3.7 C 4.42 g/m*3 3.7 C 0 km/h
742 18-03-2010 04:25:04 3.4 C 4.4 g/m*3 3.4 C 0 km/h
743 18-03-2010 04:37:04 3.2 C 4.34 g/m*3 3.2 C 0 km/h
744 18-03-2010 04:49:04 3 C 4.28 g/m*3 3 C 0 km/h
745 18-03-2010 05:01:04 2.8 C 4.34 g/m*3 2.8 C 0 km/h
746 18-03-2010 05:13:04 2.7 C 4.31 g/m*3 2.7 C 0 km/h
747 18-03-2010 05:25:04 2.5 C 4.25 g/m*3 2.5 C 0 km/h
748 18-03-2010 05:37:04 2.5 C 4.25 g/m*3 2.5 C 0 km/h
749 18-03-2010 05:49:05 2.2 C 4.17 g/m*3 2.2 C 0 km/h
750 18-03-2010 06:01:05 2.1 C 4.2 g/m*3 2.1 C 0 km/h
Sensor: Nr:Datum:Temp:Abs-Feuchte:Windchill:Wind:
Aussen-T/F 751 18-03-2010 06:13:05 2.1 C 4.25 g/m*3 2.1 C 0 km/h
752 18-03-2010 06:25:05 1.9 C 4.19 g/m*3 1.9 C 0 km/h
753 18-03-2010 06:37:05 1.8 C 4.22 g/m*3 1.8 C 0 km/h
754 18-03-2010 06:49:05 1.7 C 4.19 g/m*3 1.7 C 0 km/h
755 18-03-2010 07:01:02 1.7 C 4.19 g/m*3 1.7 C 0 km/h
756 18-03-2010 07:13:02 1.9 C 4.3 g/m*3 1.9 C 0 km/h
757 18-03-2010 07:25:03 1.8 C 4.28 g/m*3 1.8 C 0 km/h
758 18-03-2010 07:37:02 2 C 4.33 g/m*3 2 C 0 km/h
759 18-03-2010 07:49:02 2.2 C 4.39 g/m*3 2.2 C 0 km/h
760 18-03-2010 08:01:01 2.5 C 4.43 g/m*3 2.5 C 0 km/h
761 18-03-2010 08:13:01 2.8 C 4.52 g/m*3 2.8 C 0 km/h
762 18-03-2010 08:25:02 3.1 C 4.55 g/m*3 3.1 C 0 km/h
763 18-03-2010 08:37:01 3.5 C 4.61 g/m*3 3.5 C 0 km/h
764 18-03-2010 08:49:01 4 C 4.64 g/m*3 4 C 0 km/h
765 18-03-2010 09:01:02 4.6 C 4.7 g/m*3 4.6 C 0 km/h
766 18-03-2010 09:13:02 5.1 C 4.45 g/m*3 5.1 C 0 km/h
767 18-03-2010 09:25:01 5.3 C 4.37 g/m*3 5.3 C 0 km/h
768 18-03-2010 09:37:02 5.9 C 4.25 g/m*3 5.9 C 0 km/h
769 18-03-2010 09:49:01 6.2 C 4.19 g/m*3 6.2 C 0 km/h
770 18-03-2010 10:01:02 6.7 C 4.41 g/m*3 6.7 C 0 km/h
771 18-03-2010 10:13:02 7.4 C 4.53 g/m*3 7.4 C 0 km/h
772 18-03-2010 10:25:01 7.9 C 4.35 g/m*3 7.9 C 0 km/h
773 18-03-2010 10:37:02 8.3 C 4.3 g/m*3 8.3 C 0 km/h
774 18-03-2010 10:49:01 8.8 C 4.35 g/m*3 8.8 C 0 km/h
775 18-03-2010 11:01:02 9.5 C 4.46 g/m*3 9.5 C 0 km/h
Sensor: Nr:Datum:Temp:Abs-Feuchte:Windchill:Wind:
Aussen-T/F 776 18-03-2010 11:13:02 10.2 C 4.47 g/m*3 10.2 C 0 km/h
777 18-03-2010 11:25:02 10.7 C 4.52 g/m*3 10.7 C 0 km/h
778 18-03-2010 11:37:01 11.4 C 4.21 g/m*3 11.4 C 0 km/h
779 18-03-2010 11:49:01 12 C 4.05 g/m*3 12 C 0 km/h
780 18-03-2010 12:01:01 12.8 C 4.26 g/m*3 12.8 C 0 km/h
781 18-03-2010 12:13:01 13.4 C 4.18 g/m*3 13.4 C 0 km/h
782 18-03-2010 12:25:02 14.2 C 4.27 g/m*3 14.2 C 0 km/h
783 18-03-2010 12:37:01 15 C 4.1 g/m*3 15 C 0 km/h
784 18-03-2010 12:49:02 15.9 C 4.2 g/m*3 15.9 C 0 km/h
785 18-03-2010 13:01:01 16.8 C 3.86 g/m*3 16.8 C 0 km/h
786 18-03-2010 13:13:01 17.5 C 3.58 g/m*3 17.5 C 0 km/h
787 18-03-2010 13:25:02 18.2 C 3.11 g/m*3 18.2 C 0 km/h
788 18-03-2010 13:37:01 18.7 C 3.2 g/m*3 18.7 C 0 km/h
789 18-03-2010 13:49:02 19 C 3.26 g/m*3 19 C 0 km/h
790 18-03-2010 14:01:02 19.2 C 3.3 g/m*3 19.2 C 0 km/h
791 18-03-2010 14:13:02 19.1 C 3.28 g/m*3 19.1 C 0 km/h
792 18-03-2010 14:25:02 19 C 3.26 g/m*3 19 C 0 km/h
793 18-03-2010 14:37:02 19.2 C 3.3 g/m*3 19.2 C 0 km/h
794 18-03-2010 14:49:02 19.6 C 3.38 g/m*3 19.6 C 0 km/h
795 18-03-2010 15:01:01 20.2 C 3.5 g/m*3 20.2 C 0 km/h
796 18-03-2010 15:13:01 20 C 3.46 g/m*3 20 C 0 km/h
797 18-03-2010 15:25:02 20.4 C 3.54 g/m*3 20.4 C 0 km/h
798 18-03-2010 15:37:02 20.6 C 3.58 g/m*3 20.6 C 0 km/h
799 18-03-2010 15:49:01 20.6 C 3.58 g/m*3 20.6 C 0 km/h
800 18-03-2010 16:01:01 20 C 3.46 g/m*3 20 C 0 km/h
Sensor: Nr:Datum:Temp:Abs-Feuchte:Windchill:Wind:
Aussen-T/F 801 18-03-2010 16:13:01 19.8 C 3.42 g/m*3 19.8 C 0 km/h
802 18-03-2010 16:25:01 20 C 3.46 g/m*3 20 C 0 km/h
803 18-03-2010 16:37:02 20 C 3.46 g/m*3 20 C 0 km/h
804 18-03-2010 16:49:02 19.3 C 3.32 g/m*3 19.3 C 0 km/h
805 18-03-2010 17:01:02 19.1 C 3.28 g/m*3 19.1 C 0 km/h
806 18-03-2010 17:13:02 18.5 C 3.16 g/m*3 18.5 C 0 km/h
807 18-03-2010 17:25:02 18 C 3.38 g/m*3 18 C 0 km/h
808 18-03-2010 17:37:02 17.5 C 3.88 g/m*3 17.5 C 0 km/h
809 18-03-2010 17:49:02 16.8 C 4.15 g/m*3 16.8 C 0 km/h
810 18-03-2010 18:01:03 16.3 C 4.16 g/m*3 16.3 C 0 km/h
811 18-03-2010 18:13:03 15.8 C 4.17 g/m*3 15.8 C 0 km/h
812 18-03-2010 18:25:02 15.4 C 3.94 g/m*3 15.4 C 0 km/h
813 18-03-2010 18:37:02 15 C 3.98 g/m*3 15 C 0 km/h
814 18-03-2010 18:49:01 14.5 C 3.98 g/m*3 14.5 C 0 km/h
815 18-03-2010 19:01:02 14.1 C 4 g/m*3 14.1 C 0 km/h
816 18-03-2010 19:13:02 13.7 C 4.14 g/m*3 13.7 C 0 km/h
817 18-03-2010 19:25:01 13.4 C 4.18 g/m*3 13.4 C 0 km/h
818 18-03-2010 19:37:02 13.3 C 4.04 g/m*3 13.3 C 0 km/h
819 18-03-2010 19:49:02 13.2 C 4.13 g/m*3 13.2 C 0 km/h
820 18-03-2010 20:01:02 13.1 C 4.11 g/m*3 13.1 C 0 km/h
821 18-03-2010 20:13:02 13.1 C 3.99 g/m*3 13.1 C 0 km/h
822 18-03-2010 20:25:01 13 C 3.86 g/m*3 13 C 0 km/h
823 18-03-2010 20:37:02 12.8 C 4.03 g/m*3 12.8 C 0 km/h
824 18-03-2010 20:49:02 12.6 C 3.98 g/m*3 12.6 C 0 km/h
825 18-03-2010 21:01:02 12.4 C 3.93 g/m*3 12.4 C 0 km/h
Sensor: Nr:Datum:Temp:Abs-Feuchte:Windchill:Wind:
Aussen-T/F 826 18-03-2010 21:13:02 12.4 C 3.82 g/m*3 12.4 C 0 km/h
827 18-03-2010 21:25:02 12.4 C 3.82 g/m*3 12.4 C 0 km/h
828 18-03-2010 21:37:02 12.1 C 3.97 g/m*3 12.1 C 0 km/h
829 18-03-2010 21:49:02 11.8 C 3.89 g/m*3 11.8 C 0 km/h
830 18-03-2010 22:01:02 11.7 C 3.97 g/m*3 11.7 C 0 km/h
831 18-03-2010 22:13:02 11.4 C 3.9 g/m*3 11.4 C 0 km/h
832 18-03-2010 22:25:02 11.2 C 4.05 g/m*3 11.2 C 0 km/h
833 18-03-2010 22:38:04 11.1 C 4.03 g/m*3 11.1 C 0 km/h
834 18-03-2010 22:50:04 10.8 C 4.05 g/m*3 10.8 C 0 km/h
835 18-03-2010 23:02:04 10.5 C 4.07 g/m*3 10.5 C 0 km/h
836 18-03-2010 23:14:04 10.7 C 3.93 g/m*3 10.7 C 0 km/h
837 18-03-2010 23:26:04 10.7 C 3.93 g/m*3 10.7 C 0 km/h
838 18-03-2010 23:38:04 10.5 C 3.98 g/m*3 10.5 C 0 km/h
839 18-03-2010 23:50:04 10.4 C 3.86 g/m*3 10.4 C 0 km/h
840 19-03-2010 00:02:04 10 C 4.04 g/m*3 10 C 0 km/h
841 19-03-2010 00:14:04 9.8 C 4.08 g/m*3 9.8 C 0 km/h
842 19-03-2010 00:26:04 9.8 C 4.08 g/m*3 9.8 C 0 km/h
843 19-03-2010 00:38:04 9.9 C 4.01 g/m*3 9.9 C 0 km/h
844 19-03-2010 00:50:04 10.1 C 3.88 g/m*3 10.1 C 0 km/h
845 19-03-2010 01:02:04 10.8 C 3.56 g/m*3 10.8 C 0 km/h
846 19-03-2010 01:14:04 11.4 C 3.39 g/m*3 11.4 C 0 km/h
847 19-03-2010 01:26:04 11.5 C 3.31 g/m*3 11.5 C 0 km/h
848 19-03-2010 01:38:04 11.4 C 3.28 g/m*3 11.4 C 0 km/h
849 19-03-2010 01:50:05 11.4 C 3.28 g/m*3 11.4 C 0 km/h
850 19-03-2010 02:02:05 11.4 C 3.28 g/m*3 11.4 C 0 km/h
Sensor: Nr:Datum:Temp:Abs-Feuchte:Windchill:Wind:
Aussen-T/F 851 19-03-2010 02:14:05 11.5 C 3.31 g/m*3 11.5 C 0 km/h
852 19-03-2010 02:26:05 11.4 C 3.39 g/m*3 11.4 C 0 km/h
853 19-03-2010 02:38:05 11.6 C 3.33 g/m*3 11.6 C 0 km/h
854 19-03-2010 02:50:05 11.6 C 3.33 g/m*3 11.6 C 0 km/h
855 19-03-2010 03:02:05 11.6 C 3.33 g/m*3 11.6 C 0 km/h
856 19-03-2010 03:14:05 12 C 3.2 g/m*3 12 C 0 km/h
857 19-03-2010 03:26:05 12 C 3.2 g/m*3 12 C 0 km/h
858 19-03-2010 03:38:05 12.1 C 3.22 g/m*3 12.1 C 0 km/h
859 19-03-2010 03:50:05 12.1 C 3.22 g/m*3 12.1 C 0 km/h
860 19-03-2010 04:02:05 12.2 C 3.24 g/m*3 12.2 C 0 km/h
861 19-03-2010 04:14:05 12.1 C 3.22 g/m*3 12.1 C 0 km/h
862 19-03-2010 04:26:05 11.9 C 3.28 g/m*3 11.9 C 0 km/h
863 19-03-2010 04:38:05 11.8 C 3.37 g/m*3 11.8 C 0 km/h
864 19-03-2010 04:50:05 11.6 C 3.43 g/m*3 11.6 C 0 km/h
865 19-03-2010 05:02:05 11.4 C 3.49 g/m*3 11.4 C 0 km/h
866 19-03-2010 05:14:05 11.3 C 3.57 g/m*3 11.3 C 0 km/h
867 19-03-2010 05:26:05 11.3 C 3.57 g/m*3 11.3 C 0 km/h
868 19-03-2010 05:38:05 11.3 C 3.57 g/m*3 11.3 C 0 km/h
869 19-03-2010 05:50:06 11.6 C 3.64 g/m*3 11.6 C 0 km/h
870 19-03-2010 06:02:06 11.5 C 3.62 g/m*3 11.5 C 0 km/h
871 19-03-2010 06:14:06 11.5 C 3.62 g/m*3 11.5 C 0 km/h
872 19-03-2010 06:26:06 11.5 C 3.62 g/m*3 11.5 C 0 km/h
873 19-03-2010 06:38:06 11.5 C 3.72 g/m*3 11.5 C 0 km/h
874 19-03-2010 06:50:02 11.4 C 3.7 g/m*3 11.4 C 0 km/h
875 19-03-2010 07:02:02 11.4 C 3.9 g/m*3 11.4 C 0 km/h
Sensor: Nr:Datum:Temp:Abs-Feuchte:Windchill:Wind:
Aussen-T/F 876 19-03-2010 07:14:02 11.8 C 4 g/m*3 11.8 C 0 km/h
877 19-03-2010 07:26:02 12.3 C 4.02 g/m*3 12.3 C 0 km/h
878 19-03-2010 07:38:01 12.4 C 4.04 g/m*3 12.4 C 0 km/h
879 19-03-2010 07:50:02 12.4 C 4.04 g/m*3 12.4 C 0 km/h
880 19-03-2010 08:02:02 12.3 C 4.13 g/m*3 12.3 C 0 km/h
881 19-03-2010 08:14:02 12.6 C 4.43 g/m*3 12.6 C 0 km/h
882 19-03-2010 08:26:02 12.9 C 4.62 g/m*3 12.9 C 0 km/h
883 19-03-2010 08:38:02 13.1 C 4.56 g/m*3 13.1 C 0 km/h
884 19-03-2010 08:50:02 13.3 C 4.74 g/m*3 13.3 C 0 km/h
885 19-03-2010 09:02:01 13.4 C 4.77 g/m*3 13.4 C 0 km/h
886 19-03-2010 09:14:01 13.5 C 4.8 g/m*3 13.5 C 0 km/h
887 19-03-2010 09:26:01 13.5 C 4.91 g/m*3 13.5 C 0 km/h
888 19-03-2010 09:38:02 13.6 C 4.94 g/m*3 13.6 C 0 km/h
889 19-03-2010 09:50:02 13.8 C 5 g/m*3 13.8 C 0 km/h
890 19-03-2010 10:02:01 14.1 C 5.1 g/m*3 14.1 C 0 km/h
891 19-03-2010 10:14:01 14.4 C 5.07 g/m*3 14.4 C 0 km/h
892 19-03-2010 10:26:02 14.9 C 5.23 g/m*3 14.9 C 0 km/h
893 19-03-2010 10:38:02 15.2 C 5.19 g/m*3 15.2 C 0 km/h
894 19-03-2010 10:50:02 15.5 C 5.16 g/m*3 15.5 C 0 km/h
895 19-03-2010 11:02:01 15.8 C 5.25 g/m*3 15.8 C 0 km/h
896 19-03-2010 11:14:01 16.2 C 5.24 g/m*3 16.2 C 0 km/h
897 19-03-2010 11:26:02 16.3 C 5.27 g/m*3 16.3 C 0 km/h
898 19-03-2010 11:38:01 16 C 5.31 g/m*3 16 C 0 km/h
899 19-03-2010 11:50:02 16.5 C 5.48 g/m*3 16.5 C 0 km/h
900 19-03-2010 12:02:01 17 C 5.35 g/m*3 17 C 0 km/h
Sensor: Nr:Datum:Temp:Abs-Feuchte:Windchill:Wind:
Aussen-T/F 901 19-03-2010 12:14:01 18.1 C 5.41 g/m*3 18.1 C 0 km/h
902 19-03-2010 12:26:02 18.6 C 5.57 g/m*3 18.6 C 0 km/h
903 19-03-2010 12:38:01 19 C 5.38 g/m*3 19 C 0 km/h
904 19-03-2010 12:50:02 18.9 C 5.35 g/m*3 18.9 C 0 km/h
905 19-03-2010 13:02:02 18.3 C 5.47 g/m*3 18.3 C 0 km/h
906 19-03-2010 13:14:02 18.7 C 5.44 g/m*3 18.7 C 0 km/h
907 19-03-2010 13:26:02 18.7 C 5.28 g/m*3 18.7 C 0 km/h
908 19-03-2010 13:38:02 19.3 C 5.14 g/m*3 19.3 C 0 km/h
909 19-03-2010 13:50:02 19.4 C 5.17 g/m*3 19.4 C 0 km/h
910 19-03-2010 14:02:01 20 C 5.18 g/m*3 20 C 0 km/h
911 19-03-2010 14:14:01 19.8 C 5.12 g/m*3 19.8 C 0 km/h
912 19-03-2010 14:26:02 20.3 C 5.1 g/m*3 20.3 C 0 km/h
913 19-03-2010 14:38:01 20.6 C 4.83 g/m*3 20.6 C 0 km/h
914 19-03-2010 14:50:02 20.7 C 4.86 g/m*3 20.7 C 0 km/h
915 19-03-2010 15:02:01 20.6 C 4.65 g/m*3 20.6 C 0 km/h
916 19-03-2010 15:14:01 21 C 4.58 g/m*3 21 C 0 km/h
917 19-03-2010 15:26:01 21.2 C 4.63 g/m*3 21.2 C 0 km/h
918 19-03-2010 15:38:02 20.6 C 4.65 g/m*3 20.6 C 0 km/h
919 19-03-2010 15:50:02 20.8 C 4.71 g/m*3 20.8 C 0 km/h
920 19-03-2010 16:02:01 20.7 C 4.68 g/m*3 20.7 C 0 km/h
921 19-03-2010 16:14:01 20.8 C 4.89 g/m*3 20.8 C 0 km/h
922 19-03-2010 16:26:02 20 C 4.84 g/m*3 20 C 0 km/h
923 19-03-2010 16:38:02 20 C 4.84 g/m*3 20 C 0 km/h
924 19-03-2010 16:50:01 19.7 C 5.09 g/m*3 19.7 C 0 km/h
925 19-03-2010 17:02:02 19.4 C 5.17 g/m*3 19.4 C 0 km/h
Sensor: Nr:Datum:Temp:Abs-Feuchte:Windchill:Wind:
Aussen-T/F 926 19-03-2010 17:14:02 19.1 C 5.08 g/m*3 19.1 C 0 km/h
927 19-03-2010 17:26:01 18.8 C 5.15 g/m*3 18.8 C 0 km/h
928 19-03-2010 17:38:01 18.6 C 5.09 g/m*3 18.6 C 0 km/h
929 19-03-2010 17:50:01 18.3 C 5.32 g/m*3 18.3 C 0 km/h
930 19-03-2010 18:02:02 18.1 C 5.41 g/m*3 18.1 C 0 km/h
931 19-03-2010 18:14:02 17.9 C 5.5 g/m*3 17.9 C 0 km/h
932 19-03-2010 18:26:01 17.7 C 5.43 g/m*3 17.7 C 0 km/h
933 19-03-2010 18:38:02 17.3 C 5.45 g/m*3 17.3 C 0 km/h
934 19-03-2010 18:50:02 16.8 C 5.58 g/m*3 16.8 C 0 km/h
935 19-03-2010 19:02:02 16.4 C 5.58 g/m*3 16.4 C 0 km/h
936 19-03-2010 19:14:02 16.4 C 5.58 g/m*3 16.4 C 0 km/h
937 19-03-2010 19:26:01 15.9 C 5.69 g/m*3 15.9 C 0 km/h
938 19-03-2010 19:38:02 15.7 C 5.62 g/m*3 15.7 C 0 km/h
939 19-03-2010 19:50:02 15.7 C 5.62 g/m*3 15.7 C 0 km/h
940 19-03-2010 20:02:02 15.7 C 5.49 g/m*3 15.7 C 0 km/h
941 19-03-2010 20:14:02 15.6 C 5.59 g/m*3 15.6 C 0 km/h
942 19-03-2010 20:26:01 15.5 C 5.42 g/m*3 15.5 C 0 km/h
943 19-03-2010 20:38:02 15.6 C 5.45 g/m*3 15.6 C 0 km/h
944 19-03-2010 20:50:02 15.5 C 5.42 g/m*3 15.5 C 0 km/h
945 19-03-2010 21:02:02 15.4 C 5.39 g/m*3 15.4 C 0 km/h
946 19-03-2010 21:14:02 15.5 C 5.55 g/m*3 15.5 C 0 km/h
947 19-03-2010 21:26:02 15.4 C 5.52 g/m*3 15.4 C 0 km/h
948 19-03-2010 21:38:02 15.4 C 5.52 g/m*3 15.4 C 0 km/h
949 19-03-2010 21:50:02 15.3 C 5.48 g/m*3 15.3 C 0 km/h
950 19-03-2010 22:02:02 15.2 C 5.58 g/m*3 15.2 C 0 km/h
Sensor: Nr:Datum:Temp:Abs-Feuchte:Windchill:Wind:
Aussen-T/F 951 19-03-2010 22:14:02 15.2 C 5.58 g/m*3 15.2 C 0 km/h
952 19-03-2010 22:26:02 15.1 C 5.68 g/m*3 15.1 C 0 km/h
953 19-03-2010 22:38:02 15 C 5.77 g/m*3 15 C 0 km/h
954 19-03-2010 22:50:02 14.9 C 5.74 g/m*3 14.9 C 0 km/h
955 19-03-2010 23:02:01 14.7 C 5.79 g/m*3 14.7 C 0 km/h
956 19-03-2010 23:14:01 14.7 C 5.79 g/m*3 14.7 C 0 km/h
957 19-03-2010 23:26:02 14.6 C 5.76 g/m*3 14.6 C 0 km/h
958 19-03-2010 23:38:02 14.5 C 5.85 g/m*3 14.5 C 0 km/h
959 19-03-2010 23:51:04 14.5 C 5.72 g/m*3 14.5 C 0 km/h
960 20-03-2010 00:03:04 14.4 C 5.93 g/m*3 14.4 C 0 km/h
961 20-03-2010 00:15:04 14.2 C 5.86 g/m*3 14.2 C 0 km/h
962 20-03-2010 00:27:04 14.1 C 5.95 g/m*3 14.1 C 0 km/h
963 20-03-2010 00:39:04 14.1 C 5.83 g/m*3 14.1 C 0 km/h
964 20-03-2010 00:51:04 14.1 C 5.83 g/m*3 14.1 C 0 km/h
965 20-03-2010 01:03:04 14.1 C 5.83 g/m*3 14.1 C 0 km/h
966 20-03-2010 01:15:04 14.1 C 5.95 g/m*3 14.1 C 0 km/h
967 20-03-2010 01:27:04 13.9 C 5.99 g/m*3 13.9 C 0 km/h
968 20-03-2010 01:39:04 13.9 C 5.87 g/m*3 13.9 C 0 km/h
969 20-03-2010 01:51:04 14.1 C 5.58 g/m*3 14.1 C 0 km/h
970 20-03-2010 02:03:04 14.7 C 5.41 g/m*3 14.7 C 0 km/h
971 20-03-2010 02:15:04 14.7 C 5.67 g/m*3 14.7 C 0 km/h
972 20-03-2010 02:27:04 14.4 C 6.43 g/m*3 14.4 C 0 km/h
973 20-03-2010 02:39:04 13.8 C 7.03 g/m*3 13.8 C 0 km/h
974 20-03-2010 02:51:04 13.5 C 7.49 g/m*3 13.5 C 0 km/h
975 20-03-2010 03:03:05 13 C 7.83 g/m*3 13 C 0 km/h
Sensor: Nr:Datum:Temp:Abs-Feuchte:Windchill:Wind:
Aussen-T/F 976 20-03-2010 03:15:05 12.5 C 8.14 g/m*3 12.5 C 0 km/h
977 20-03-2010 03:27:05 12.1 C 8.26 g/m*3 12.1 C 0 km/h
978 20-03-2010 03:39:05 12.2 C 8.52 g/m*3 12.2 C 0 km/h
979 20-03-2010 03:51:05 12.1 C 8.47 g/m*3 12.1 C 0 km/h
980 20-03-2010 04:03:05 12 C 8.63 g/m*3 12 C 0 km/h
981 20-03-2010 04:15:05 12.2 C 8.85 g/m*3 12.2 C 0 km/h
982 20-03-2010 04:27:05 12 C 8.85 g/m*3 12 C 0 km/h
983 20-03-2010 04:39:05 12.1 C 9.01 g/m*3 12.1 C 0 km/h
984 20-03-2010 04:51:05 12.1 C 9.12 g/m*3 12.1 C 0 km/h
985 20-03-2010 05:03:05 12.1 C 9.12 g/m*3 12.1 C 0 km/h
986 20-03-2010 05:15:05 12.4 C 9.4 g/m*3 12.4 C 0 km/h
987 20-03-2010 05:27:05 12.7 C 9.46 g/m*3 12.7 C 0 km/h
988 20-03-2010 05:39:05 12.6 C 9.29 g/m*3 12.6 C 0 km/h
989 20-03-2010 05:51:05 12.7 C 9.35 g/m*3 12.7 C 0 km/h
990 20-03-2010 06:03:06 12.7 C 9.24 g/m*3 12.7 C 0 km/h
991 20-03-2010 06:15:06 13.1 C 9.24 g/m*3 13.1 C 0 km/h
992 20-03-2010 06:27:06 13.2 C 9.19 g/m*3 13.2 C 0 km/h
993 20-03-2010 06:39:06 13.2 C 9.07 g/m*3 13.2 C 0 km/h
994 20-03-2010 06:51:06 13.2 C 9.19 g/m*3 13.2 C 0 km/h
995 20-03-2010 07:03:06 13.3 C 9.13 g/m*3 13.3 C 0 km/h
996 20-03-2010 07:15:06 13.4 C 9.18 g/m*3 13.4 C 0 km/h
997 20-03-2010 07:27:06 13.4 C 9.18 g/m*3 13.4 C 0 km/h
998 20-03-2010 07:39:06 13.6 C 9.18 g/m*3 13.6 C 0 km/h
999 20-03-2010 07:51:06 13.9 C 9.23 g/m*3 13.9 C 0 km/h
1000 20-03-2010 08:03:06 14 C 9.05 g/m*3 14 C 0 km/h
Sensor: Nr:Datum:Temp:Abs-Feuchte:Windchill:Wind:
Aussen-T/F 1001 20-03-2010 08:15:06 14.2 C 9.04 g/m*3 14.2 C 0 km/h
1002 20-03-2010 08:27:06 14.2 C 9.16 g/m*3 14.2 C 0 km/h
1003 20-03-2010 08:39:03 14.3 C 9.09 g/m*3 14.3 C 0 km/h
1004 20-03-2010 08:51:02 14.4 C 9.15 g/m*3 14.4 C 0 km/h
1005 20-03-2010 09:03:03 14.6 C 9.13 g/m*3 14.6 C 0 km/h
1006 20-03-2010 09:15:02 14.8 C 9.12 g/m*3 14.8 C 0 km/h
1007 20-03-2010 09:27:02 14.6 C 9.39 g/m*3 14.6 C 0 km/h
1008 20-03-2010 09:39:02 14.2 C 9.52 g/m*3 14.2 C 0 km/h
1009 20-03-2010 09:51:01 15 C 9.36 g/m*3 15 C 0 km/h
1010 20-03-2010 10:03:02 15.4 C 9.2 g/m*3 15.4 C 0 km/h
1011 20-03-2010 10:15:01 15.8 C 9.29 g/m*3 15.8 C 0 km/h
1012 20-03-2010 10:27:01 16.1 C 9.05 g/m*3 16.1 C 0 km/h
1013 20-03-2010 10:39:02 16.1 C 8.91 g/m*3 16.1 C 0 km/h
1014 20-03-2010 10:51:01 15.8 C 9.02 g/m*3 15.8 C 0 km/h
1015 20-03-2010 11:03:02 15.1 C 9.29 g/m*3 15.1 C 0 km/h
1016 20-03-2010 11:15:01 15.2 C 9.35 g/m*3 15.2 C 0 km/h
1017 20-03-2010 11:27:01 15.6 C 9.31 g/m*3 15.6 C 0 km/h
1018 20-03-2010 11:39:02 15.5 C 9.25 g/m*3 15.5 C 0 km/h
1019 20-03-2010 11:51:02 15.1 C 9.16 g/m*3 15.1 C 0 km/h
1020 20-03-2010 12:03:02 15.1 C 9.29 g/m*3 15.1 C 0 km/h
1021 20-03-2010 12:15:01 15.4 C 9.33 g/m*3 15.4 C 0 km/h
1022 20-03-2010 12:27:01 15.7 C 9.1 g/m*3 15.7 C 0 km/h
1023 20-03-2010 12:39:02 15.4 C 8.93 g/m*3 15.4 C 0 km/h
1024 20-03-2010 12:51:01 15.4 C 8.93 g/m*3 15.4 C 0 km/h
1025 20-03-2010 13:03:02 16.2 C 8.83 g/m*3 16.2 C 0 km/h
Sensor: Nr:Datum:Temp:Abs-Feuchte:Windchill:Wind:
Aussen-T/F 1026 20-03-2010 13:15:02 15.9 C 8.67 g/m*3 15.9 C 0 km/h
1027 20-03-2010 13:27:02 15.9 C 8.94 g/m*3 15.9 C 0 km/h
1028 20-03-2010 13:39:02 16 C 8.86 g/m*3 16 C 0 km/h
1029 20-03-2010 13:51:01 15.6 C 9.04 g/m*3 15.6 C 0 km/h
1030 20-03-2010 14:03:02 15.1 C 9.03 g/m*3 15.1 C 0 km/h
1031 20-03-2010 14:15:02 15 C 8.98 g/m*3 15 C 0 km/h
1032 20-03-2010 14:27:02 15.5 C 8.99 g/m*3 15.5 C 0 km/h
1033 20-03-2010 14:39:02 15.6 C 8.78 g/m*3 15.6 C 0 km/h
1034 20-03-2010 14:51:01 15.8 C 8.48 g/m*3 15.8 C 0 km/h
1035 20-03-2010 15:03:02 16.7 C 8.38 g/m*3 16.7 C 0 km/h
1036 20-03-2010 15:15:02 17 C 8.1 g/m*3 17 C 0 km/h
1037 20-03-2010 15:27:02 16.8 C 8.15 g/m*3 16.8 C 0 km/h
1038 20-03-2010 15:39:01 17 C 8.25 g/m*3 17 C 0 km/h
1039 20-03-2010 15:51:02 16.8 C 8.15 g/m*3 16.8 C 0 km/h
1040 20-03-2010 16:03:01 16.5 C 8 g/m*3 16.5 C 0 km/h
1041 20-03-2010 16:15:02 16.4 C 8.1 g/m*3 16.4 C 0 km/h
1042 20-03-2010 16:27:02 16.1 C 8.09 g/m*3 16.1 C 0 km/h
1043 20-03-2010 16:39:01 16 C 8.17 g/m*3 16 C 0 km/h
1044 20-03-2010 16:51:03 15.9 C 8.26 g/m*3 15.9 C 0 km/h
1045 20-03-2010 17:03:02 15.7 C 8.16 g/m*3 15.7 C 0 km/h
1046 20-03-2010 17:15:02 15.1 C 8.39 g/m*3 15.1 C 0 km/h
1047 20-03-2010 17:27:02 14.4 C 8.78 g/m*3 14.4 C 0 km/h
1048 20-03-2010 17:39:02 14.6 C 8.63 g/m*3 14.6 C 0 km/h
1049 20-03-2010 17:51:02 14.7 C 8.56 g/m*3 14.7 C 0 km/h
1050 20-03-2010 18:03:01 14.6 C 8.38 g/m*3 14.6 C 0 km/h
Sensor: Nr:Datum:Temp:Abs-Feuchte:Windchill:Wind:
Aussen-T/F 1051 20-03-2010 18:15:02 14.6 C 8.38 g/m*3 14.6 C 0 km/h
1052 20-03-2010 18:27:02 14.5 C 8.33 g/m*3 14.5 C 0 km/h
1053 20-03-2010 18:39:02 14.5 C 8.33 g/m*3 14.5 C 0 km/h
1054 20-03-2010 18:51:02 14.4 C 8.41 g/m*3 14.4 C 0 km/h
1055 20-03-2010 19:03:01 14.3 C 8.48 g/m*3 14.3 C 0 km/h
1056 20-03-2010 19:15:01 14.2 C 8.43 g/m*3 14.2 C 0 km/h
1057 20-03-2010 19:27:01 14.3 C 8.48 g/m*3 14.3 C 0 km/h
1058 20-03-2010 19:39:02 14.4 C 8.53 g/m*3 14.4 C 0 km/h
1059 20-03-2010 19:51:02 14.5 C 8.46 g/m*3 14.5 C 0 km/h
1060 20-03-2010 20:03:02 14.6 C 8.38 g/m*3 14.6 C 0 km/h
1061 20-03-2010 20:15:02 14.5 C 8.46 g/m*3 14.5 C 0 km/h
1062 20-03-2010 20:27:02 14.6 C 8.38 g/m*3 14.6 C 0 km/h
1063 20-03-2010 20:39:02 14.6 C 8.38 g/m*3 14.6 C 0 km/h
1064 20-03-2010 20:51:02 14.5 C 8.21 g/m*3 14.5 C 0 km/h
1065 20-03-2010 21:03:02 14.6 C 8.26 g/m*3 14.6 C 0 km/h
1066 20-03-2010 21:15:02 14.5 C 8.21 g/m*3 14.5 C 0 km/h
1067 20-03-2010 21:27:02 14.4 C 8.16 g/m*3 14.4 C 0 km/h
1068 20-03-2010 21:39:02 14.2 C 8.18 g/m*3 14.2 C 0 km/h
1069 20-03-2010 21:51:01 14.2 C 8.18 g/m*3 14.2 C 0 km/h
1070 20-03-2010 22:03:02 14.2 C 8.18 g/m*3 14.2 C 0 km/h
1071 20-03-2010 22:16:01 14.3 C 8.11 g/m*3 14.3 C 0 km/h
1072 20-03-2010 22:28:01 13.9 C 8.39 g/m*3 13.9 C 0 km/h
1073 20-03-2010 22:40:01 14.1 C 8.25 g/m*3 14.1 C 0 km/h
1074 20-03-2010 22:52:01 13.7 C 8.53 g/m*3 13.7 C 0 km/h
1075 20-03-2010 23:04:02 13 C 8.85 g/m*3 13 C 0 km/h
Sensor: Nr:Datum:Temp:Abs-Feuchte:Windchill:Wind:
Aussen-T/F 1076 20-03-2010 23:16:02 12.6 C 9.07 g/m*3 12.6 C 0 km/h
1077 20-03-2010 23:28:02 12.5 C 9.24 g/m*3 12.5 C 0 km/h
1078 20-03-2010 23:40:02 12.4 C 9.29 g/m*3 12.4 C 0 km/h
1079 20-03-2010 23:52:02 12.3 C 9.34 g/m*3 12.3 C 0 km/h
1080 21-03-2010 00:04:02 12.1 C 9.44 g/m*3 12.1 C 0 km/h
1081 21-03-2010 00:16:02 12 C 9.38 g/m*3 12 C 0 km/h
1082 21-03-2010 00:28:02 12.1 C 9.54 g/m*3 12.1 C 0 km/h
1083 21-03-2010 00:40:02 12.1 C 9.54 g/m*3 12.1 C 0 km/h
1084 21-03-2010 00:52:02 12.1 C 9.54 g/m*3 12.1 C 0 km/h
1085 21-03-2010 01:04:02 12 C 9.59 g/m*3 12 C 0 km/h
1086 21-03-2010 01:16:02 12 C 9.59 g/m*3 12 C 0 km/h
1087 21-03-2010 01:28:02 11.9 C 9.64 g/m*3 11.9 C 0 km/h
1088 21-03-2010 01:40:02 11.9 C 9.64 g/m*3 11.9 C 0 km/h
1089 21-03-2010 01:52:02 11.8 C 9.68 g/m*3 11.8 C 0 km/h
1090 21-03-2010 02:04:02 11.8 C 9.68 g/m*3 11.8 C 0 km/h
1091 21-03-2010 02:16:02 11.8 C 9.79 g/m*3 11.8 C 0 km/h
1092 21-03-2010 02:28:02 11.7 C 9.73 g/m*3 11.7 C 0 km/h
1093 21-03-2010 02:40:02 11.7 C 9.73 g/m*3 11.7 C 0 km/h
1094 21-03-2010 02:52:02 11.5 C 9.61 g/m*3 11.5 C 0 km/h
1095 21-03-2010 03:04:02 11.5 C 9.61 g/m*3 11.5 C 0 km/h
1096 21-03-2010 03:16:02 11.4 C 9.55 g/m*3 11.4 C 0 km/h
1097 21-03-2010 03:28:02 11.4 C 9.55 g/m*3 11.4 C 0 km/h
1098 21-03-2010 03:40:03 11.5 C 9.71 g/m*3 11.5 C 0 km/h
1099 21-03-2010 03:52:03 11.6 C 9.77 g/m*3 11.6 C 0 km/h
1100 21-03-2010 04:04:03 11.6 C 9.77 g/m*3 11.6 C 0 km/h
Sensor: Nr:Datum:Temp:Abs-Feuchte:Windchill:Wind:
Aussen-T/F 1101 21-03-2010 04:16:03 11.5 C 9.71 g/m*3 11.5 C 0 km/h
1102 21-03-2010 04:28:03 11.6 C 9.77 g/m*3 11.6 C 0 km/h
1103 21-03-2010 04:40:03 11.6 C 9.87 g/m*3 11.6 C 0 km/h
1104 21-03-2010 04:52:03 11.6 C 9.87 g/m*3 11.6 C 0 km/h
1105 21-03-2010 05:04:03 11.5 C 9.81 g/m*3 11.5 C 0 km/h
1106 21-03-2010 05:16:03 11.4 C 9.75 g/m*3 11.4 C 0 km/h
1107 21-03-2010 05:28:03 11.3 C 9.69 g/m*3 11.3 C 0 km/h
1108 21-03-2010 05:40:03 11.3 C 9.69 g/m*3 11.3 C 0 km/h
1109 21-03-2010 05:52:03 11.4 C 9.75 g/m*3 11.4 C 0 km/h
1110 21-03-2010 06:04:03 11.4 C 9.65 g/m*3 11.4 C 0 km/h
1111 21-03-2010 06:16:03 11.4 C 9.65 g/m*3 11.4 C 0 km/h
1112 21-03-2010 06:28:03 11.4 C 9.55 g/m*3 11.4 C 0 km/h
1113 21-03-2010 06:40:03 11.3 C 9.38 g/m*3 11.3 C 0 km/h
1114 21-03-2010 06:52:03 11.3 C 9.38 g/m*3 11.3 C 0 km/h
1115 21-03-2010 07:04:03 11.3 C 9.38 g/m*3 11.3 C 0 km/h
1116 21-03-2010 07:16:03 11.3 C 9.38 g/m*3 11.3 C 0 km/h
1117 21-03-2010 07:28:03 11.2 C 9.33 g/m*3 11.2 C 0 km/h
1118 21-03-2010 07:40:03 11.3 C 9.49 g/m*3 11.3 C 0 km/h
1119 21-03-2010 07:52:03 11.2 C 9.43 g/m*3 11.2 C 0 km/h
1120 21-03-2010 08:04:04 11.5 C 9.61 g/m*3 11.5 C 0 km/h
1121 21-03-2010 08:16:04 11.9 C 9.96 g/m*3 11.9 C 0 km/h
1122 21-03-2010 08:28:04 12.2 C 9.93 g/m*3 12.2 C 0 km/h
1123 21-03-2010 08:40:01 12.5 C 9.78 g/m*3 12.5 C 0 km/h
1124 21-03-2010 08:52:02 12.4 C 9.4 g/m*3 12.4 C 0 km/h
1125 21-03-2010 09:04:02 12.9 C 9.35 g/m*3 12.9 C 0 km/h
Sensor: Nr:Datum:Temp:Abs-Feuchte:Windchill:Wind:
Aussen-T/F 1126 21-03-2010 09:16:02 13.5 C 8.89 g/m*3 13.5 C 0 km/h
1127 21-03-2010 09:28:02 13.5 C 8.66 g/m*3 13.5 C 0 km/h
1128 21-03-2010 09:40:01 12.7 C 8.68 g/m*3 12.7 C 0 km/h
1129 21-03-2010 09:52:02 12.1 C 8.58 g/m*3 12.1 C 0 km/h
1130 21-03-2010 10:04:01 12.4 C 8.85 g/m*3 12.4 C 0 km/h
1131 21-03-2010 10:16:02 13 C 8.85 g/m*3 13 C 0 km/h
1132 21-03-2010 10:28:03 13.2 C 8.15 g/m*3 13.2 C 0 km/h
1133 21-03-2010 10:40:01 12.8 C 7.84 g/m*3 12.8 C 0 km/h
1134 21-03-2010 10:52:02 13.2 C 7.81 g/m*3 13.2 C 0 km/h
1135 21-03-2010 11:04:02 13.5 C 7.95 g/m*3 13.5 C 0 km/h
1136 21-03-2010 11:16:02 13.5 C 7.84 g/m*3 13.5 C 0 km/h
1137 21-03-2010 11:28:02 13.6 C 7.89 g/m*3 13.6 C 0 km/h
1138 21-03-2010 11:40:03 12.5 C 8.14 g/m*3 12.5 C 0 km/h
1139 21-03-2010 11:52:02 12.1 C 8.69 g/m*3 12.1 C 0 km/h
1140 21-03-2010 12:04:02 11.9 C 8.9 g/m*3 11.9 C 0 km/h
1141 21-03-2010 12:16:02 11.9 C 8.9 g/m*3 11.9 C 0 km/h
1142 21-03-2010 12:28:02 12.4 C 9.18 g/m*3 12.4 C 0 km/h
1143 21-03-2010 12:40:03 13.6 C 8.94 g/m*3 13.6 C 0 km/h
1144 21-03-2010 12:52:02 13.7 C 8.29 g/m*3 13.7 C 0 km/h
1145 21-03-2010 13:04:02 13.2 C 8.04 g/m*3 13.2 C 0 km/h
1146 21-03-2010 13:16:02 13 C 8.05 g/m*3 13 C 0 km/h
1147 21-03-2010 13:28:02 12.6 C 7.97 g/m*3 12.6 C 0 km/h
1148 21-03-2010 13:40:02 12.6 C 7.97 g/m*3 12.6 C 0 km/h
1149 21-03-2010 13:52:01 12.4 C 7.87 g/m*3 12.4 C 0 km/h
1150 21-03-2010 14:04:02 12.4 C 7.98 g/m*3 12.4 C 0 km/h
Sensor: Nr:Datum:Temp:Abs-Feuchte:Windchill:Wind:
Aussen-T/F 1151 21-03-2010 14:16:01 12.2 C 7.99 g/m*3 12.2 C 0 km/h
1152 21-03-2010 14:28:01 11.8 C 8.42 g/m*3 11.8 C 0 km/h
1153 21-03-2010 14:40:02 11.4 C 8.42 g/m*3 11.4 C 0 km/h
1154 21-03-2010 14:52:02 11.5 C 8.57 g/m*3 11.5 C 0 km/h
1155 21-03-2010 15:04:02 11.5 C 8.57 g/m*3 11.5 C 0 km/h
1156 21-03-2010 15:16:01 11.5 C 8.57 g/m*3 11.5 C 0 km/h
1157 21-03-2010 15:28:01 11.5 C 8.57 g/m*3 11.5 C 0 km/h
1158 21-03-2010 15:40:02 11.3 C 8.57 g/m*3 11.3 C 0 km/h
1159 21-03-2010 15:52:03 11.1 C 8.46 g/m*3 11.1 C 0 km/h
1160 21-03-2010 16:04:03 11.1 C 8.56 g/m*3 11.1 C 0 km/h
1161 21-03-2010 16:16:02 10.8 C 8.6 g/m*3 10.8 C 0 km/h
1162 21-03-2010 16:28:02 10.7 C 8.74 g/m*3 10.7 C 0 km/h
1163 21-03-2010 16:40:02 10.5 C 8.63 g/m*3 10.5 C 0 km/h
1164 21-03-2010 16:52:02 10.5 C 8.53 g/m*3 10.5 C 0 km/h
1165 21-03-2010 17:04:01 10.5 C 8.53 g/m*3 10.5 C 0 km/h
1166 21-03-2010 17:16:02 10.7 C 8.45 g/m*3 10.7 C 0 km/h
1167 21-03-2010 17:28:02 10.7 C 8.45 g/m*3 10.7 C 0 km/h
1168 21-03-2010 17:40:02 10.7 C 8.35 g/m*3 10.7 C 0 km/h
1169 21-03-2010 17:52:02 10.7 C 7.96 g/m*3 10.7 C 0 km/h
1170 21-03-2010 18:04:02 10.1 C 7.66 g/m*3 10.1 C 0 km/h
1171 21-03-2010 18:16:02 9.8 C 7.79 g/m*3 9.8 C 0 km/h
1172 21-03-2010 18:28:02 9.5 C 7.74 g/m*3 9.5 C 0 km/h
1173 21-03-2010 18:40:03 9.4 C 7.69 g/m*3 9.4 C 0 km/h
1174 21-03-2010 18:52:02 9.5 C 7.74 g/m*3 9.5 C 0 km/h
1175 21-03-2010 19:04:02 9.6 C 7.79 g/m*3 9.6 C 0 km/h
Sensor: Nr:Datum:Temp:Abs-Feuchte:Windchill:Wind:
Aussen-T/F 1176 21-03-2010 19:16:01 9.6 C 7.79 g/m*3 9.6 C 0 km/h
1177 21-03-2010 19:28:01 9.5 C 7.74 g/m*3 9.5 C 0 km/h
1178 21-03-2010 19:40:02 9.3 C 7.64 g/m*3 9.3 C 0 km/h
1179 21-03-2010 19:52:02 9.3 C 7.73 g/m*3 9.3 C 0 km/h
1180 21-03-2010 20:04:02 9.3 C 7.73 g/m*3 9.3 C 0 km/h
1181 21-03-2010 20:16:02 9.4 C 7.78 g/m*3 9.4 C 0 km/h
1182 21-03-2010 20:28:02 9.5 C 7.92 g/m*3 9.5 C 0 km/h
1183 21-03-2010 20:40:02 9.5 C 7.92 g/m*3 9.5 C 0 km/h
1184 21-03-2010 20:52:02 9.5 C 7.83 g/m*3 9.5 C 0 km/h
1185 21-03-2010 21:04:02 9.5 C 7.83 g/m*3 9.5 C 0 km/h
1186 21-03-2010 21:16:02 9.4 C 7.78 g/m*3 9.4 C 0 km/h
1187 21-03-2010 21:28:02 9.3 C 7.46 g/m*3 9.3 C 0 km/h
1188 21-03-2010 21:40:02 9.4 C 7.15 g/m*3 9.4 C 0 km/h
1189 21-03-2010 21:52:01 9.4 C 7.05 g/m*3 9.4 C 0 km/h
1190 21-03-2010 22:05:03 9.4 C 7.05 g/m*3 9.4 C 0 km/h
1191 21-03-2010 22:17:03 9.3 C 7.1 g/m*3 9.3 C 0 km/h
1192 21-03-2010 22:29:03 9.2 C 7.14 g/m*3 9.2 C 0 km/h
1193 21-03-2010 22:41:03 9.1 C 7.19 g/m*3 9.1 C 0 km/h
1194 21-03-2010 22:53:03 9.1 C 7.19 g/m*3 9.1 C 0 km/h
1195 21-03-2010 23:05:03 8.9 C 7.27 g/m*3 8.9 C 0 km/h
1196 21-03-2010 23:17:03 8.8 C 7.49 g/m*3 8.8 C 0 km/h
1197 21-03-2010 23:29:03 8.6 C 7.48 g/m*3 8.6 C 0 km/h
1198 21-03-2010 23:41:03 8.5 C 7.51 g/m*3 8.5 C 0 km/h
1199 21-03-2010 23:53:04 8.5 C 7.6 g/m*3 8.5 C 0 km/h
1200 22-03-2010 00:05:04 8.5 C 7.68 g/m*3 8.5 C 0 km/h
Sensor: Nr:Datum:Temp:Abs-Feuchte:Windchill:Wind:
Aussen-T/F 1201 22-03-2010 00:17:04 8.5 C 7.68 g/m*3 8.5 C 0 km/h
1202 22-03-2010 00:29:04 8.4 C 7.63 g/m*3 8.4 C 0 km/h
1203 22-03-2010 00:41:04 8.3 C 7.67 g/m*3 8.3 C 0 km/h
1204 22-03-2010 00:53:04 8.3 C 7.67 g/m*3 8.3 C 0 km/h
1205 22-03-2010 01:05:04 8.3 C 7.67 g/m*3 8.3 C 0 km/h
1206 22-03-2010 01:17:04 8.2 C 7.62 g/m*3 8.2 C 0 km/h
1207 22-03-2010 01:29:04 8.2 C 7.62 g/m*3 8.2 C 0 km/h
1208 22-03-2010 01:41:04 8.3 C 7.75 g/m*3 8.3 C 0 km/h
1209 22-03-2010 01:53:04 8.3 C 7.75 g/m*3 8.3 C 0 km/h
1210 22-03-2010 02:05:04 8.4 C 7.8 g/m*3 8.4 C 0 km/h
1211 22-03-2010 02:17:04 8.2 C 7.7 g/m*3 8.2 C 0 km/h
1212 22-03-2010 02:29:04 8.2 C 7.7 g/m*3 8.2 C 0 km/h
1213 22-03-2010 02:41:04 8.3 C 7.75 g/m*3 8.3 C 0 km/h
1214 22-03-2010 02:53:04 8.4 C 7.8 g/m*3 8.4 C 0 km/h
1215 22-03-2010 03:05:04 8.4 C 7.8 g/m*3 8.4 C 0 km/h
1216 22-03-2010 03:17:04 8.4 C 7.8 g/m*3 8.4 C 0 km/h
1217 22-03-2010 03:29:04 8.4 C 7.8 g/m*3 8.4 C 0 km/h
1218 22-03-2010 03:41:04 8.4 C 7.8 g/m*3 8.4 C 0 km/h
1219 22-03-2010 03:53:04 8.4 C 7.8 g/m*3 8.4 C 0 km/h
1220 22-03-2010 04:05:05 8.4 C 7.8 g/m*3 8.4 C 0 km/h
1221 22-03-2010 04:17:05 8.4 C 7.8 g/m*3 8.4 C 0 km/h
1222 22-03-2010 04:29:05 8.3 C 7.75 g/m*3 8.3 C 0 km/h
1223 22-03-2010 04:41:05 8.2 C 7.7 g/m*3 8.2 C 0 km/h
1224 22-03-2010 04:53:05 8.1 C 7.66 g/m*3 8.1 C 0 km/h
1225 22-03-2010 05:05:05 8.1 C 7.66 g/m*3 8.1 C 0 km/h
Sensor: Nr:Datum:Temp:Abs-Feuchte:Windchill:Wind:
Aussen-T/F 1226 22-03-2010 05:17:05 8.2 C 7.7 g/m*3 8.2 C 0 km/h
1227 22-03-2010 05:29:05 8.2 C 7.7 g/m*3 8.2 C 0 km/h
1228 22-03-2010 05:41:05 8.1 C 7.66 g/m*3 8.1 C 0 km/h
1229 22-03-2010 05:53:01 8.1 C 7.66 g/m*3 8.1 C 0 km/h
1230 22-03-2010 06:05:01 8.2 C 7.7 g/m*3 8.2 C 0 km/h
1231 22-03-2010 06:17:02 8.2 C 7.7 g/m*3 8.2 C 0 km/h
1232 22-03-2010 06:29:02 8.2 C 7.7 g/m*3 8.2 C 0 km/h
1233 22-03-2010 06:41:01 8.1 C 7.66 g/m*3 8.1 C 0 km/h
1234 22-03-2010 06:53:02 8.1 C 7.66 g/m*3 8.1 C 0 km/h
1235 22-03-2010 07:05:01 8.2 C 7.7 g/m*3 8.2 C 0 km/h
1236 22-03-2010 07:17:02 8.2 C 7.7 g/m*3 8.2 C 0 km/h
1237 22-03-2010 07:29:02 8.3 C 7.84 g/m*3 8.3 C 0 km/h
1238 22-03-2010 07:41:01 8.4 C 7.89 g/m*3 8.4 C 0 km/h
1239 22-03-2010 07:53:01 8.5 C 7.94 g/m*3 8.5 C 0 km/h
1240 22-03-2010 08:05:01 8.6 C 7.99 g/m*3 8.6 C 0 km/h
1241 22-03-2010 08:17:02 8.8 C 8.09 g/m*3 8.8 C 0 km/h
1242 22-03-2010 08:29:02 8.8 C 8.01 g/m*3 8.8 C 0 km/h
1243 22-03-2010 08:41:01 8.9 C 8.06 g/m*3 8.9 C 0 km/h
1244 22-03-2010 08:53:02 8.9 C 8.06 g/m*3 8.9 C 0 km/h
1245 22-03-2010 09:05:01 8.9 C 7.97 g/m*3 8.9 C 0 km/h
1246 22-03-2010 09:17:02 9 C 7.93 g/m*3 9 C 0 km/h
1247 22-03-2010 09:29:02 9 C 7.93 g/m*3 9 C 0 km/h
1248 22-03-2010 09:41:02 9.2 C 7.95 g/m*3 9.2 C 0 km/h
1249 22-03-2010 09:53:02 9.3 C 8 g/m*3 9.3 C 0 km/h
1250 22-03-2010 10:05:03 9.6 C 8.06 g/m*3 9.6 C 0 km/h
Sensor: Nr:Datum:Temp:Abs-Feuchte:Windchill:Wind:
Aussen-T/F 1251 22-03-2010 10:17:02 10 C 8.08 g/m*3 10 C 0 km/h
1252 22-03-2010 10:29:02 9.9 C 8.03 g/m*3 9.9 C 0 km/h
1253 22-03-2010 10:41:02 9.5 C 7.65 g/m*3 9.5 C 0 km/h
1254 22-03-2010 10:53:02 9.4 C 7.69 g/m*3 9.4 C 0 km/h
1255 22-03-2010 11:05:02 9.5 C 7.92 g/m*3 9.5 C 0 km/h
1256 22-03-2010 11:17:01 9.5 C 7.92 g/m*3 9.5 C 0 km/h
1257 22-03-2010 11:29:01 9.5 C 7.83 g/m*3 9.5 C 0 km/h
1258 22-03-2010 11:41:02 9.7 C 7.74 g/m*3 9.7 C 0 km/h
1259 22-03-2010 11:53:02 10.2 C 7.8 g/m*3 10.2 C 0 km/h
1260 22-03-2010 12:05:02 10.6 C 7.81 g/m*3 10.6 C 0 km/h
1261 22-03-2010 12:17:01 10.7 C 7.76 g/m*3 10.7 C 0 km/h
1262 22-03-2010 12:29:01 11 C 7.61 g/m*3 11 C 0 km/h
1263 22-03-2010 12:41:02 11.1 C 7.45 g/m*3 11.1 C 0 km/h
1264 22-03-2010 12:53:02 11.4 C 7.39 g/m*3 11.4 C 0 km/h
1265 22-03-2010 13:05:02 11.5 C 7.23 g/m*3 11.5 C 0 km/h
1266 22-03-2010 13:17:01 12.1 C 7.18 g/m*3 12.1 C 0 km/h
1267 22-03-2010 13:29:01 12.4 C 6.66 g/m*3 12.4 C 0 km/h
1268 22-03-2010 13:41:02 12.6 C 6.42 g/m*3 12.6 C 0 km/h
1269 22-03-2010 13:53:01 12.6 C 6.31 g/m*3 12.6 C 0 km/h
1270 22-03-2010 14:05:02 13.3 C 6.47 g/m*3 13.3 C 0 km/h
1271 22-03-2010 14:17:02 14.2 C 6.11 g/m*3 14.2 C 0 km/h
1272 22-03-2010 14:29:02 14.2 C 5.86 g/m*3 14.2 C 0 km/h
1273 22-03-2010 14:41:02 14.5 C 5.72 g/m*3 14.5 C 0 km/h
1274 22-03-2010 14:53:01 14.6 C 5.51 g/m*3 14.6 C 0 km/h
1275 22-03-2010 15:05:02 14.2 C 5.49 g/m*3 14.2 C 0 km/h
Sensor: Nr:Datum:Temp:Abs-Feuchte:Windchill:Wind:
Aussen-T/F 1276 22-03-2010 15:17:02 14 C 5.43 g/m*3 14 C 0 km/h
1277 22-03-2010 15:29:02 14 C 5.31 g/m*3 14 C 0 km/h
1278 22-03-2010 15:41:01 14.6 C 5.51 g/m*3 14.6 C 0 km/h
1279 22-03-2010 15:53:02 14.9 C 5.23 g/m*3 14.9 C 0 km/h
1280 22-03-2010 16:05:01 14.4 C 5.07 g/m*3 14.4 C 0 km/h
1281 22-03-2010 16:17:02 14.3 C 5.28 g/m*3 14.3 C 0 km/h
1282 22-03-2010 16:29:02 14.5 C 5.1 g/m*3 14.5 C 0 km/h
1283 22-03-2010 16:41:01 15.2 C 5.32 g/m*3 15.2 C 0 km/h
1284 22-03-2010 16:53:03 15.2 C 5.45 g/m*3 15.2 C 0 km/h
1285 22-03-2010 17:05:02 14.9 C 5.35 g/m*3 14.9 C 0 km/h
1286 22-03-2010 17:17:02 14.2 C 5.01 g/m*3 14.2 C 0 km/h
1287 22-03-2010 17:29:02 13.9 C 4.8 g/m*3 13.9 C 0 km/h
1288 22-03-2010 17:41:02 13.4 C 4.77 g/m*3 13.4 C 0 km/h
1289 22-03-2010 17:53:02 13.2 C 4.82 g/m*3 13.2 C 0 km/h
1290 22-03-2010 18:05:01 13 C 4.88 g/m*3 13 C 0 km/h
1291 22-03-2010 18:17:02 12.9 C 5.3 g/m*3 12.9 C 0 km/h
1292 22-03-2010 18:29:02 12.4 C 5.35 g/m*3 12.4 C 0 km/h
1293 22-03-2010 18:41:02 11.8 C 5.58 g/m*3 11.8 C 0 km/h
1294 22-03-2010 18:53:02 11.3 C 5.61 g/m*3 11.3 C 0 km/h
1295 22-03-2010 19:05:01 10.5 C 5.72 g/m*3 10.5 C 0 km/h
1296 22-03-2010 19:17:01 10 C 5.64 g/m*3 10 C 0 km/h
1297 22-03-2010 19:29:01 9.7 C 5.72 g/m*3 9.7 C 0 km/h
1298 22-03-2010 19:41:02 9.5 C 5.83 g/m*3 9.5 C 0 km/h
1299 22-03-2010 19:53:02 9.2 C 5.8 g/m*3 9.2 C 0 km/h
1300 22-03-2010 20:05:02 9 C 5.99 g/m*3 9 C 0 km/h
Sensor: Nr:Datum:Temp:Abs-Feuchte:Windchill:Wind:
Aussen-T/F 1301 22-03-2010 20:17:02 8.7 C 6.14 g/m*3 8.7 C 0 km/h
1302 22-03-2010 20:29:02 8.7 C 6.23 g/m*3 8.7 C 0 km/h
1303 22-03-2010 20:41:02 8.5 C 6.15 g/m*3 8.5 C 0 km/h
1304 22-03-2010 20:53:02 8.3 C 6.07 g/m*3 8.3 C 0 km/h
1305 22-03-2010 21:05:02 8.1 C 6.07 g/m*3 8.1 C 0 km/h
1306 22-03-2010 21:17:02 7.8 C 6.12 g/m*3 7.8 C 0 km/h
1307 22-03-2010 21:29:02 7.4 C 6.04 g/m*3 7.4 C 0 km/h
1308 22-03-2010 21:41:02 7.3 C 6.08 g/m*3 7.3 C 0 km/h
1309 22-03-2010 21:53:02 7.1 C 6.08 g/m*3 7.1 C 0 km/h
1310 22-03-2010 22:05:02 6.9 C 6.08 g/m*3 6.9 C 0 km/h
1311 22-03-2010 22:17:02 6.6 C 5.96 g/m*3 6.6 C 0 km/h
1312 22-03-2010 22:29:02 6.5 C 6 g/m*3 6.5 C 0 km/h
1313 22-03-2010 22:41:02 6.2 C 5.88 g/m*3 6.2 C 0 km/h
1314 22-03-2010 22:54:02 6 C 5.88 g/m*3 6 C 0 km/h
1315 22-03-2010 23:06:02 6 C 5.95 g/m*3 6 C 0 km/h
1316 22-03-2010 23:18:03 5.7 C 5.91 g/m*3 5.7 C 0 km/h
1317 22-03-2010 23:30:03 5.6 C 5.87 g/m*3 5.6 C 0 km/h
1318 22-03-2010 23:42:03 5.6 C 5.94 g/m*3 5.6 C 0 km/h
1319 22-03-2010 23:54:03 5.4 C 5.86 g/m*3 5.4 C 0 km/h
1320 23-03-2010 00:06:03 5.2 C 5.78 g/m*3 5.2 C 0 km/h
1321 23-03-2010 00:18:03 5 C 5.78 g/m*3 5 C 0 km/h
1322 23-03-2010 00:30:03 5 C 5.78 g/m*3 5 C 0 km/h
1323 23-03-2010 00:42:03 4.8 C 5.83 g/m*3 4.8 C 0 km/h
1324 23-03-2010 00:54:03 4.6 C 5.76 g/m*3 4.6 C 0 km/h
1325 23-03-2010 01:06:03 4.4 C 5.68 g/m*3 4.4 C 0 km/h
Sensor: Nr:Datum:Temp:Abs-Feuchte:Windchill:Wind:
Aussen-T/F 1326 23-03-2010 01:18:03 4.3 C 5.64 g/m*3 4.3 C 0 km/h
1327 23-03-2010 01:30:03 4.3 C 5.71 g/m*3 4.3 C 0 km/h
1328 23-03-2010 01:42:03 4.2 C 5.67 g/m*3 4.2 C 0 km/h
1329 23-03-2010 01:54:03 4.1 C 5.63 g/m*3 4.1 C 0 km/h
1330 23-03-2010 02:06:03 4 C 5.59 g/m*3 4 C 0 km/h
1331 23-03-2010 02:18:03 3.9 C 5.62 g/m*3 3.9 C 0 km/h
1332 23-03-2010 02:30:03 3.7 C 5.55 g/m*3 3.7 C 0 km/h
1333 23-03-2010 02:42:03 3.6 C 5.57 g/m*3 3.6 C 0 km/h
1334 23-03-2010 02:54:03 3.5 C 5.53 g/m*3 3.5 C 0 km/h
1335 23-03-2010 03:06:03 3.4 C 5.56 g/m*3 3.4 C 0 km/h
1336 23-03-2010 03:18:04 3.3 C 5.52 g/m*3 3.3 C 0 km/h
1337 23-03-2010 03:30:04 3.2 C 5.48 g/m*3 3.2 C 0 km/h
1338 23-03-2010 03:42:04 3.1 C 5.45 g/m*3 3.1 C 0 km/h
1339 23-03-2010 03:54:04 2.9 C 5.43 g/m*3 2.9 C 0 km/h
1340 23-03-2010 04:06:04 2.9 C 5.43 g/m*3 2.9 C 0 km/h
1341 23-03-2010 04:18:04 2.7 C 5.3 g/m*3 2.7 C 0 km/h
1342 23-03-2010 04:30:04 2.6 C 5.27 g/m*3 2.6 C 0 km/h
1343 23-03-2010 04:42:04 2.5 C 5.29 g/m*3 2.5 C 0 km/h
1344 23-03-2010 04:54:04 2.4 C 5.25 g/m*3 2.4 C 0 km/h
1345 23-03-2010 05:06:04 2.4 C 5.25 g/m*3 2.4 C 0 km/h
1346 23-03-2010 05:18:04 2.4 C 5.25 g/m*3 2.4 C 0 km/h
1347 23-03-2010 05:30:04 2.3 C 5.22 g/m*3 2.3 C 0 km/h
1348 23-03-2010 05:42:04 2.2 C 5.24 g/m*3 2.2 C 0 km/h
1349 23-03-2010 05:54:04 2.1 C 5.2 g/m*3 2.1 C 0 km/h
1350 23-03-2010 06:06:04 2.1 C 5.2 g/m*3 2.1 C 0 km/h
Sensor: Nr:Datum:Temp:Abs-Feuchte:Windchill:Wind:
Aussen-T/F 1351 23-03-2010 06:18:04 2.1 C 5.2 g/m*3 2.1 C 0 km/h
1352 23-03-2010 06:30:04 2.2 C 5.24 g/m*3 2.2 C 0 km/h
1353 23-03-2010 06:42:04 2.4 C 5.31 g/m*3 2.4 C 0 km/h
1354 23-03-2010 06:54:04 2.7 C 5.48 g/m*3 2.7 C 0 km/h
1355 23-03-2010 07:06:02 2.7 C 5.48 g/m*3 2.7 C 0 km/h
1356 23-03-2010 07:18:02 2.6 C 5.44 g/m*3 2.6 C 0 km/h
1357 23-03-2010 07:30:02 2.7 C 5.48 g/m*3 2.7 C 0 km/h
1358 23-03-2010 07:42:02 2.9 C 5.55 g/m*3 2.9 C 0 km/h
1359 23-03-2010 07:54:02 3.4 C 5.74 g/m*3 3.4 C 0 km/h
1360 23-03-2010 08:06:02 3.6 C 5.82 g/m*3 3.6 C 0 km/h
1361 23-03-2010 08:18:01 3.8 C 5.83 g/m*3 3.8 C 0 km/h
1362 23-03-2010 08:30:01 3.9 C 5.87 g/m*3 3.9 C 0 km/h
1363 23-03-2010 08:42:02 4.1 C 5.95 g/m*3 4.1 C 0 km/h
1364 23-03-2010 08:54:02 4.4 C 6.07 g/m*3 4.4 C 0 km/h
1365 23-03-2010 09:06:01 4.8 C 6.24 g/m*3 4.8 C 0 km/h
1366 23-03-2010 09:18:02 5.3 C 6.45 g/m*3 5.3 C 0 km/h
1367 23-03-2010 09:30:02 5.9 C 6.71 g/m*3 5.9 C 0 km/h
1368 23-03-2010 09:42:01 6.7 C 6.99 g/m*3 6.7 C 0 km/h
1369 23-03-2010 09:54:03 7.3 C 6.95 g/m*3 7.3 C 0 km/h
1370 23-03-2010 10:06:02 7.9 C 7.06 g/m*3 7.9 C 0 km/h
1371 23-03-2010 10:18:02 8.4 C 6.96 g/m*3 8.4 C 0 km/h
1372 23-03-2010 10:30:03 8.9 C 6.75 g/m*3 8.9 C 0 km/h
1373 23-03-2010 10:42:02 9.3 C 6.56 g/m*3 9.3 C 0 km/h
1374 23-03-2010 10:54:02 9.8 C 6.59 g/m*3 9.8 C 0 km/h
1375 23-03-2010 11:06:01 10.3 C 6.61 g/m*3 10.3 C 0 km/h
Sensor: Nr:Datum:Temp:Abs-Feuchte:Windchill:Wind:
Aussen-T/F 1376 23-03-2010 11:18:02 11.2 C 6.49 g/m*3 11.2 C 0 km/h
1377 23-03-2010 11:30:02 11.8 C 6.42 g/m*3 11.8 C 0 km/h
1378 23-03-2010 11:42:02 12.3 C 6.08 g/m*3 12.3 C 0 km/h
1379 23-03-2010 11:54:02 12.8 C 5.94 g/m*3 12.8 C 0 km/h
1380 23-03-2010 12:06:01 13.3 C 5.89 g/m*3 13.3 C 0 km/h
1381 23-03-2010 12:18:01 13.7 C 5.92 g/m*3 13.7 C 0 km/h
1382 23-03-2010 12:30:01 14 C 5.67 g/m*3 14 C 0 km/h
1383 23-03-2010 12:42:02 13.9 C 5.87 g/m*3 13.9 C 0 km/h
1384 23-03-2010 12:54:02 14.4 C 5.56 g/m*3 14.4 C 0 km/h
1385 23-03-2010 13:06:02 14.9 C 5.23 g/m*3 14.9 C 0 km/h
1386 23-03-2010 13:18:02 15 C 5.13 g/m*3 15 C 0 km/h
1387 23-03-2010 13:30:02 15.6 C 5.59 g/m*3 15.6 C 0 km/h
1388 23-03-2010 13:42:02 16.1 C 5.35 g/m*3 16.1 C 0 km/h
1389 23-03-2010 13:54:01 16 C 5.31 g/m*3 16 C 0 km/h
1390 23-03-2010 14:06:02 16.4 C 5.44 g/m*3 16.4 C 0 km/h
1391 23-03-2010 14:18:01 16.8 C 5.43 g/m*3 16.8 C 0 km/h
1392 23-03-2010 14:30:01 16.9 C 5.32 g/m*3 16.9 C 0 km/h
1393 23-03-2010 14:42:01 17.2 C 5.27 g/m*3 17.2 C 0 km/h
1394 23-03-2010 14:54:02 16.6 C 5.09 g/m*3 16.6 C 0 km/h
1395 23-03-2010 15:06:02 17.1 C 5.24 g/m*3 17.1 C 0 km/h
1396 23-03-2010 15:18:01 17.3 C 5.01 g/m*3 17.3 C 0 km/h
1397 23-03-2010 15:30:01 17.2 C 5.13 g/m*3 17.2 C 0 km/h
1398 23-03-2010 15:42:02 17.1 C 4.8 g/m*3 17.1 C 0 km/h
1399 23-03-2010 15:54:02 17.4 C 5.19 g/m*3 17.4 C 0 km/h
1400 23-03-2010 16:06:02 17.3 C 5.16 g/m*3 17.3 C 0 km/h
Sensor: Nr:Datum:Temp:Abs-Feuchte:Windchill:Wind:
Aussen-T/F 1401 23-03-2010 16:18:01 16.7 C 5.12 g/m*3 16.7 C 0 km/h
1402 23-03-2010 16:30:01 16.3 C 5.13 g/m*3 16.3 C 0 km/h
1403 23-03-2010 16:42:02 16.3 C 5.13 g/m*3 16.3 C 0 km/h
1404 23-03-2010 16:54:02 16.1 C 5.35 g/m*3 16.1 C 0 km/h
1405 23-03-2010 17:06:02 16.2 C 5.38 g/m*3 16.2 C 0 km/h
1406 23-03-2010 17:18:01 16.5 C 5.34 g/m*3 16.5 C 0 km/h
1407 23-03-2010 17:30:01 15.8 C 5.38 g/m*3 15.8 C 0 km/h
1408 23-03-2010 17:42:02 15.2 C 5.32 g/m*3 15.2 C 0 km/h
1409 23-03-2010 17:54:02 14.8 C 5.45 g/m*3 14.8 C 0 km/h
1410 23-03-2010 18:06:02 14.6 C 5.63 g/m*3 14.6 C 0 km/h
1411 23-03-2010 18:18:02 14.2 C 5.62 g/m*3 14.2 C 0 km/h
1412 23-03-2010 18:30:02 13.9 C 5.87 g/m*3 13.9 C 0 km/h
1413 23-03-2010 18:42:02 13.5 C 6.08 g/m*3 13.5 C 0 km/h
1414 23-03-2010 18:54:01 12.8 C 6.27 g/m*3 12.8 C 0 km/h
1415 23-03-2010 19:06:02 12.1 C 6.22 g/m*3 12.1 C 0 km/h
1416 23-03-2010 19:18:02 11.7 C 6.28 g/m*3 11.7 C 0 km/h
1417 23-03-2010 19:30:02 11.4 C 6.26 g/m*3 11.4 C 0 km/h
1418 23-03-2010 19:42:02 11.2 C 6.18 g/m*3 11.2 C 0 km/h
1419 23-03-2010 19:54:02 10.8 C 6.23 g/m*3 10.8 C 0 km/h
1420 23-03-2010 20:06:01 10.6 C 6.15 g/m*3 10.6 C 0 km/h
1421 23-03-2010 20:18:02 10.4 C 6.17 g/m*3 10.4 C 0 km/h
1422 23-03-2010 20:30:02 10.4 C 6.07 g/m*3 10.4 C 0 km/h
1423 23-03-2010 20:42:01 10.3 C 6.03 g/m*3 10.3 C 0 km/h
1424 23-03-2010 20:54:02 10.2 C 6.09 g/m*3 10.2 C 0 km/h
1425 23-03-2010 21:06:01 10 C 6.11 g/m*3 10 C 0 km/h
Sensor: Nr:Datum:Temp:Abs-Feuchte:Windchill:Wind:
Aussen-T/F 1426 23-03-2010 21:18:01 9.8 C 6.12 g/m*3 9.8 C 0 km/h
1427 23-03-2010 21:30:01 9.6 C 6.23 g/m*3 9.6 C 0 km/h
1428 23-03-2010 21:42:01 9.5 C 6.28 g/m*3 9.5 C 0 km/h
1429 23-03-2010 21:54:02 9.4 C 6.24 g/m*3 9.4 C 0 km/h
1430 23-03-2010 22:06:02 9.2 C 6.25 g/m*3 9.2 C 0 km/h
1431 23-03-2010 22:18:02 9 C 6.26 g/m*3 9 C 0 km/h
1432 23-03-2010 22:30:02 8.7 C 6.23 g/m*3 8.7 C 0 km/h
1433 23-03-2010 22:42:02 8.6 C 6.27 g/m*3 8.6 C 0 km/h
1434 23-03-2010 22:54:02 8.5 C 6.32 g/m*3 8.5 C 0 km/h
1435 23-03-2010 23:06:02 8.4 C 6.28 g/m*3 8.4 C 0 km/h
1436 23-03-2010 23:18:02 8.3 C 6.24 g/m*3 8.3 C 0 km/h
1437 23-03-2010 23:30:02 8.2 C 6.2 g/m*3 8.2 C 0 km/h
1438 23-03-2010 23:42:02 8.1 C 6.24 g/m*3 8.1 C 0 km/h
1439 23-03-2010 23:54:01 8 C 6.2 g/m*3 8 C 0 km/h
1440 24-03-2010 00:06:01 7.9 C 6.24 g/m*3 7.9 C 0 km/h
1441 24-03-2010 00:18:01 7.8 C 6.28 g/m*3 7.8 C 0 km/h
1442 24-03-2010 00:30:01 7.7 C 6.24 g/m*3 7.7 C 0 km/h
1443 24-03-2010 00:42:02 7.6 C 6.2 g/m*3 7.6 C 0 km/h
1444 24-03-2010 00:54:01 7.5 C 6.16 g/m*3 7.5 C 0 km/h
1445 24-03-2010 01:06:02 7.5 C 6.24 g/m*3 7.5 C 0 km/h
1446 24-03-2010 01:18:01 7.5 C 6.24 g/m*3 7.5 C 0 km/h
1447 24-03-2010 01:30:01 7.3 C 6.16 g/m*3 7.3 C 0 km/h
1448 24-03-2010 01:42:02 7.1 C 6.08 g/m*3 7.1 C 0 km/h
1449 24-03-2010 01:54:02 6.9 C 6.08 g/m*3 6.9 C 0 km/h
1450 24-03-2010 02:06:02 6.8 C 6.12 g/m*3 6.8 C 0 km/h
Sensor: Nr:Datum:Temp:Abs-Feuchte:Windchill:Wind:
Aussen-T/F 1451 24-03-2010 02:18:01 6.7 C 6.15 g/m*3 6.7 C 0 km/h
1452 24-03-2010 02:30:01 6.6 C 6.11 g/m*3 6.6 C 0 km/h
1453 24-03-2010 02:42:02 6.4 C 6.04 g/m*3 6.4 C 0 km/h
1454 24-03-2010 02:55:04 6.2 C 5.96 g/m*3 6.2 C 0 km/h
1455 24-03-2010 03:07:04 6.2 C 6.03 g/m*3 6.2 C 0 km/h
1456 24-03-2010 03:19:04 6.1 C 5.99 g/m*3 6.1 C 0 km/h
1457 24-03-2010 03:31:02 5.8 C 5.95 g/m*3 5.8 C 0 km/h
1458 24-03-2010 03:43:02 5.6 C 5.87 g/m*3 5.6 C 0 km/h
1459 24-03-2010 03:55:02 5.7 C 5.98 g/m*3 5.7 C 0 km/h
1460 24-03-2010 04:07:03 5.6 C 5.94 g/m*3 5.6 C 0 km/h
1461 24-03-2010 04:19:02 5.3 C 5.82 g/m*3 5.3 C 0 km/h
1462 24-03-2010 04:31:02 5.3 C 5.82 g/m*3 5.3 C 0 km/h
1463 24-03-2010 04:43:02 5.2 C 5.85 g/m*3 5.2 C 0 km/h
1464 24-03-2010 04:55:01 5.1 C 5.81 g/m*3 5.1 C 0 km/h
1465 24-03-2010 05:07:02 4.9 C 5.81 g/m*3 4.9 C 0 km/h
1466 24-03-2010 05:19:01 5 C 5.84 g/m*3 5 C 0 km/h
1467 24-03-2010 05:31:01 5 C 5.84 g/m*3 5 C 0 km/h
1468 24-03-2010 05:43:01 4.7 C 5.8 g/m*3 4.7 C 0 km/h
1469 24-03-2010 05:55:01 4.5 C 5.72 g/m*3 4.5 C 0 km/h
1470 24-03-2010 06:07:02 4.4 C 5.68 g/m*3 4.4 C 0 km/h
1471 24-03-2010 06:19:01 4.4 C 5.68 g/m*3 4.4 C 0 km/h
1472 24-03-2010 06:31:01 4.4 C 5.75 g/m*3 4.4 C 0 km/h
1473 24-03-2010 06:43:01 4.3 C 5.71 g/m*3 4.3 C 0 km/h
1474 24-03-2010 06:55:01 4.3 C 5.71 g/m*3 4.3 C 0 km/h
1475 24-03-2010 07:07:01 4.4 C 5.81 g/m*3 4.4 C 0 km/h
Sensor: Nr:Datum:Temp:Abs-Feuchte:Windchill:Wind:
Aussen-T/F 1476 24-03-2010 07:19:02 4.4 C 5.81 g/m*3 4.4 C 0 km/h
1477 24-03-2010 07:31:01 4.6 C 5.89 g/m*3 4.6 C 0 km/h
1478 24-03-2010 07:43:01 4.9 C 6.01 g/m*3 4.9 C 0 km/h
1479 24-03-2010 07:55:03 5.2 C 6.06 g/m*3 5.2 C 0 km/h
1480 24-03-2010 08:07:02 5.3 C 6.1 g/m*3 5.3 C 0 km/h
1481 24-03-2010 08:19:02 5.4 C 6.07 g/m*3 5.4 C 0 km/h
1482 24-03-2010 08:31:02 5.7 C 6.19 g/m*3 5.7 C 0 km/h
1483 24-03-2010 08:43:02 5.7 C 6.12 g/m*3 5.7 C 0 km/h
1484 24-03-2010 08:55:02 5.8 C 6.16 g/m*3 5.8 C 0 km/h
1485 24-03-2010 09:07:01 6.1 C 6.21 g/m*3 6.1 C 0 km/h
1486 24-03-2010 09:19:02 6.7 C 6.46 g/m*3 6.7 C 0 km/h
1487 24-03-2010 09:31:01 7.2 C 6.44 g/m*3 7.2 C 0 km/h
1488 24-03-2010 09:43:01 7.8 C 6.69 g/m*3 7.8 C 0 km/h
1489 24-03-2010 09:55:02 8.4 C 6.53 g/m*3 8.4 C 0 km/h
1490 24-03-2010 10:07:01 9.2 C 6.79 g/m*3 9.2 C 0 km/h
1491 24-03-2010 10:19:01 10.2 C 6.95 g/m*3 10.2 C 0 km/h
1492 24-03-2010 10:31:02 10.9 C 6.76 g/m*3 10.9 C 0 km/h
1493 24-03-2010 10:43:02 11.7 C 6.48 g/m*3 11.7 C 0 km/h
1494 24-03-2010 10:55:02 12.7 C 6.46 g/m*3 12.7 C 0 km/h
1495 24-03-2010 11:07:01 13.1 C 5.71 g/m*3 13.1 C 0 km/h
1496 24-03-2010 11:19:02 13.8 C 5.6 g/m*3 13.8 C 0 km/h
1497 24-03-2010 11:31:02 14.4 C 5.44 g/m*3 14.4 C 0 km/h
1498 24-03-2010 11:43:02 14.9 C 5.23 g/m*3 14.9 C 0 km/h
1499 24-03-2010 11:55:02 15.5 C 5.29 g/m*3 15.5 C 0 km/h
1500 24-03-2010 12:07:02 16.1 C 5.21 g/m*3 16.1 C 0 km/h
Sensor: Nr:Datum:Temp:Abs-Feuchte:Windchill:Wind:
Aussen-T/F 1501 24-03-2010 12:19:02 16.7 C 5.26 g/m*3 16.7 C 0 km/h
1502 24-03-2010 12:31:02 17.2 C 5.27 g/m*3 17.2 C 0 km/h
1503 24-03-2010 12:43:02 17.6 C 5.1 g/m*3 17.6 C 0 km/h
1504 24-03-2010 12:55:02 18.4 C 4.88 g/m*3 18.4 C 0 km/h
1505 24-03-2010 13:07:03 18.7 C 4.8 g/m*3 18.7 C 0 km/h
1506 24-03-2010 13:19:02 19 C 5.05 g/m*3 19 C 0 km/h
1507 24-03-2010 13:31:02 19.5 C 5.2 g/m*3 19.5 C 0 km/h
1508 24-03-2010 13:43:02 19.9 C 4.98 g/m*3 19.9 C 0 km/h
1509 24-03-2010 13:55:01 20.3 C 4.75 g/m*3 20.3 C 0 km/h
1510 24-03-2010 14:07:02 20.8 C 4.71 g/m*3 20.8 C 0 km/h
1511 24-03-2010 14:19:01 21.6 C 4.74 g/m*3 21.6 C 0 km/h
1512 24-03-2010 14:31:01 21.6 C 4.36 g/m*3 21.6 C 0 km/h
1513 24-03-2010 14:43:01 21.5 C 4.34 g/m*3 21.5 C 0 km/h
1514 24-03-2010 14:55:01 21.8 C 4.41 g/m*3 21.8 C 0 km/h
1515 24-03-2010 15:07:02 22 C 4.27 g/m*3 22 C 0 km/h
1516 24-03-2010 15:19:01 22 C 4.27 g/m*3 22 C 0 km/h
1517 24-03-2010 15:31:01 22.3 C 4.34 g/m*3 22.3 C 0 km/h
1518 24-03-2010 15:43:01 23 C 4.52 g/m*3 23 C 0 km/h
1519 24-03-2010 15:55:01 21.9 C 4.44 g/m*3 21.9 C 0 km/h
1520 24-03-2010 16:07:02 21.4 C 4.5 g/m*3 21.4 C 0 km/h
1521 24-03-2010 16:19:02 21 C 4.58 g/m*3 21 C 0 km/h
1522 24-03-2010 16:31:01 21.1 C 4.79 g/m*3 21.1 C 0 km/h
1523 24-03-2010 16:43:01 20.3 C 4.92 g/m*3 20.3 C 0 km/h
1524 24-03-2010 16:55:01 20.4 C 5.13 g/m*3 20.4 C 0 km/h
1525 24-03-2010 17:07:01 20.4 C 5.31 g/m*3 20.4 C 0 km/h
Sensor: Nr:Datum:Temp:Abs-Feuchte:Windchill:Wind:
Aussen-T/F 1526 24-03-2010 17:19:02 20 C 5.18 g/m*3 20 C 0 km/h
1527 24-03-2010 17:31:01 19.8 C 5.47 g/m*3 19.8 C 0 km/h
1528 24-03-2010 17:43:01 19.5 C 5.37 g/m*3 19.5 C 0 km/h
1529 24-03-2010 17:55:02 19.1 C 5.08 g/m*3 19.1 C 0 km/h
1530 24-03-2010 18:07:01 18.5 C 5.22 g/m*3 18.5 C 0 km/h
1531 24-03-2010 18:19:02 17.9 C 5.65 g/m*3 17.9 C 0 km/h
1532 24-03-2010 18:31:01 17.4 C 5.48 g/m*3 17.4 C 0 km/h
1533 24-03-2010 18:43:01 16.5 C 5.62 g/m*3 16.5 C 0 km/h
1534 24-03-2010 18:55:02 15.8 C 5.38 g/m*3 15.8 C 0 km/h
1535 24-03-2010 19:07:02 15.4 C 5.52 g/m*3 15.4 C 0 km/h
1536 24-03-2010 19:19:02 15 C 5.51 g/m*3 15 C 0 km/h
1537 24-03-2010 19:31:03 14.5 C 5.6 g/m*3 14.5 C 0 km/h
1538 24-03-2010 19:43:03 14.4 C 5.56 g/m*3 14.4 C 0 km/h
1539 24-03-2010 19:55:02 14.2 C 5.49 g/m*3 14.2 C 0 km/h
1540 24-03-2010 20:07:01 14 C 5.67 g/m*3 14 C 0 km/h
1541 24-03-2010 20:19:02 14 C 5.55 g/m*3 14 C 0 km/h
1542 24-03-2010 20:31:02 13.8 C 5.48 g/m*3 13.8 C 0 km/h
1543 24-03-2010 20:43:02 13.8 C 5.6 g/m*3 13.8 C 0 km/h
1544 24-03-2010 20:55:02 13.4 C 5.58 g/m*3 13.4 C 0 km/h
1545 24-03-2010 21:07:01 13.4 C 5.58 g/m*3 13.4 C 0 km/h
1546 24-03-2010 21:19:01 13.2 C 5.51 g/m*3 13.2 C 0 km/h
1547 24-03-2010 21:31:02 13.1 C 5.59 g/m*3 13.1 C 0 km/h
1548 24-03-2010 21:43:02 12.9 C 5.75 g/m*3 12.9 C 0 km/h
1549 24-03-2010 21:55:02 12.8 C 5.71 g/m*3 12.8 C 0 km/h
1550 24-03-2010 22:07:02 12.4 C 5.68 g/m*3 12.4 C 0 km/h
Sensor: Nr:Datum:Temp:Abs-Feuchte:Windchill:Wind:
Aussen-T/F 1551 24-03-2010 22:19:02 12.7 C 5.68 g/m*3 12.7 C 0 km/h
1552 24-03-2010 22:31:02 12.6 C 5.64 g/m*3 12.6 C 0 km/h
1553 24-03-2010 22:43:02 12.4 C 5.68 g/m*3 12.4 C 0 km/h
1554 24-03-2010 22:55:02 12 C 5.86 g/m*3 12 C 0 km/h
1555 24-03-2010 23:07:02 11.7 C 6.07 g/m*3 11.7 C 0 km/h
1556 24-03-2010 23:19:02 11.4 C 5.95 g/m*3 11.4 C 0 km/h
1557 24-03-2010 23:31:02 10.9 C 6.07 g/m*3 10.9 C 0 km/h
1558 24-03-2010 23:43:02 10.8 C 6.13 g/m*3 10.8 C 0 km/h
1559 24-03-2010 23:55:02 10.6 C 6.15 g/m*3 10.6 C 0 km/h
1560 25-03-2010 00:07:02 10.6 C 6.25 g/m*3 10.6 C 0 km/h
1561 25-03-2010 00:19:02 10.5 C 6.21 g/m*3 10.5 C 0 km/h
1562 25-03-2010 00:31:02 10.4 C 6.07 g/m*3 10.4 C 0 km/h
1563 25-03-2010 00:43:02 10.1 C 6.05 g/m*3 10.1 C 0 km/h
1564 25-03-2010 00:55:01 9.7 C 6.08 g/m*3 9.7 C 0 km/h
1565 25-03-2010 01:07:02 9.4 C 6.06 g/m*3 9.4 C 0 km/h
1566 25-03-2010 01:19:01 9.3 C 6.11 g/m*3 9.3 C 0 km/h
1567 25-03-2010 01:31:01 9.2 C 6.16 g/m*3 9.2 C 0 km/h
1568 25-03-2010 01:43:01 9 C 6.08 g/m*3 9 C 0 km/h
1569 25-03-2010 01:55:01 8.9 C 6.13 g/m*3 8.9 C 0 km/h
1570 25-03-2010 02:07:02 8.9 C 6.22 g/m*3 8.9 C 0 km/h
1571 25-03-2010 02:19:02 8.8 C 6.18 g/m*3 8.8 C 0 km/h
1572 25-03-2010 02:31:01 8.6 C 6.19 g/m*3 8.6 C 0 km/h
1573 25-03-2010 02:43:01 8.7 C 6.23 g/m*3 8.7 C 0 km/h
1574 25-03-2010 02:55:01 8.6 C 6.27 g/m*3 8.6 C 0 km/h
1575 25-03-2010 03:07:01 8.7 C 6.31 g/m*3 8.7 C 0 km/h
Sensor: Nr:Datum:Temp:Abs-Feuchte:Windchill:Wind:
Aussen-T/F 1576 25-03-2010 03:19:01 8.6 C 6.27 g/m*3 8.6 C 0 km/h
1577 25-03-2010 03:31:01 8.4 C 6.28 g/m*3 8.4 C 0 km/h
1578 25-03-2010 03:43:01 8.1 C 6.16 g/m*3 8.1 C 0 km/h
1579 25-03-2010 03:55:01 7.9 C 6.24 g/m*3 7.9 C 0 km/h
1580 25-03-2010 04:07:02 7.7 C 6.24 g/m*3 7.7 C 0 km/h
1581 25-03-2010 04:19:01 7.6 C 6.28 g/m*3 7.6 C 0 km/h
1582 25-03-2010 04:31:01 7.7 C 6.32 g/m*3 7.7 C 0 km/h
1583 25-03-2010 04:43:01 7.9 C 6.49 g/m*3 7.9 C 0 km/h
1584 25-03-2010 04:55:01 7.8 C 6.45 g/m*3 7.8 C 0 km/h
1585 25-03-2010 05:07:01 7.6 C 6.44 g/m*3 7.6 C 0 km/h
1586 25-03-2010 05:19:01 7.5 C 6.4 g/m*3 7.5 C 0 km/h
1587 25-03-2010 05:31:01 7.3 C 6.4 g/m*3 7.3 C 0 km/h
1588 25-03-2010 05:43:01 7.2 C 6.36 g/m*3 7.2 C 0 km/h
1589 25-03-2010 05:55:01 7.2 C 6.36 g/m*3 7.2 C 0 km/h
1590 25-03-2010 06:07:01 7.3 C 6.48 g/m*3 7.3 C 0 km/h
1591 25-03-2010 06:19:02 7.4 C 6.44 g/m*3 7.4 C 0 km/h
1592 25-03-2010 06:31:01 7.4 C 6.44 g/m*3 7.4 C 0 km/h
1593 25-03-2010 06:43:01 7.5 C 6.48 g/m*3 7.5 C 0 km/h
1594 25-03-2010 06:55:01 7.6 C 6.53 g/m*3 7.6 C 0 km/h
1595 25-03-2010 07:07:01 7.8 C 6.53 g/m*3 7.8 C 0 km/h
1596 25-03-2010 07:19:02 7.9 C 6.57 g/m*3 7.9 C 0 km/h
1597 25-03-2010 07:31:01 7.6 C 6.61 g/m*3 7.6 C 0 km/h
1598 25-03-2010 07:43:01 7.9 C 6.9 g/m*3 7.9 C 0 km/h
1599 25-03-2010 07:55:02 8.2 C 6.95 g/m*3 8.2 C 0 km/h
1600 25-03-2010 08:07:01 8.2 C 6.87 g/m*3 8.2 C 0 km/h
Sensor: Nr:Datum:Temp:Abs-Feuchte:Windchill:Wind:
Aussen-T/F 1601 25-03-2010 08:19:02 8.1 C 6.82 g/m*3 8.1 C 0 km/h
1602 25-03-2010 08:31:01 8.2 C 6.95 g/m*3 8.2 C 0 km/h
1603 25-03-2010 08:43:01 8.4 C 7.04 g/m*3 8.4 C 0 km/h
1604 25-03-2010 08:55:02 8.8 C 7.22 g/m*3 8.8 C 0 km/h
1605 25-03-2010 09:07:01 9.5 C 7.46 g/m*3 9.5 C 0 km/h
1606 25-03-2010 09:19:01 10.4 C 7.61 g/m*3 10.4 C 0 km/h
1607 25-03-2010 09:31:02 11 C 7.31 g/m*3 11 C 0 km/h
1608 25-03-2010 09:43:02 11.5 C 7.33 g/m*3 11.5 C 0 km/h
1609 25-03-2010 09:55:02 11.9 C 7.31 g/m*3 11.9 C 0 km/h
1610 25-03-2010 10:07:01 12.4 C 7.21 g/m*3 12.4 C 0 km/h
1611 25-03-2010 10:19:01 12.6 C 7.08 g/m*3 12.6 C 0 km/h
1612 25-03-2010 10:31:02 13.1 C 7.3 g/m*3 13.1 C 0 km/h
1613 25-03-2010 10:43:02 14.1 C 7.4 g/m*3 14.1 C 0 km/h
1614 25-03-2010 10:55:01 14.7 C 7.05 g/m*3 14.7 C 0 km/h
1615 25-03-2010 11:07:02 15.7 C 6.69 g/m*3 15.7 C 0 km/h
1616 25-03-2010 11:19:01 16.8 C 6.43 g/m*3 16.8 C 0 km/h
1617 25-03-2010 11:31:02 17.9 C 5.95 g/m*3 17.9 C 0 km/h
1618 25-03-2010 11:43:02 18.5 C 5.85 g/m*3 18.5 C 0 km/h
1619 25-03-2010 11:55:01 18.8 C 5.64 g/m*3 18.8 C 0 km/h
1620 25-03-2010 12:07:02 19.5 C 5.2 g/m*3 19.5 C 0 km/h
1621 25-03-2010 12:19:01 19.3 C 4.64 g/m*3 19.3 C 0 km/h
1622 25-03-2010 12:31:01 20.2 C 4.55 g/m*3 20.2 C 0 km/h
1623 25-03-2010 12:43:01 21 C 4.4 g/m*3 21 C 0 km/h
1624 25-03-2010 12:55:01 21.6 C 4.55 g/m*3 21.6 C 0 km/h
1625 25-03-2010 13:07:02 22 C 4.27 g/m*3 22 C 0 km/h
Sensor: Nr:Datum:Temp:Abs-Feuchte:Windchill:Wind:
Aussen-T/F 1626 25-03-2010 13:19:01 22.2 C 3.93 g/m*3 22.2 C 0 km/h
1627 25-03-2010 13:31:01 22.8 C 4.06 g/m*3 22.8 C 0 km/h
1628 25-03-2010 13:43:01 22.7 C 4.04 g/m*3 22.7 C 0 km/h
1629 25-03-2010 13:55:01 23.2 C 4.16 g/m*3 23.2 C 0 km/h
1630 25-03-2010 14:07:01 22.8 C 4.06 g/m*3 22.8 C 0 km/h
1631 25-03-2010 14:19:02 22.9 C 4.09 g/m*3 22.9 C 0 km/h
1632 25-03-2010 14:31:01 23.3 C 4.18 g/m*3 23.3 C 0 km/h
1633 25-03-2010 14:43:01 23.8 C 4.3 g/m*3 23.8 C 0 km/h
1634 25-03-2010 14:55:01 23.7 C 4.28 g/m*3 23.7 C 0 km/h
1635 25-03-2010 15:07:01 23.2 C 4.16 g/m*3 23.2 C 0 km/h
1636 25-03-2010 15:19:02 22.8 C 4.06 g/m*3 22.8 C 0 km/h
1637 25-03-2010 15:31:01 23.4 C 4.21 g/m*3 23.4 C 0 km/h
1638 25-03-2010 15:43:01 23.6 C 4.25 g/m*3 23.6 C 0 km/h
1639 25-03-2010 15:55:02 23.7 C 4.28 g/m*3 23.7 C 0 km/h
1640 25-03-2010 16:07:01 23.6 C 4.25 g/m*3 23.6 C 0 km/h
1641 25-03-2010 16:19:02 24.1 C 4.38 g/m*3 24.1 C 0 km/h
1642 25-03-2010 16:31:01 23.6 C 4.25 g/m*3 23.6 C 0 km/h
1643 25-03-2010 16:43:01 22.8 C 4.06 g/m*3 22.8 C 0 km/h
1644 25-03-2010 16:55:02 21.9 C 4.44 g/m*3 21.9 C 0 km/h
1645 25-03-2010 17:07:01 21.5 C 4.71 g/m*3 21.5 C 0 km/h
1646 25-03-2010 17:19:01 20.9 C 4.55 g/m*3 20.9 C 0 km/h
1647 25-03-2010 17:31:01 20.7 C 4.68 g/m*3 20.7 C 0 km/h
1648 25-03-2010 17:43:01 20 C 5.01 g/m*3 20 C 0 km/h
1649 25-03-2010 17:55:01 19.5 C 5.37 g/m*3 19.5 C 0 km/h
1650 25-03-2010 18:07:02 19.6 C 5.23 g/m*3 19.6 C 0 km/h
Sensor: Nr:Datum:Temp:Abs-Feuchte:Windchill:Wind:
Aussen-T/F 1651 25-03-2010 18:19:02 19.5 C 5.87 g/m*3 19.5 C 0 km/h
1652 25-03-2010 18:31:01 19.3 C 5.31 g/m*3 19.3 C 0 km/h
1653 25-03-2010 18:43:01 18.7 C 5.6 g/m*3 18.7 C 0 km/h
1654 25-03-2010 18:55:02 18.5 C 5.85 g/m*3 18.5 C 0 km/h
1655 25-03-2010 19:07:01 18.3 C 5.79 g/m*3 18.3 C 0 km/h
1656 25-03-2010 19:19:02 17.8 C 5.62 g/m*3 17.8 C 0 km/h
1657 25-03-2010 19:31:01 17.2 C 5.86 g/m*3 17.2 C 0 km/h
1658 25-03-2010 19:43:01 16.8 C 5.86 g/m*3 16.8 C 0 km/h
1659 25-03-2010 19:55:02 16.4 C 5.72 g/m*3 16.4 C 0 km/h
1660 25-03-2010 20:07:01 16.1 C 5.76 g/m*3 16.1 C 0 km/h
1661 25-03-2010 20:19:01 15.8 C 5.79 g/m*3 15.8 C 0 km/h
1662 25-03-2010 20:31:02 15.4 C 5.91 g/m*3 15.4 C 0 km/h
1663 25-03-2010 20:43:02 15.2 C 5.97 g/m*3 15.2 C 0 km/h
1664 25-03-2010 20:55:02 15 C 5.9 g/m*3 15 C 0 km/h
1665 25-03-2010 21:07:01 14.9 C 5.99 g/m*3 14.9 C 0 km/h
1666 25-03-2010 21:19:01 14.7 C 6.04 g/m*3 14.7 C 0 km/h
1667 25-03-2010 21:31:02 14.5 C 6.09 g/m*3 14.5 C 0 km/h
1668 25-03-2010 21:43:02 14.1 C 6.07 g/m*3 14.1 C 0 km/h
1669 25-03-2010 21:55:01 13.8 C 6.2 g/m*3 13.8 C 0 km/h
1670 25-03-2010 22:07:02 13.6 C 6.24 g/m*3 13.6 C 0 km/h
1671 25-03-2010 22:19:01 13.4 C 6.28 g/m*3 13.4 C 0 km/h
1672 25-03-2010 22:31:01 13.1 C 6.39 g/m*3 13.1 C 0 km/h
1673 25-03-2010 22:43:01 13 C 6.35 g/m*3 13 C 0 km/h
1674 25-03-2010 22:55:01 13 C 6.24 g/m*3 13 C 0 km/h
1675 25-03-2010 23:07:02 13 C 6.46 g/m*3 13 C 0 km/h
Sensor: Nr:Datum:Temp:Abs-Feuchte:Windchill:Wind:
Aussen-T/F 1676 25-03-2010 23:19:01 12.6 C 6.31 g/m*3 12.6 C 0 km/h
1677 25-03-2010 23:31:02 12.7 C 6.57 g/m*3 12.7 C 0 km/h
1678 25-03-2010 23:43:02 12.6 C 6.53 g/m*3 12.6 C 0 km/h
1679 25-03-2010 23:55:01 12.5 C 6.6 g/m*3 12.5 C 0 km/h
1680 26-03-2010 00:07:02 12.5 C 6.71 g/m*3 12.5 C 0 km/h
1681 26-03-2010 00:19:02 12.4 C 6.66 g/m*3 12.4 C 0 km/h
1682 26-03-2010 00:31:01 12.4 C 6.66 g/m*3 12.4 C 0 km/h
1683 26-03-2010 00:43:01 12.2 C 6.58 g/m*3 12.2 C 0 km/h
1684 26-03-2010 00:55:02 12.1 C 6.65 g/m*3 12.1 C 0 km/h
1685 26-03-2010 01:07:01 12.3 C 6.62 g/m*3 12.3 C 0 km/h
1686 26-03-2010 01:19:02 12.2 C 6.58 g/m*3 12.2 C 0 km/h
1687 26-03-2010 01:31:01 12.5 C 6.6 g/m*3 12.5 C 0 km/h
1688 26-03-2010 01:43:01 13 C 6.58 g/m*3 13 C 0 km/h
1689 26-03-2010 01:55:02 13.8 C 6.55 g/m*3 13.8 C 0 km/h
1690 26-03-2010 02:07:01 13.4 C 6.28 g/m*3 13.4 C 0 km/h
1691 26-03-2010 02:19:01 12.7 C 6.46 g/m*3 12.7 C 0 km/h
1692 26-03-2010 02:31:02 12.4 C 6.66 g/m*3 12.4 C 0 km/h
1693 26-03-2010 02:43:02 12.1 C 6.76 g/m*3 12.1 C 0 km/h
1694 26-03-2010 02:56:05 12 C 6.82 g/m*3 12 C 0 km/h
1695 26-03-2010 03:08:06 11.6 C 6.76 g/m*3 11.6 C 0 km/h
1696 26-03-2010 03:20:05 11.6 C 6.86 g/m*3 11.6 C 0 km/h
1697 26-03-2010 03:32:03 11.8 C 6.95 g/m*3 11.8 C 0 km/h
1698 26-03-2010 03:44:03 12 C 6.82 g/m*3 12 C 0 km/h
1699 26-03-2010 03:56:03 12.1 C 6.86 g/m*3 12.1 C 0 km/h
1700 26-03-2010 04:08:02 11.7 C 6.9 g/m*3 11.7 C 0 km/h
Sensor: Nr:Datum:Temp:Abs-Feuchte:Windchill:Wind:
Aussen-T/F 1701 26-03-2010 04:20:02 11.2 C 6.79 g/m*3 11.2 C 0 km/h
1702 26-03-2010 04:32:02 11.2 C 6.99 g/m*3 11.2 C 0 km/h
1703 26-03-2010 04:44:02 11.1 C 6.95 g/m*3 11.1 C 0 km/h
1704 26-03-2010 04:56:02 11.2 C 6.89 g/m*3 11.2 C 0 km/h
1705 26-03-2010 05:08:02 11 C 6.81 g/m*3 11 C 0 km/h
1706 26-03-2010 05:20:02 10.9 C 6.86 g/m*3 10.9 C 0 km/h
1707 26-03-2010 05:32:01 10.7 C 6.88 g/m*3 10.7 C 0 km/h
1708 26-03-2010 05:44:01 10.9 C 6.96 g/m*3 10.9 C 0 km/h
1709 26-03-2010 05:56:02 11 C 7.01 g/m*3 11 C 0 km/h
1710 26-03-2010 06:08:01 10.8 C 6.92 g/m*3 10.8 C 0 km/h
1711 26-03-2010 06:20:02 10.5 C 6.98 g/m*3 10.5 C 0 km/h
1712 26-03-2010 06:32:02 10.2 C 6.85 g/m*3 10.2 C 0 km/h
1713 26-03-2010 06:44:02 10.2 C 6.95 g/m*3 10.2 C 0 km/h
1714 26-03-2010 06:56:02 10.2 C 6.95 g/m*3 10.2 C 0 km/h
1715 26-03-2010 07:08:02 10.3 C 6.99 g/m*3 10.3 C 0 km/h
1716 26-03-2010 07:20:02 10.6 C 7.22 g/m*3 10.6 C 0 km/h
1717 26-03-2010 07:32:02 10.7 C 7.17 g/m*3 10.7 C 0 km/h
1718 26-03-2010 07:44:02 10.8 C 7.22 g/m*3 10.8 C 0 km/h
1719 26-03-2010 07:56:02 11 C 7.11 g/m*3 11 C 0 km/h
1720 26-03-2010 08:08:02 11.5 C 7.23 g/m*3 11.5 C 0 km/h
1721 26-03-2010 08:20:01 11.5 C 7.13 g/m*3 11.5 C 0 km/h
1722 26-03-2010 08:32:02 11.7 C 7.22 g/m*3 11.7 C 0 km/h
1723 26-03-2010 08:44:02 12.3 C 7.28 g/m*3 12.3 C 0 km/h
1724 26-03-2010 08:56:02 12.2 C 7.12 g/m*3 12.2 C 0 km/h
1725 26-03-2010 09:08:02 12.4 C 7.21 g/m*3 12.4 C 0 km/h
Sensor: Nr:Datum:Temp:Abs-Feuchte:Windchill:Wind:
Aussen-T/F 1726 26-03-2010 09:20:02 12.8 C 7.28 g/m*3 12.8 C 0 km/h
1727 26-03-2010 09:32:02 13.2 C 7.23 g/m*3 13.2 C 0 km/h
1728 26-03-2010 09:44:02 13.7 C 7.22 g/m*3 13.7 C 0 km/h
1729 26-03-2010 09:56:02 13.8 C 7.03 g/m*3 13.8 C 0 km/h
1730 26-03-2010 10:08:02 13.8 C 7.15 g/m*3 13.8 C 0 km/h
1731 26-03-2010 10:20:02 13.8 C 7.03 g/m*3 13.8 C 0 km/h
1732 26-03-2010 10:32:02 13.8 C 7.15 g/m*3 13.8 C 0 km/h
1733 26-03-2010 10:44:02 13.6 C 6.83 g/m*3 13.6 C 0 km/h
1734 26-03-2010 10:56:02 13.3 C 6.82 g/m*3 13.3 C 0 km/h
1735 26-03-2010 11:08:02 12.5 C 6.6 g/m*3 12.5 C 0 km/h
1736 26-03-2010 11:20:02 12.2 C 6.58 g/m*3 12.2 C 0 km/h
1737 26-03-2010 11:32:02 11 C 7.01 g/m*3 11 C 0 km/h
1738 26-03-2010 11:44:02 9.9 C 7.28 g/m*3 9.9 C 0 km/h
1739 26-03-2010 11:56:01 9 C 6.96 g/m*3 9 C 0 km/h
1740 26-03-2010 12:08:01 8.5 C 7.17 g/m*3 8.5 C 0 km/h
1741 26-03-2010 12:20:01 8.2 C 7.2 g/m*3 8.2 C 0 km/h
1742 26-03-2010 12:32:01 7.9 C 7.23 g/m*3 7.9 C 0 km/h
1743 26-03-2010 12:44:01 7.5 C 6.96 g/m*3 7.5 C 0 km/h
1744 26-03-2010 12:56:01 7.4 C 7 g/m*3 7.4 C 0 km/h
1745 26-03-2010 13:08:01 7.5 C 7.12 g/m*3 7.5 C 0 km/h
1746 26-03-2010 13:20:02 7.4 C 7.08 g/m*3 7.4 C 0 km/h
1747 26-03-2010 13:32:01 7.5 C 7.2 g/m*3 7.5 C 0 km/h
1748 26-03-2010 13:44:01 7.8 C 7.43 g/m*3 7.8 C 0 km/h
1749 26-03-2010 13:56:02 7.7 C 7.38 g/m*3 7.7 C 0 km/h
1750 26-03-2010 14:08:02 7.5 C 7.28 g/m*3 7.5 C 0 km/h
Sensor: Nr:Datum:Temp:Abs-Feuchte:Windchill:Wind:
Aussen-T/F 1751 26-03-2010 14:20:02 7.4 C 7.16 g/m*3 7.4 C 0 km/h
1752 26-03-2010 14:32:02 7.5 C 7.2 g/m*3 7.5 C 0 km/h
1753 26-03-2010 14:44:02 8.1 C 7.49 g/m*3 8.1 C 0 km/h
1754 26-03-2010 14:56:02 8.2 C 7.54 g/m*3 8.2 C 0 km/h
1755 26-03-2010 15:08:01 8.1 C 7.41 g/m*3 8.1 C 0 km/h
1756 26-03-2010 15:20:01 8.2 C 7.45 g/m*3 8.2 C 0 km/h
1757 26-03-2010 15:32:01 8.1 C 7.32 g/m*3 8.1 C 0 km/h
1758 26-03-2010 15:44:01 8.3 C 7.42 g/m*3 8.3 C 0 km/h
1759 26-03-2010 15:56:02 8.6 C 7.65 g/m*3 8.6 C 0 km/h
1760 26-03-2010 16:08:02 8.7 C 7.7 g/m*3 8.7 C 0 km/h
1761 26-03-2010 16:20:01 8.5 C 7.51 g/m*3 8.5 C 0 km/h
1762 26-03-2010 16:32:01 8.6 C 7.56 g/m*3 8.6 C 0 km/h
1763 26-03-2010 16:44:01 8.5 C 7.51 g/m*3 8.5 C 0 km/h
1764 26-03-2010 16:56:01 8.4 C 7.38 g/m*3 8.4 C 0 km/h
1765 26-03-2010 17:08:02 8.6 C 7.3 g/m*3 8.6 C 0 km/h
1766 26-03-2010 17:20:02 8.6 C 7.22 g/m*3 8.6 C 0 km/h
1767 26-03-2010 17:32:02 8.6 C 7.22 g/m*3 8.6 C 0 km/h
1768 26-03-2010 17:44:02 8.6 C 7.22 g/m*3 8.6 C 0 km/h
1769 26-03-2010 17:56:01 8.6 C 7.22 g/m*3 8.6 C 0 km/h
1770 26-03-2010 18:08:02 8.5 C 7.17 g/m*3 8.5 C 0 km/h
1771 26-03-2010 18:20:02 8.8 C 7.22 g/m*3 8.8 C 0 km/h
1772 26-03-2010 18:32:01 8.7 C 7.01 g/m*3 8.7 C 0 km/h
1773 26-03-2010 18:44:01 8.6 C 6.87 g/m*3 8.6 C 0 km/h
1774 26-03-2010 18:56:02 8.6 C 6.96 g/m*3 8.6 C 0 km/h
1775 26-03-2010 19:08:01 8.4 C 6.96 g/m*3 8.4 C 0 km/h
Sensor: Nr:Datum:Temp:Abs-Feuchte:Windchill:Wind:
Aussen-T/F 1776 26-03-2010 19:20:02 8.4 C 7.04 g/m*3 8.4 C 0 km/h
1777 26-03-2010 19:32:01 8.5 C 7.09 g/m*3 8.5 C 0 km/h
1778 26-03-2010 19:44:01 8.4 C 7.04 g/m*3 8.4 C 0 km/h
1779 26-03-2010 19:56:01 8.4 C 7.13 g/m*3 8.4 C 0 km/h
1780 26-03-2010 20:08:01 8.5 C 7.09 g/m*3 8.5 C 0 km/h
1781 26-03-2010 20:20:01 8.7 C 7.09 g/m*3 8.7 C 0 km/h
1782 26-03-2010 20:32:02 8.7 C 6.92 g/m*3 8.7 C 0 km/h
1783 26-03-2010 20:44:02 8.6 C 6.7 g/m*3 8.6 C 0 km/h
1784 26-03-2010 20:56:02 8.4 C 6.53 g/m*3 8.4 C 0 km/h
1785 26-03-2010 21:08:02 8.3 C 6.41 g/m*3 8.3 C 0 km/h
1786 26-03-2010 21:20:01 8.5 C 6.15 g/m*3 8.5 C 0 km/h
1787 26-03-2010 21:33:02 8.5 C 6.15 g/m*3 8.5 C 0 km/h
1788 26-03-2010 21:45:03 8.3 C 6.15 g/m*3 8.3 C 0 km/h
1789 26-03-2010 21:57:03 8.4 C 6.19 g/m*3 8.4 C 0 km/h
1790 26-03-2010 22:09:03 8.3 C 6.32 g/m*3 8.3 C 0 km/h
1791 26-03-2010 22:21:03 8.3 C 6.32 g/m*3 8.3 C 0 km/h
1792 26-03-2010 22:33:03 8.2 C 6.36 g/m*3 8.2 C 0 km/h
1793 26-03-2010 22:45:03 8.1 C 6.41 g/m*3 8.1 C 0 km/h
1794 26-03-2010 22:57:03 7.8 C 6.37 g/m*3 7.8 C 0 km/h
1795 26-03-2010 23:09:03 7.7 C 6.49 g/m*3 7.7 C 0 km/h
1796 26-03-2010 23:21:03 7.8 C 6.53 g/m*3 7.8 C 0 km/h
1797 26-03-2010 23:33:03 7.8 C 6.45 g/m*3 7.8 C 0 km/h
1798 26-03-2010 23:45:03 7.6 C 6.44 g/m*3 7.6 C 0 km/h
1799 26-03-2010 23:57:03 7.7 C 6.49 g/m*3 7.7 C 0 km/h
1800 27-03-2010 00:09:03 7.7 C 6.41 g/m*3 7.7 C 0 km/h
Sensor: Nr:Datum:Temp:Abs-Feuchte:Windchill:Wind:
Aussen-T/F 1801 27-03-2010 00:21:03 7.9 C 6.49 g/m*3 7.9 C 0 km/h
1802 27-03-2010 00:33:03 7.9 C 6.49 g/m*3 7.9 C 0 km/h
1803 27-03-2010 00:45:03 8 C 6.45 g/m*3 8 C 0 km/h
1804 27-03-2010 00:57:03 8.2 C 6.45 g/m*3 8.2 C 0 km/h
1805 27-03-2010 01:09:03 8.4 C 6.45 g/m*3 8.4 C 0 km/h
1806 27-03-2010 01:21:03 8.4 C 6.36 g/m*3 8.4 C 0 km/h
1807 27-03-2010 01:33:03 8.5 C 6.4 g/m*3 8.5 C 0 km/h
1808 27-03-2010 01:45:03 8.5 C 6.23 g/m*3 8.5 C 0 km/h
1809 27-03-2010 01:57:03 8.5 C 6.23 g/m*3 8.5 C 0 km/h
1810 27-03-2010 02:09:03 8.5 C 6.06 g/m*3 8.5 C 0 km/h
1811 27-03-2010 02:21:04 8.2 C 6.11 g/m*3 8.2 C 0 km/h
1812 27-03-2010 02:33:04 8.1 C 5.99 g/m*3 8.1 C 0 km/h
1813 27-03-2010 02:45:04 8 C 6.04 g/m*3 8 C 0 km/h
1814 27-03-2010 02:57:04 8.3 C 6.15 g/m*3 8.3 C 0 km/h
1815 27-03-2010 03:09:04 8.4 C 6.19 g/m*3 8.4 C 0 km/h
1816 27-03-2010 03:21:04 8.1 C 6.07 g/m*3 8.1 C 0 km/h
1817 27-03-2010 03:33:04 7.9 C 6.16 g/m*3 7.9 C 0 km/h
1818 27-03-2010 03:45:04 8 C 6.2 g/m*3 8 C 0 km/h
1819 27-03-2010 03:57:04 8.1 C 6.07 g/m*3 8.1 C 0 km/h
1820 27-03-2010 04:09:04 8.1 C 6.07 g/m*3 8.1 C 0 km/h
1821 27-03-2010 04:21:04 8.2 C 6.03 g/m*3 8.2 C 0 km/h
1822 27-03-2010 04:33:04 8.2 C 6.03 g/m*3 8.2 C 0 km/h
1823 27-03-2010 04:45:04 8.2 C 5.95 g/m*3 8.2 C 0 km/h
1824 27-03-2010 04:57:04 8.2 C 5.95 g/m*3 8.2 C 0 km/h
1825 27-03-2010 05:09:05 8.1 C 5.91 g/m*3 8.1 C 0 km/h
Sensor: Nr:Datum:Temp:Abs-Feuchte:Windchill:Wind:
Aussen-T/F 1826 27-03-2010 05:21:05 8.1 C 5.99 g/m*3 8.1 C 0 km/h
1827 27-03-2010 05:33:05 8.1 C 5.99 g/m*3 8.1 C 0 km/h
1828 27-03-2010 05:45:05 8 C 5.95 g/m*3 8 C 0 km/h
1829 27-03-2010 05:57:05 8 C 5.87 g/m*3 8 C 0 km/h
1830 27-03-2010 06:09:05 8 C 5.79 g/m*3 8 C 0 km/h
1831 27-03-2010 06:21:05 8 C 5.7 g/m*3 8 C 0 km/h
1832 27-03-2010 06:33:02 8.1 C 5.74 g/m*3 8.1 C 0 km/h
1833 27-03-2010 06:45:02 8.1 C 5.74 g/m*3 8.1 C 0 km/h
1834 27-03-2010 06:57:02 8.2 C 5.69 g/m*3 8.2 C 0 km/h
1835 27-03-2010 07:09:01 8.3 C 5.65 g/m*3 8.3 C 0 km/h
1836 27-03-2010 07:21:02 8.4 C 5.68 g/m*3 8.4 C 0 km/h
1837 27-03-2010 07:33:02 8.5 C 5.72 g/m*3 8.5 C 0 km/h
1838 27-03-2010 07:45:02 8.5 C 5.64 g/m*3 8.5 C 0 km/h
1839 27-03-2010 07:57:02 8.5 C 5.72 g/m*3 8.5 C 0 km/h
1840 27-03-2010 08:09:02 8.5 C 5.72 g/m*3 8.5 C 0 km/h
1841 27-03-2010 08:21:02 8.7 C 5.79 g/m*3 8.7 C 0 km/h
1842 27-03-2010 08:33:02 8.9 C 5.69 g/m*3 8.9 C 0 km/h
1843 27-03-2010 08:45:01 9.3 C 5.75 g/m*3 9.3 C 0 km/h
1844 27-03-2010 08:57:01 9.6 C 5.68 g/m*3 9.6 C 0 km/h
1845 27-03-2010 09:09:02 10 C 5.54 g/m*3 10 C 0 km/h
1846 27-03-2010 09:21:01 9.8 C 5.57 g/m*3 9.8 C 0 km/h
1847 27-03-2010 09:33:02 9.5 C 5.55 g/m*3 9.5 C 0 km/h
1848 27-03-2010 09:45:02 9.7 C 5.62 g/m*3 9.7 C 0 km/h
1849 27-03-2010 09:57:02 9.7 C 5.72 g/m*3 9.7 C 0 km/h
1850 27-03-2010 10:09:02 9.7 C 5.62 g/m*3 9.7 C 0 km/h
Sensor: Nr:Datum:Temp:Abs-Feuchte:Windchill:Wind:
Aussen-T/F 1851 27-03-2010 10:21:02 9.8 C 5.66 g/m*3 9.8 C 0 km/h
1852 27-03-2010 10:33:02 10.1 C 5.2 g/m*3 10.1 C 0 km/h
1853 27-03-2010 10:45:01 10.6 C 5.17 g/m*3 10.6 C 0 km/h
1854 27-03-2010 10:57:01 11.1 C 5.14 g/m*3 11.1 C 0 km/h
1855 27-03-2010 11:09:02 11.5 C 4.96 g/m*3 11.5 C 0 km/h
1856 27-03-2010 11:21:01 11.3 C 4.79 g/m*3 11.3 C 0 km/h
1857 27-03-2010 11:33:02 11.3 C 5 g/m*3 11.3 C 0 km/h
1858 27-03-2010 11:45:02 11.7 C 4.92 g/m*3 11.7 C 0 km/h
1859 27-03-2010 11:57:02 11.8 C 4.95 g/m*3 11.8 C 0 km/h
1860 27-03-2010 12:09:02 11.9 C 4.87 g/m*3 11.9 C 0 km/h
1861 27-03-2010 12:21:01 11.8 C 4.74 g/m*3 11.8 C 0 km/h
1862 27-03-2010 12:33:02 11.9 C 4.98 g/m*3 11.9 C 0 km/h
1863 27-03-2010 12:45:03 11.6 C 5.3 g/m*3 11.6 C 0 km/h
1864 27-03-2010 12:57:03 10.8 C 5.73 g/m*3 10.8 C 0 km/h
1865 27-03-2010 13:09:02 10.7 C 5.89 g/m*3 10.7 C 0 km/h
1866 27-03-2010 13:21:02 11.4 C 5.85 g/m*3 11.4 C 0 km/h
1867 27-03-2010 13:33:02 11.3 C 5.61 g/m*3 11.3 C 0 km/h
1868 27-03-2010 13:45:02 11.4 C 5.34 g/m*3 11.4 C 0 km/h
1869 27-03-2010 13:57:02 12 C 5.12 g/m*3 12 C 0 km/h
1870 27-03-2010 14:09:02 11.8 C 5.16 g/m*3 11.8 C 0 km/h
1871 27-03-2010 14:21:02 11.2 C 4.97 g/m*3 11.2 C 0 km/h
1872 27-03-2010 14:33:01 11.1 C 5.04 g/m*3 11.1 C 0 km/h
1873 27-03-2010 14:45:02 10.9 C 5.07 g/m*3 10.9 C 0 km/h
1874 27-03-2010 14:57:03 11 C 5 g/m*3 11 C 0 km/h
1875 27-03-2010 15:09:01 11.2 C 4.97 g/m*3 11.2 C 0 km/h
Sensor: Nr:Datum:Temp:Abs-Feuchte:Windchill:Wind:
Aussen-T/F 1876 27-03-2010 15:21:01 11.2 C 4.87 g/m*3 11.2 C 0 km/h
1877 27-03-2010 15:33:02 11.8 C 4.95 g/m*3 11.8 C 0 km/h
1878 27-03-2010 15:45:02 12.5 C 4.84 g/m*3 12.5 C 0 km/h
1879 27-03-2010 15:57:02 12.1 C 4.72 g/m*3 12.1 C 0 km/h
1880 27-03-2010 16:09:02 11.2 C 4.87 g/m*3 11.2 C 0 km/h
1881 27-03-2010 16:21:02 10.8 C 5.04 g/m*3 10.8 C 0 km/h
1882 27-03-2010 16:33:02 10.8 C 5.04 g/m*3 10.8 C 0 km/h
1883 27-03-2010 16:45:02 10.7 C 5.11 g/m*3 10.7 C 0 km/h
1884 27-03-2010 16:57:02 10.7 C 5.11 g/m*3 10.7 C 0 km/h
1885 27-03-2010 17:09:03 11 C 5.1 g/m*3 11 C 0 km/h
1886 27-03-2010 17:21:02 11.6 C 5.09 g/m*3 11.6 C 0 km/h
1887 27-03-2010 17:33:02 11.2 C 5.17 g/m*3 11.2 C 0 km/h
1888 27-03-2010 17:45:01 11.3 C 5.2 g/m*3 11.3 C 0 km/h
1889 27-03-2010 17:57:01 11.8 C 5.05 g/m*3 11.8 C 0 km/h
1890 27-03-2010 18:09:02 11.4 C 5.13 g/m*3 11.4 C 0 km/h
1891 27-03-2010 18:21:01 11.4 C 5.13 g/m*3 11.4 C 0 km/h
1892 27-03-2010 18:33:01 11.3 C 5 g/m*3 11.3 C 0 km/h
1893 27-03-2010 18:45:01 10.5 C 5.14 g/m*3 10.5 C 0 km/h
1894 27-03-2010 18:57:01 10 C 5.17 g/m*3 10 C 0 km/h
1895 27-03-2010 19:09:01 9.5 C 5.19 g/m*3 9.5 C 0 km/h
1896 27-03-2010 19:21:02 9.2 C 5.27 g/m*3 9.2 C 0 km/h
1897 27-03-2010 19:33:01 8.9 C 5.34 g/m*3 8.9 C 0 km/h
1898 27-03-2010 19:45:02 8.7 C 5.45 g/m*3 8.7 C 0 km/h
1899 27-03-2010 19:57:02 8.5 C 5.55 g/m*3 8.5 C 0 km/h
1900 27-03-2010 20:09:02 8.3 C 5.56 g/m*3 8.3 C 0 km/h
Sensor: Nr:Datum:Temp:Abs-Feuchte:Windchill:Wind:
Aussen-T/F 1901 27-03-2010 20:21:02 8.2 C 5.61 g/m*3 8.2 C 0 km/h
1902 27-03-2010 20:33:01 7.9 C 5.67 g/m*3 7.9 C 0 km/h
1903 27-03-2010 20:45:02 7.7 C 5.76 g/m*3 7.7 C 0 km/h
1904 27-03-2010 20:57:02 7.5 C 5.76 g/m*3 7.5 C 0 km/h
1905 27-03-2010 21:09:01 7.4 C 5.81 g/m*3 7.4 C 0 km/h
1906 27-03-2010 21:21:01 7.4 C 5.96 g/m*3 7.4 C 0 km/h
1907 27-03-2010 21:33:02 7.2 C 5.97 g/m*3 7.2 C 0 km/h
1908 27-03-2010 21:45:02 7.2 C 6.04 g/m*3 7.2 C 0 km/h
1909 27-03-2010 21:57:02 7.1 C 6.08 g/m*3 7.1 C 0 km/h
1910 27-03-2010 22:09:02 7.2 C 6.12 g/m*3 7.2 C 0 km/h
1911 27-03-2010 22:21:02 7.1 C 6.16 g/m*3 7.1 C 0 km/h
1912 27-03-2010 22:33:02 7.2 C 6.2 g/m*3 7.2 C 0 km/h
1913 27-03-2010 22:45:02 7.4 C 6.28 g/m*3 7.4 C 0 km/h
1914 27-03-2010 22:57:02 7.4 C 6.2 g/m*3 7.4 C 0 km/h
1915 27-03-2010 23:09:03 7.7 C 6.16 g/m*3 7.7 C 0 km/h
1916 27-03-2010 23:21:02 7.8 C 6.04 g/m*3 7.8 C 0 km/h
1917 27-03-2010 23:33:03 8 C 5.87 g/m*3 8 C 0 km/h
1918 27-03-2010 23:45:02 7.7 C 6 g/m*3 7.7 C 0 km/h
1919 27-03-2010 23:57:02 7.7 C 6 g/m*3 7.7 C 0 km/h
1920 28-03-2010 00:09:02 7.7 C 6 g/m*3 7.7 C 0 km/h
1921 28-03-2010 00:21:02 7.4 C 5.96 g/m*3 7.4 C 0 km/h
1922 28-03-2010 00:33:02 7.5 C 6.08 g/m*3 7.5 C 0 km/h
1923 28-03-2010 00:45:02 7.7 C 6.08 g/m*3 7.7 C 0 km/h
1924 28-03-2010 00:57:02 7.7 C 6.08 g/m*3 7.7 C 0 km/h
1925 28-03-2010 01:09:02 7.9 C 6.08 g/m*3 7.9 C 0 km/h
Sensor: Nr:Datum:Temp:Abs-Feuchte:Windchill:Wind:
Aussen-T/F 1926 28-03-2010 01:21:02 8.2 C 5.95 g/m*3 8.2 C 0 km/h
1927 28-03-2010 01:33:01 8.4 C 5.85 g/m*3 8.4 C 0 km/h
1928 28-03-2010 01:45:02 8.4 C 5.85 g/m*3 8.4 C 0 km/h
1929 28-03-2010 01:57:02 8.1 C 5.82 g/m*3 8.1 C 0 km/h
1930 28-03-2010 02:09:01 7.9 C 5.91 g/m*3 7.9 C 0 km/h
1931 28-03-2010 02:21:02 8.1 C 5.99 g/m*3 8.1 C 0 km/h
1932 28-03-2010 02:33:01 8.4 C 6.02 g/m*3 8.4 C 0 km/h
1933 28-03-2010 02:45:01 8.3 C 5.9 g/m*3 8.3 C 0 km/h
1934 28-03-2010 02:57:01 8.2 C 5.95 g/m*3 8.2 C 0 km/h
1935 28-03-2010 04:09:02 8.2 C 6.03 g/m*3 8.2 C 0 km/h
1936 28-03-2010 04:21:01 8.1 C 5.99 g/m*3 8.1 C 0 km/h
1937 28-03-2010 04:33:01 8.2 C 6.11 g/m*3 8.2 C 0 km/h
1938 28-03-2010 04:45:01 8.2 C 6.11 g/m*3 8.2 C 0 km/h
1939 28-03-2010 04:57:01 8.2 C 6.11 g/m*3 8.2 C 0 km/h
1940 28-03-2010 05:09:01 8.2 C 6.03 g/m*3 8.2 C 0 km/h
1941 28-03-2010 05:21:02 8.2 C 6.11 g/m*3 8.2 C 0 km/h
1942 28-03-2010 05:33:01 8.1 C 6.24 g/m*3 8.1 C 0 km/h
1943 28-03-2010 05:45:01 8.1 C 6.32 g/m*3 8.1 C 0 km/h
1944 28-03-2010 05:57:01 8.1 C 6.32 g/m*3 8.1 C 0 km/h
1945 28-03-2010 06:09:01 8.2 C 6.28 g/m*3 8.2 C 0 km/h
1946 28-03-2010 06:21:02 8.4 C 6.36 g/m*3 8.4 C 0 km/h
1947 28-03-2010 06:33:01 8.4 C 6.28 g/m*3 8.4 C 0 km/h
1948 28-03-2010 06:45:02 8.4 C 6.36 g/m*3 8.4 C 0 km/h
1949 28-03-2010 06:57:02 8.3 C 6.32 g/m*3 8.3 C 0 km/h
1950 28-03-2010 07:09:01 8.2 C 6.28 g/m*3 8.2 C 0 km/h
Sensor: Nr:Datum:Temp:Abs-Feuchte:Windchill:Wind:
Aussen-T/F 1951 28-03-2010 07:21:01 8.2 C 6.28 g/m*3 8.2 C 0 km/h
1952 28-03-2010 07:33:01 8.2 C 6.11 g/m*3 8.2 C 0 km/h
1953 28-03-2010 07:45:01 8.2 C 6.11 g/m*3 8.2 C 0 km/h
1954 28-03-2010 07:57:02 8.3 C 6.15 g/m*3 8.3 C 0 km/h
1955 28-03-2010 08:09:01 8.6 C 6.27 g/m*3 8.6 C 0 km/h
1956 28-03-2010 08:21:01 8.7 C 6.23 g/m*3 8.7 C 0 km/h
1957 28-03-2010 08:33:02 8.9 C 6.22 g/m*3 8.9 C 0 km/h
1958 28-03-2010 08:45:01 9 C 6.08 g/m*3 9 C 0 km/h
1959 28-03-2010 08:57:01 9.1 C 6.03 g/m*3 9.1 C 0 km/h
1960 28-03-2010 09:09:02 9.1 C 5.94 g/m*3 9.1 C 0 km/h
1961 28-03-2010 09:21:01 9.2 C 5.98 g/m*3 9.2 C 0 km/h
1962 28-03-2010 09:33:02 9.8 C 5.94 g/m*3 9.8 C 0 km/h
1963 28-03-2010 09:45:01 10.2 C 5.9 g/m*3 10.2 C 0 km/h
1964 28-03-2010 09:57:01 10.4 C 5.88 g/m*3 10.4 C 0 km/h
1965 28-03-2010 10:09:02 10.2 C 5.71 g/m*3 10.2 C 0 km/h
1966 28-03-2010 10:21:01 10.1 C 5.77 g/m*3 10.1 C 0 km/h
1967 28-03-2010 10:33:01 10.5 C 5.82 g/m*3 10.5 C 0 km/h
1968 28-03-2010 10:45:01 10.7 C 5.8 g/m*3 10.7 C 0 km/h
1969 28-03-2010 10:57:01 10.7 C 5.8 g/m*3 10.7 C 0 km/h
1970 28-03-2010 11:09:01 11.2 C 5.47 g/m*3 11.2 C 0 km/h
1971 28-03-2010 11:21:01 10.9 C 5.37 g/m*3 10.9 C 0 km/h
1972 28-03-2010 11:33:01 10.9 C 5.57 g/m*3 10.9 C 0 km/h
1973 28-03-2010 11:45:01 11.7 C 5.54 g/m*3 11.7 C 0 km/h
1974 28-03-2010 11:57:01 11.3 C 5.41 g/m*3 11.3 C 0 km/h
1975 28-03-2010 12:09:01 11 C 5.31 g/m*3 11 C 0 km/h
Sensor: Nr:Datum:Temp:Abs-Feuchte:Windchill:Wind:
Aussen-T/F 1976 28-03-2010 12:21:02 10.8 C 5.63 g/m*3 10.8 C 0 km/h
1977 28-03-2010 12:33:01 11.8 C 5.79 g/m*3 11.8 C 0 km/h
1978 28-03-2010 12:45:02 12 C 5.44 g/m*3 12 C 0 km/h
1979 28-03-2010 12:57:02 11.6 C 5.4 g/m*3 11.6 C 0 km/h
1980 28-03-2010 13:09:01 11.6 C 5.51 g/m*3 11.6 C 0 km/h
1981 28-03-2010 13:21:02 12.3 C 5.21 g/m*3 12.3 C 0 km/h
1982 28-03-2010 13:33:01 11.9 C 5.3 g/m*3 11.9 C 0 km/h
1983 28-03-2010 13:45:02 11.7 C 5.23 g/m*3 11.7 C 0 km/h
1984 28-03-2010 13:57:02 11.5 C 5.37 g/m*3 11.5 C 0 km/h
1985 28-03-2010 14:09:01 11.7 C 5.44 g/m*3 11.7 C 0 km/h
1986 28-03-2010 14:21:01 12 C 5.22 g/m*3 12 C 0 km/h
1987 28-03-2010 14:33:02 11.9 C 5.3 g/m*3 11.9 C 0 km/h
1988 28-03-2010 14:45:01 10.2 C 6.19 g/m*3 10.2 C 0 km/h
1989 28-03-2010 14:57:01 9.3 C 6.47 g/m*3 9.3 C 0 km/h
1990 28-03-2010 15:09:01 10.1 C 6.81 g/m*3 10.1 C 0 km/h
1991 28-03-2010 15:21:01 11.3 C 6.43 g/m*3 11.3 C 0 km/h
1992 28-03-2010 15:33:02 11.7 C 6.48 g/m*3 11.7 C 0 km/h
1993 28-03-2010 15:45:01 13.1 C 6.5 g/m*3 13.1 C 0 km/h
1994 28-03-2010 15:57:01 13.7 C 6.16 g/m*3 13.7 C 0 km/h
1995 28-03-2010 16:09:02 13.7 C 5.68 g/m*3 13.7 C 0 km/h
1996 28-03-2010 16:21:01 13.4 C 4.88 g/m*3 13.4 C 0 km/h
1997 28-03-2010 16:33:01 13.1 C 4.91 g/m*3 13.1 C 0 km/h
1998 28-03-2010 16:45:01 12.6 C 5.09 g/m*3 12.6 C 0 km/h
1999 28-03-2010 16:57:01 11 C 6.51 g/m*3 11 C 0 km/h
2000 28-03-2010 17:09:02 11.1 C 7.15 g/m*3 11.1 C 0 km/h
Sensor: Nr:Datum:Temp:Abs-Feuchte:Windchill:Wind:
Aussen-T/F 2001 28-03-2010 17:21:01 11.4 C 6.88 g/m*3 11.4 C 0 km/h
2002 28-03-2010 17:33:01 11.6 C 6.86 g/m*3 11.6 C 0 km/h
2003 28-03-2010 17:45:01 11.7 C 7.01 g/m*3 11.7 C 0 km/h
2004 28-03-2010 17:57:01 11.7 C 6.07 g/m*3 11.7 C 0 km/h
2005 28-03-2010 18:09:01 11.6 C 6.03 g/m*3 11.6 C 0 km/h
2006 28-03-2010 18:21:02 11.5 C 5.78 g/m*3 11.5 C 0 km/h
2007 28-03-2010 18:33:01 11.4 C 5.85 g/m*3 11.4 C 0 km/h
2008 28-03-2010 18:45:01 11.3 C 5.92 g/m*3 11.3 C 0 km/h
2009 28-03-2010 18:57:01 11.3 C 6.12 g/m*3 11.3 C 0 km/h
2010 28-03-2010 19:09:01 11.2 C 6.08 g/m*3 11.2 C 0 km/h
2011 28-03-2010 19:21:02 11.1 C 6.25 g/m*3 11.1 C 0 km/h
2012 28-03-2010 19:33:01 10.9 C 6.37 g/m*3 10.9 C 0 km/h
2013 28-03-2010 19:45:02 10.3 C 6.61 g/m*3 10.3 C 0 km/h
2014 28-03-2010 19:57:02 10 C 6.77 g/m*3 10 C 0 km/h
2015 28-03-2010 20:09:01 9.9 C 6.91 g/m*3 9.9 C 0 km/h
2016 28-03-2010 20:21:01 9.8 C 6.96 g/m*3 9.8 C 0 km/h
2017 28-03-2010 20:33:01 9.8 C 6.96 g/m*3 9.8 C 0 km/h
2018 28-03-2010 20:45:01 9.9 C 6.91 g/m*3 9.9 C 0 km/h
2019 28-03-2010 20:57:02 9.9 C 6.91 g/m*3 9.9 C 0 km/h
2020 28-03-2010 21:09:01 9.9 C 6.91 g/m*3 9.9 C 0 km/h
2021 28-03-2010 21:21:01 9.9 C 6.82 g/m*3 9.9 C 0 km/h
2022 28-03-2010 21:33:02 9.9 C 6.82 g/m*3 9.9 C 0 km/h
2023 28-03-2010 21:45:01 9.8 C 6.87 g/m*3 9.8 C 0 km/h
2024 28-03-2010 21:57:01 9.8 C 6.87 g/m*3 9.8 C 0 km/h
2025 28-03-2010 22:10:04 9.7 C 6.91 g/m*3 9.7 C 0 km/h
Sensor: Nr:Datum:Temp:Abs-Feuchte:Windchill:Wind:
Aussen-T/F 2026 28-03-2010 22:22:04 9.6 C 6.78 g/m*3 9.6 C 0 km/h
2027 28-03-2010 22:34:04 9.5 C 6.74 g/m*3 9.5 C 0 km/h
2028 28-03-2010 22:46:04 9.4 C 6.87 g/m*3 9.4 C 0 km/h
2029 28-03-2010 22:58:04 9.4 C 6.87 g/m*3 9.4 C 0 km/h
2030 28-03-2010 23:10:04 9.5 C 6.92 g/m*3 9.5 C 0 km/h
2031 28-03-2010 23:22:04 9.3 C 6.83 g/m*3 9.3 C 0 km/h
2032 28-03-2010 23:34:04 9.4 C 6.96 g/m*3 9.4 C 0 km/h
2033 28-03-2010 23:46:04 9.7 C 6.91 g/m*3 9.7 C 0 km/h
2034 28-03-2010 23:58:04 9.8 C 6.87 g/m*3 9.8 C 0 km/h
2035 29-03-2010 00:10:04 10 C 6.86 g/m*3 10 C 0 km/h
2036 29-03-2010 00:22:04 10 C 6.77 g/m*3 10 C 0 km/h
2037 29-03-2010 00:34:04 9.8 C 6.87 g/m*3 9.8 C 0 km/h
2038 29-03-2010 00:46:04 9.8 C 6.87 g/m*3 9.8 C 0 km/h
2039 29-03-2010 00:58:04 9.8 C 6.87 g/m*3 9.8 C 0 km/h
2040 29-03-2010 01:10:04 9.8 C 7.05 g/m*3 9.8 C 0 km/h
2041 29-03-2010 01:22:04 9.7 C 7.1 g/m*3 9.7 C 0 km/h
2042 29-03-2010 01:34:04 9.6 C 7.15 g/m*3 9.6 C 0 km/h
2043 29-03-2010 01:46:05 9.6 C 7.15 g/m*3 9.6 C 0 km/h
2044 29-03-2010 01:58:05 9.6 C 7.24 g/m*3 9.6 C 0 km/h
2045 29-03-2010 02:10:05 9.5 C 7.28 g/m*3 9.5 C 0 km/h
2046 29-03-2010 02:22:05 9.3 C 7.28 g/m*3 9.3 C 0 km/h
2047 29-03-2010 02:34:05 9.3 C 7.46 g/m*3 9.3 C 0 km/h
2048 29-03-2010 02:46:05 9.3 C 7.55 g/m*3 9.3 C 0 km/h
2049 29-03-2010 02:58:05 9.3 C 7.64 g/m*3 9.3 C 0 km/h
2050 29-03-2010 03:10:05 9.3 C 7.73 g/m*3 9.3 C 0 km/h
Sensor: Nr:Datum:Temp:Abs-Feuchte:Windchill:Wind:
Aussen-T/F 2051 29-03-2010 03:22:05 9.4 C 7.87 g/m*3 9.4 C 0 km/h
2052 29-03-2010 03:34:05 10 C 7.99 g/m*3 10 C 0 km/h
2053 29-03-2010 03:46:05 10.4 C 8.1 g/m*3 10.4 C 0 km/h
2054 29-03-2010 03:58:05 10.6 C 8 g/m*3 10.6 C 0 km/h
2055 29-03-2010 04:10:05 11 C 8.01 g/m*3 11 C 0 km/h
2056 29-03-2010 04:22:05 11.1 C 7.96 g/m*3 11.1 C 0 km/h
2057 29-03-2010 04:34:05 11.3 C 7.96 g/m*3 11.3 C 0 km/h
2058 29-03-2010 04:46:05 11.5 C 7.95 g/m*3 11.5 C 0 km/h
2059 29-03-2010 04:58:05 11.5 C 7.95 g/m*3 11.5 C 0 km/h
2060 29-03-2010 05:10:05 11.5 C 7.95 g/m*3 11.5 C 0 km/h
2061 29-03-2010 05:22:05 11.5 C 7.95 g/m*3 11.5 C 0 km/h
2062 29-03-2010 05:34:05 11.5 C 8.06 g/m*3 11.5 C 0 km/h
2063 29-03-2010 05:46:05 11.4 C 8.01 g/m*3 11.4 C 0 km/h
2064 29-03-2010 05:58:05 11.5 C 8.06 g/m*3 11.5 C 0 km/h
2065 29-03-2010 06:10:05 11.5 C 8.06 g/m*3 11.5 C 0 km/h
2066 29-03-2010 06:22:06 11.5 C 8.06 g/m*3 11.5 C 0 km/h
2067 29-03-2010 06:34:06 11.5 C 7.95 g/m*3 11.5 C 0 km/h
2068 29-03-2010 06:46:01 11.4 C 7.9 g/m*3 11.4 C 0 km/h
2069 29-03-2010 06:58:01 11.4 C 8.11 g/m*3 11.4 C 0 km/h
2070 29-03-2010 07:10:02 11.2 C 8.11 g/m*3 11.2 C 0 km/h
2071 29-03-2010 07:22:02 10.9 C 8.26 g/m*3 10.9 C 0 km/h
2072 29-03-2010 07:34:02 10.7 C 8.35 g/m*3 10.7 C 0 km/h
2073 29-03-2010 07:46:02 10.6 C 8.49 g/m*3 10.6 C 0 km/h
2074 29-03-2010 07:58:02 10.6 C 8.59 g/m*3 10.6 C 0 km/h
2075 29-03-2010 08:10:02 10.7 C 8.55 g/m*3 10.7 C 0 km/h
Sensor: Nr:Datum:Temp:Abs-Feuchte:Windchill:Wind:
Aussen-T/F 2076 29-03-2010 08:22:01 10.8 C 8.5 g/m*3 10.8 C 0 km/h
2077 29-03-2010 08:34:02 11.2 C 8.41 g/m*3 11.2 C 0 km/h
2078 29-03-2010 08:46:02 11.4 C 8.11 g/m*3 11.4 C 0 km/h
2079 29-03-2010 08:58:02 11.6 C 8 g/m*3 11.6 C 0 km/h
2080 29-03-2010 09:10:02 11.8 C 7.89 g/m*3 11.8 C 0 km/h
2081 29-03-2010 09:22:01 11.9 C 7.84 g/m*3 11.9 C 0 km/h
2082 29-03-2010 09:34:02 12 C 7.78 g/m*3 12 C 0 km/h
2083 29-03-2010 09:46:01 12.1 C 7.72 g/m*3 12.1 C 0 km/h
2084 29-03-2010 09:58:01 12.2 C 7.77 g/m*3 12.2 C 0 km/h
2085 29-03-2010 10:10:02 12.4 C 7.87 g/m*3 12.4 C 0 km/h
2086 29-03-2010 10:22:02 12.6 C 7.85 g/m*3 12.6 C 0 km/h
2087 29-03-2010 10:34:02 12.7 C 7.9 g/m*3 12.7 C 0 km/h
2088 29-03-2010 10:46:02 12.5 C 7.7 g/m*3 12.5 C 0 km/h
2089 29-03-2010 10:58:02 13 C 7.83 g/m*3 13 C 0 km/h
2090 29-03-2010 11:10:02 13.1 C 7.87 g/m*3 13.1 C 0 km/h
2091 29-03-2010 11:22:02 13.3 C 7.86 g/m*3 13.3 C 0 km/h
2092 29-03-2010 11:34:01 13.5 C 7.84 g/m*3 13.5 C 0 km/h
2093 29-03-2010 11:46:02 13.9 C 7.91 g/m*3 13.9 C 0 km/h
2094 29-03-2010 11:58:02 14 C 7.72 g/m*3 14 C 0 km/h
2095 29-03-2010 12:10:01 14.4 C 7.66 g/m*3 14.4 C 0 km/h
2096 29-03-2010 12:22:02 15 C 7.57 g/m*3 15 C 0 km/h
2097 29-03-2010 12:34:01 15.3 C 7.44 g/m*3 15.3 C 0 km/h
2098 29-03-2010 12:46:02 14.9 C 7.52 g/m*3 14.9 C 0 km/h
2099 29-03-2010 12:58:02 14.9 C 7.39 g/m*3 14.9 C 0 km/h
2100 29-03-2010 13:10:02 15.3 C 7.18 g/m*3 15.3 C 0 km/h
Sensor: Nr:Datum:Temp:Abs-Feuchte:Windchill:Wind:
Aussen-T/F 2101 29-03-2010 13:22:02 14.8 C 7.09 g/m*3 14.8 C 0 km/h
2102 29-03-2010 13:34:03 14.6 C 7.38 g/m*3 14.6 C 0 km/h
2103 29-03-2010 13:46:02 14.4 C 7.54 g/m*3 14.4 C 0 km/h
2104 29-03-2010 13:58:02 13.8 C 8.1 g/m*3 13.8 C 0 km/h
2105 29-03-2010 14:10:01 14.2 C 8.91 g/m*3 14.2 C 0 km/h
2106 29-03-2010 14:22:02 14.7 C 8.69 g/m*3 14.7 C 0 km/h
2107 29-03-2010 14:34:02 14.2 C 7.82 g/m*3 14.2 C 0 km/h
2108 29-03-2010 14:46:02 13.1 C 8.33 g/m*3 13.1 C 0 km/h
2109 29-03-2010 14:58:02 12.7 C 8.13 g/m*3 12.7 C 0 km/h
2110 29-03-2010 15:10:02 13.2 C 8.38 g/m*3 13.2 C 0 km/h
2111 29-03-2010 15:22:02 12.8 C 8.4 g/m*3 12.8 C 0 km/h
2112 29-03-2010 15:34:02 12.8 C 8.62 g/m*3 12.8 C 0 km/h
2113 29-03-2010 15:46:02 12.7 C 8.68 g/m*3 12.7 C 0 km/h
2114 29-03-2010 15:58:02 13.4 C 8.6 g/m*3 13.4 C 0 km/h
2115 29-03-2010 16:10:02 14 C 8.2 g/m*3 14 C 0 km/h
2116 29-03-2010 16:22:02 14.2 C 7.69 g/m*3 14.2 C 0 km/h
2117 29-03-2010 16:34:02 14.3 C 7.62 g/m*3 14.3 C 0 km/h
2118 29-03-2010 16:46:02 14 C 7.96 g/m*3 14 C 0 km/h
2119 29-03-2010 16:58:02 13.8 C 8.22 g/m*3 13.8 C 0 km/h
2120 29-03-2010 17:10:02 12.2 C 8.31 g/m*3 12.2 C 0 km/h
2121 29-03-2010 17:22:03 12.2 C 8.96 g/m*3 12.2 C 0 km/h
2122 29-03-2010 17:34:02 12.6 C 9.4 g/m*3 12.6 C 0 km/h
2123 29-03-2010 17:46:02 14.2 C 10.14 g/m*3 14.2 C 0 km/h
2124 29-03-2010 17:58:02 14.5 C 9.45 g/m*3 14.5 C 0 km/h
2125 29-03-2010 18:10:02 14.7 C 9.44 g/m*3 14.7 C 0 km/h
Sensor: Nr:Datum:Temp:Abs-Feuchte:Windchill:Wind:
Aussen-T/F 2126 29-03-2010 18:22:02 14.9 C 8.92 g/m*3 14.9 C 0 km/h
2127 29-03-2010 18:34:02 14.8 C 8.87 g/m*3 14.8 C 0 km/h
2128 29-03-2010 18:46:02 14.5 C 8.83 g/m*3 14.5 C 0 km/h
2129 29-03-2010 18:58:02 14.4 C 9.02 g/m*3 14.4 C 0 km/h
2130 29-03-2010 19:10:01 14.2 C 8.91 g/m*3 14.2 C 0 km/h
2131 29-03-2010 19:22:02 13.7 C 8.76 g/m*3 13.7 C 0 km/h
2132 29-03-2010 19:34:01 13 C 8.73 g/m*3 13 C 0 km/h
2133 29-03-2010 19:46:02 12.2 C 8.52 g/m*3 12.2 C 0 km/h
2134 29-03-2010 19:58:02 11.7 C 8.37 g/m*3 11.7 C 0 km/h
2135 29-03-2010 20:10:01 11.2 C 8.21 g/m*3 11.2 C 0 km/h
2136 29-03-2010 20:22:01 10.8 C 8.2 g/m*3 10.8 C 0 km/h
2137 29-03-2010 20:34:02 10.6 C 8.2 g/m*3 10.6 C 0 km/h
2138 29-03-2010 20:46:02 10.5 C 8.15 g/m*3 10.5 C 0 km/h
2139 29-03-2010 20:58:02 10.4 C 8.1 g/m*3 10.4 C 0 km/h
2140 29-03-2010 21:10:01 10.3 C 8.04 g/m*3 10.3 C 0 km/h
2141 29-03-2010 21:22:02 10.2 C 7.99 g/m*3 10.2 C 0 km/h
2142 29-03-2010 21:34:02 10.3 C 8.04 g/m*3 10.3 C 0 km/h
2143 29-03-2010 21:47:02 10.3 C 8.04 g/m*3 10.3 C 0 km/h
2144 29-03-2010 21:59:02 10.2 C 7.99 g/m*3 10.2 C 0 km/h
2145 29-03-2010 22:11:02 10 C 7.89 g/m*3 10 C 0 km/h
2146 29-03-2010 22:23:03 10 C 7.89 g/m*3 10 C 0 km/h
2147 29-03-2010 22:35:03 9.9 C 7.94 g/m*3 9.9 C 0 km/h
2148 29-03-2010 22:47:03 9.8 C 7.89 g/m*3 9.8 C 0 km/h
2149 29-03-2010 22:59:03 9.9 C 8.03 g/m*3 9.9 C 0 km/h
2150 29-03-2010 23:11:03 9.9 C 7.94 g/m*3 9.9 C 0 km/h
Sensor: Nr:Datum:Temp:Abs-Feuchte:Windchill:Wind:
Aussen-T/F 2151 29-03-2010 23:23:03 9.9 C 7.94 g/m*3 9.9 C 0 km/h
2152 29-03-2010 23:35:03 10.1 C 7.85 g/m*3 10.1 C 0 km/h
2153 29-03-2010 23:47:03 10.1 C 7.66 g/m*3 10.1 C 0 km/h
2154 29-03-2010 23:59:03 10.2 C 7.71 g/m*3 10.2 C 0 km/h
2155 30-03-2010 00:11:03 10.2 C 7.61 g/m*3 10.2 C 0 km/h
2156 30-03-2010 00:23:03 10.3 C 7.66 g/m*3 10.3 C 0 km/h
2157 30-03-2010 00:35:03 10.6 C 7.71 g/m*3 10.6 C 0 km/h
2158 30-03-2010 00:47:03 10.7 C 7.66 g/m*3 10.7 C 0 km/h
2159 30-03-2010 00:59:03 11.1 C 7.66 g/m*3 11.1 C 0 km/h
2160 30-03-2010 01:11:03 11.3 C 7.65 g/m*3 11.3 C 0 km/h
2161 30-03-2010 01:23:03 11.3 C 7.65 g/m*3 11.3 C 0 km/h
2162 30-03-2010 01:35:03 11.3 C 7.55 g/m*3 11.3 C 0 km/h
2163 30-03-2010 01:47:03 11 C 7.41 g/m*3 11 C 0 km/h
2164 30-03-2010 01:59:03 11.1 C 7.35 g/m*3 11.1 C 0 km/h
2165 30-03-2010 02:11:03 11.3 C 7.24 g/m*3 11.3 C 0 km/h
2166 30-03-2010 02:23:03 11.3 C 7.24 g/m*3 11.3 C 0 km/h
2167 30-03-2010 02:35:03 11.1 C 7.25 g/m*3 11.1 C 0 km/h
2168 30-03-2010 02:47:04 11.7 C 7.22 g/m*3 11.7 C 0 km/h
2169 30-03-2010 02:59:04 11.6 C 7.17 g/m*3 11.6 C 0 km/h
2170 30-03-2010 03:11:04 11.3 C 7.14 g/m*3 11.3 C 0 km/h
2171 30-03-2010 03:23:04 11.3 C 7.24 g/m*3 11.3 C 0 km/h
2172 30-03-2010 03:35:04 10.9 C 7.16 g/m*3 10.9 C 0 km/h
2173 30-03-2010 03:47:04 10.8 C 7.22 g/m*3 10.8 C 0 km/h
2174 30-03-2010 03:59:04 11 C 7.21 g/m*3 11 C 0 km/h
2175 30-03-2010 04:11:04 11.4 C 7.29 g/m*3 11.4 C 0 km/h
Sensor: Nr:Datum:Temp:Abs-Feuchte:Windchill:Wind:
Aussen-T/F 2176 30-03-2010 04:23:04 11.4 C 7.19 g/m*3 11.4 C 0 km/h
2177 30-03-2010 04:35:04 11.5 C 7.13 g/m*3 11.5 C 0 km/h
2178 30-03-2010 04:47:04 11.4 C 7.08 g/m*3 11.4 C 0 km/h
2179 30-03-2010 04:59:04 11.3 C 7.14 g/m*3 11.3 C 0 km/h
2180 30-03-2010 05:11:04 11.4 C 7.29 g/m*3 11.4 C 0 km/h
2181 30-03-2010 05:23:04 11.1 C 7.05 g/m*3 11.1 C 0 km/h
2182 30-03-2010 05:35:04 11 C 7.01 g/m*3 11 C 0 km/h
2183 30-03-2010 05:47:04 10.7 C 7.07 g/m*3 10.7 C 0 km/h
2184 30-03-2010 05:59:04 10.5 C 6.98 g/m*3 10.5 C 0 km/h
2185 30-03-2010 06:11:04 10.5 C 7.08 g/m*3 10.5 C 0 km/h
2186 30-03-2010 06:23:04 10.3 C 7.09 g/m*3 10.3 C 0 km/h
2187 30-03-2010 06:35:04 10 C 6.95 g/m*3 10 C 0 km/h
2188 30-03-2010 06:47:04 9.8 C 7.14 g/m*3 9.8 C 0 km/h
2189 30-03-2010 06:59:04 9.8 C 7.24 g/m*3 9.8 C 0 km/h
2190 30-03-2010 07:11:01 10 C 7.14 g/m*3 10 C 0 km/h
2191 30-03-2010 07:23:02 10.2 C 7.04 g/m*3 10.2 C 0 km/h
2192 30-03-2010 07:35:02 10.5 C 6.89 g/m*3 10.5 C 0 km/h
2193 30-03-2010 07:47:02 10.6 C 6.83 g/m*3 10.6 C 0 km/h
2194 30-03-2010 07:59:02 10.7 C 6.88 g/m*3 10.7 C 0 km/h
2195 30-03-2010 08:11:02 10.7 C 6.88 g/m*3 10.7 C 0 km/h
2196 30-03-2010 08:23:02 11 C 6.91 g/m*3 11 C 0 km/h
2197 30-03-2010 08:35:02 11.1 C 6.85 g/m*3 11.1 C 0 km/h
2198 30-03-2010 08:47:01 11.4 C 6.67 g/m*3 11.4 C 0 km/h
2199 30-03-2010 08:59:01 11.4 C 6.77 g/m*3 11.4 C 0 km/h
2200 30-03-2010 09:11:02 11.8 C 6.95 g/m*3 11.8 C 0 km/h
Sensor: Nr:Datum:Temp:Abs-Feuchte:Windchill:Wind:
Aussen-T/F 2201 30-03-2010 09:23:01 12.2 C 6.69 g/m*3 12.2 C 0 km/h
2202 30-03-2010 09:35:02 12.6 C 6.75 g/m*3 12.6 C 0 km/h
2203 30-03-2010 09:47:02 12.9 C 6.54 g/m*3 12.9 C 0 km/h
2204 30-03-2010 09:59:02 13.1 C 6.39 g/m*3 13.1 C 0 km/h
2205 30-03-2010 10:11:02 13.2 C 6.43 g/m*3 13.2 C 0 km/h
2206 30-03-2010 10:23:01 13.1 C 5.93 g/m*3 13.1 C 0 km/h
2207 30-03-2010 10:35:02 14.2 C 6.11 g/m*3 14.2 C 0 km/h
2208 30-03-2010 10:47:02 14.4 C 5.07 g/m*3 14.4 C 0 km/h
2209 30-03-2010 10:59:02 14.1 C 4.85 g/m*3 14.1 C 0 km/h
2210 30-03-2010 11:11:02 14.1 C 4.98 g/m*3 14.1 C 0 km/h
2211 30-03-2010 11:23:01 15 C 4.74 g/m*3 15 C 0 km/h
2212 30-03-2010 11:35:02 15.2 C 4.67 g/m*3 15.2 C 0 km/h
2213 30-03-2010 11:47:02 15.3 C 4.57 g/m*3 15.3 C 0 km/h
2214 30-03-2010 11:59:02 15.8 C 4.71 g/m*3 15.8 C 0 km/h
2215 30-03-2010 12:11:02 16 C 4.63 g/m*3 16 C 0 km/h
2216 30-03-2010 12:23:02 16.2 C 4.55 g/m*3 16.2 C 0 km/h
2217 30-03-2010 12:35:02 16.6 C 4.66 g/m*3 16.6 C 0 km/h
2218 30-03-2010 12:47:02 16.7 C 4.55 g/m*3 16.7 C 0 km/h
2219 30-03-2010 12:59:02 17.2 C 4.69 g/m*3 17.2 C 0 km/h
2220 30-03-2010 13:11:02 17.4 C 4.59 g/m*3 17.4 C 0 km/h
2221 30-03-2010 13:23:02 17.3 C 4.71 g/m*3 17.3 C 0 km/h
2222 30-03-2010 13:35:02 17.7 C 4.83 g/m*3 17.7 C 0 km/h
2223 30-03-2010 13:47:02 18.1 C 4.79 g/m*3 18.1 C 0 km/h
2224 30-03-2010 13:59:02 18.2 C 4.66 g/m*3 18.2 C 0 km/h
2225 30-03-2010 14:11:02 18.5 C 4.9 g/m*3 18.5 C 0 km/h
Sensor: Nr:Datum:Temp:Abs-Feuchte:Windchill:Wind:
Aussen-T/F 2226 30-03-2010 14:23:02 18.9 C 4.7 g/m*3 18.9 C 0 km/h
2227 30-03-2010 14:35:01 18.3 C 4.53 g/m*3 18.3 C 0 km/h
2228 30-03-2010 14:47:02 18 C 4.61 g/m*3 18 C 0 km/h
2229 30-03-2010 14:59:02 17.7 C 4.68 g/m*3 17.7 C 0 km/h
2230 30-03-2010 15:11:01 17.9 C 4.58 g/m*3 17.9 C 0 km/h
2231 30-03-2010 15:23:01 17.7 C 4.68 g/m*3 17.7 C 0 km/h
2232 30-03-2010 15:35:02 18.6 C 4.62 g/m*3 18.6 C 0 km/h
2233 30-03-2010 15:47:02 18.7 C 4.48 g/m*3 18.7 C 0 km/h
2234 30-03-2010 15:59:03 18.2 C 4.51 g/m*3 18.2 C 0 km/h
2235 30-03-2010 16:11:02 18.7 C 4.64 g/m*3 18.7 C 0 km/h
2236 30-03-2010 16:23:02 17.5 C 5.22 g/m*3 17.5 C 0 km/h
2237 30-03-2010 16:35:02 16.4 C 5.58 g/m*3 16.4 C 0 km/h
2238 30-03-2010 16:47:01 15.9 C 5.55 g/m*3 15.9 C 0 km/h
2239 30-03-2010 16:59:01 15.6 C 5.45 g/m*3 15.6 C 0 km/h
2240 30-03-2010 17:11:02 14.9 C 5.48 g/m*3 14.9 C 0 km/h
2241 30-03-2010 17:23:01 14.4 C 5.44 g/m*3 14.4 C 0 km/h
2242 30-03-2010 17:35:02 14.2 C 5.49 g/m*3 14.2 C 0 km/h
2243 30-03-2010 17:47:02 14 C 5.43 g/m*3 14 C 0 km/h
2244 30-03-2010 17:59:02 13.8 C 5.48 g/m*3 13.8 C 0 km/h
2245 30-03-2010 18:11:02 13.6 C 5.65 g/m*3 13.6 C 0 km/h
2246 30-03-2010 18:23:02 13.3 C 5.89 g/m*3 13.3 C 0 km/h
2247 30-03-2010 18:35:02 12.9 C 6.2 g/m*3 12.9 C 0 km/h
2248 30-03-2010 18:47:02 12 C 6.39 g/m*3 12 C 0 km/h
2249 30-03-2010 18:59:02 11.6 C 6.65 g/m*3 11.6 C 0 km/h
2250 30-03-2010 19:11:02 11.5 C 6.82 g/m*3 11.5 C 0 km/h
Sensor: Nr:Datum:Temp:Abs-Feuchte:Windchill:Wind:
Aussen-T/F 2251 30-03-2010 19:23:02 11.1 C 6.65 g/m*3 11.1 C 0 km/h
2252 30-03-2010 19:35:02 11.3 C 6.73 g/m*3 11.3 C 0 km/h
2253 30-03-2010 19:47:01 11.4 C 6.67 g/m*3 11.4 C 0 km/h
2254 30-03-2010 19:59:01 11.3 C 6.43 g/m*3 11.3 C 0 km/h
2255 30-03-2010 20:11:02 10.9 C 6.47 g/m*3 10.9 C 0 km/h
2256 30-03-2010 20:23:01 10.5 C 6.4 g/m*3 10.5 C 0 km/h
2257 30-03-2010 20:35:01 10.6 C 6.44 g/m*3 10.6 C 0 km/h
2258 30-03-2010 20:47:01 10.7 C 6.38 g/m*3 10.7 C 0 km/h
2259 30-03-2010 20:59:01 10.7 C 6.29 g/m*3 10.7 C 0 km/h
2260 30-03-2010 21:11:02 10.4 C 6.36 g/m*3 10.4 C 0 km/h
2261 30-03-2010 21:23:01 10.1 C 6.24 g/m*3 10.1 C 0 km/h
2262 30-03-2010 21:35:01 10 C 6.3 g/m*3 10 C 0 km/h
2263 30-03-2010 21:47:01 9.8 C 6.31 g/m*3 9.8 C 0 km/h
2264 30-03-2010 21:59:01 9.7 C 6.27 g/m*3 9.7 C 0 km/h
2265 30-03-2010 22:11:02 9.4 C 6.24 g/m*3 9.4 C 0 km/h
2266 30-03-2010 22:23:02 9.3 C 6.29 g/m*3 9.3 C 0 km/h
2267 30-03-2010 22:36:04 9.6 C 6.32 g/m*3 9.6 C 0 km/h
2268 30-03-2010 22:48:05 9.8 C 6.12 g/m*3 9.8 C 0 km/h
2269 30-03-2010 23:00:05 10.2 C 5.8 g/m*3 10.2 C 0 km/h
2270 30-03-2010 23:12:05 10.6 C 5.76 g/m*3 10.6 C 0 km/h
2271 30-03-2010 23:24:05 7.9 C 5.83 g/m*3 7.9 C 0 km/h
2272 30-03-2010 23:36:05 7.4 C 5.49 g/m*3 7.4 C 0 km/h
2273 30-03-2010 23:48:05 7.3 C 5.37 g/m*3 7.3 C 0 km/h
2274 31-03-2010 00:00:05 7.1 C 5.07 g/m*3 7.1 C 0 km/h
2275 31-03-2010 00:12:05 7 C 4.88 g/m*3 7 C 0 km/h
Sensor: Nr:Datum:Temp:Abs-Feuchte:Windchill:Wind:
Aussen-T/F 2276 31-03-2010 00:24:05 6.9 C 4.93 g/m*3 6.9 C 0 km/h
2277 31-03-2010 00:36:05 6.6 C 4.83 g/m*3 6.6 C 0 km/h
2278 31-03-2010 00:48:05 6.6 C 4.76 g/m*3 6.6 C 0 km/h
2279 31-03-2010 01:00:05 6.3 C 4.74 g/m*3 6.3 C 0 km/h
2280 31-03-2010 01:12:05 6.2 C 4.71 g/m*3 6.2 C 0 km/h
2281 31-03-2010 01:24:05 6.3 C 4.74 g/m*3 6.3 C 0 km/h
2282 31-03-2010 01:36:05 6.2 C 4.63 g/m*3 6.2 C 0 km/h
2283 31-03-2010 01:48:05 6.1 C 4.6 g/m*3 6.1 C 0 km/h
2284 31-03-2010 02:00:05 6 C 4.57 g/m*3 6 C 0 km/h
2285 31-03-2010 02:12:05 6 C 4.65 g/m*3 6 C 0 km/h
2286 31-03-2010 02:24:05 6 C 4.65 g/m*3 6 C 0 km/h
2287 31-03-2010 02:36:05 6 C 4.65 g/m*3 6 C 0 km/h
2288 31-03-2010 02:48:05 5.9 C 4.69 g/m*3 5.9 C 0 km/h
2289 31-03-2010 03:00:06 5.7 C 4.7 g/m*3 5.7 C 0 km/h
2290 31-03-2010 03:12:06 5.8 C 4.73 g/m*3 5.8 C 0 km/h
2291 31-03-2010 03:24:06 5.8 C 4.8 g/m*3 5.8 C 0 km/h
2292 31-03-2010 03:36:06 5.8 C 4.8 g/m*3 5.8 C 0 km/h
2293 31-03-2010 03:48:06 5.5 C 4.78 g/m*3 5.5 C 0 km/h
2294 31-03-2010 04:00:06 5.5 C 4.85 g/m*3 5.5 C 0 km/h
2295 31-03-2010 04:12:06 5.3 C 4.85 g/m*3 5.3 C 0 km/h
2296 31-03-2010 04:24:06 5.3 C 4.99 g/m*3 5.3 C 0 km/h
2297 31-03-2010 04:36:06 5.6 C 5.16 g/m*3 5.6 C 0 km/h
2298 31-03-2010 04:48:06 5.8 C 5.16 g/m*3 5.8 C 0 km/h
2299 31-03-2010 05:00:06 5.7 C 5.12 g/m*3 5.7 C 0 km/h
2300 31-03-2010 05:12:06 6.1 C 5.11 g/m*3 6.1 C 0 km/h
Sensor: Nr:Datum:Temp:Abs-Feuchte:Windchill:Wind:
Aussen-T/F 2301 31-03-2010 05:24:06 6.5 C 4.95 g/m*3 6.5 C 0 km/h
2302 31-03-2010 05:36:06 6.6 C 4.91 g/m*3 6.6 C 0 km/h
2303 31-03-2010 05:48:06 7.1 C 4.76 g/m*3 7.1 C 0 km/h
2304 31-03-2010 06:00:06 7 C 4.65 g/m*3 7 C 0 km/h
2305 31-03-2010 06:12:06 7.1 C 4.68 g/m*3 7.1 C 0 km/h
2306 31-03-2010 06:24:06 7.3 C 4.58 g/m*3 7.3 C 0 km/h
2307 31-03-2010 06:36:06 7.3 C 4.5 g/m*3 7.3 C 0 km/h
2308 31-03-2010 06:48:06 7.3 C 4.5 g/m*3 7.3 C 0 km/h
2309 31-03-2010 07:00:07 7.3 C 4.42 g/m*3 7.3 C 0 km/h
2310 31-03-2010 07:12:04 7.3 C 4.42 g/m*3 7.3 C 0 km/h
2311 31-03-2010 07:24:03 7.4 C 4.21 g/m*3 7.4 C 0 km/h
2312 31-03-2010 07:36:04 7.4 C 4.06 g/m*3 7.4 C 0 km/h
2313 31-03-2010 07:48:02 7.5 C 4.08 g/m*3 7.5 C 0 km/h
2314 31-03-2010 08:00:02 7.4 C 4.14 g/m*3 7.4 C 0 km/h
2315 31-03-2010 08:12:02 7.5 C 4.24 g/m*3 7.5 C 0 km/h
2316 31-03-2010 08:24:01 7.5 C 4.24 g/m*3 7.5 C 0 km/h
2317 31-03-2010 08:36:02 7.5 C 4.24 g/m*3 7.5 C 0 km/h
2318 31-03-2010 08:48:02 7.4 C 4.14 g/m*3 7.4 C 0 km/h
2319 31-03-2010 09:00:02 7.6 C 4.27 g/m*3 7.6 C 0 km/h
2320 31-03-2010 09:12:02 7.8 C 4.41 g/m*3 7.8 C 0 km/h
2321 31-03-2010 09:24:02 7.2 C 4.71 g/m*3 7.2 C 0 km/h
2322 31-03-2010 09:36:02 7.4 C 4.85 g/m*3 7.4 C 0 km/h
2323 31-03-2010 09:48:01 7.8 C 4.9 g/m*3 7.8 C 0 km/h
2324 31-03-2010 10:00:01 6.8 C 5.05 g/m*3 6.8 C 0 km/h
2325 31-03-2010 10:12:02 6 C 5.3 g/m*3 6 C 0 km/h
Sensor: Nr:Datum:Temp:Abs-Feuchte:Windchill:Wind:
Aussen-T/F 2326 31-03-2010 10:24:02 6.5 C 5.55 g/m*3 6.5 C 0 km/h
2327 31-03-2010 10:36:01 7.4 C 5.33 g/m*3 7.4 C 0 km/h
2328 31-03-2010 10:48:02 8.5 C 4.7 g/m*3 8.5 C 0 km/h
2329 31-03-2010 11:00:02 9.4 C 4.16 g/m*3 9.4 C 0 km/h
2330 31-03-2010 11:12:01 10.1 C 4.26 g/m*3 10.1 C 0 km/h
2331 31-03-2010 11:24:02 10.1 C 3.78 g/m*3 10.1 C 0 km/h
2332 31-03-2010 11:36:01 10.2 C 3.81 g/m*3 10.2 C 0 km/h
2333 31-03-2010 11:48:02 10.4 C 3.76 g/m*3 10.4 C 0 km/h
2334 31-03-2010 12:00:02 10.8 C 3.85 g/m*3 10.8 C 0 km/h
2335 31-03-2010 12:12:02 10.7 C 3.54 g/m*3 10.7 C 0 km/h
2336 31-03-2010 12:24:02 10.2 C 3.52 g/m*3 10.2 C 0 km/h
2337 31-03-2010 12:36:02 10.3 C 3.93 g/m*3 10.3 C 0 km/h
2338 31-03-2010 12:48:02 10.6 C 3.71 g/m*3 10.6 C 0 km/h
2339 31-03-2010 13:00:03 10.9 C 3.48 g/m*3 10.9 C 0 km/h
2340 31-03-2010 13:12:01 11.6 C 3.22 g/m*3 11.6 C 0 km/h
2341 31-03-2010 13:24:01 11.4 C 3.08 g/m*3 11.4 C 0 km/h
2342 31-03-2010 13:36:02 11.8 C 3.16 g/m*3 11.8 C 0 km/h
2343 31-03-2010 13:48:02 11.8 C 3.16 g/m*3 11.8 C 0 km/h
2344 31-03-2010 14:00:02 11.6 C 3.22 g/m*3 11.6 C 0 km/h
2345 31-03-2010 14:12:02 11.5 C 3.1 g/m*3 11.5 C 0 km/h
2346 31-03-2010 14:24:02 11.8 C 3.05 g/m*3 11.8 C 0 km/h
2347 31-03-2010 14:36:02 12.3 C 3.04 g/m*3 12.3 C 0 km/h
2348 31-03-2010 14:48:02 11.9 C 3.18 g/m*3 11.9 C 0 km/h
2349 31-03-2010 15:00:02 11.2 C 3.45 g/m*3 11.2 C 0 km/h
2350 31-03-2010 15:12:02 11.9 C 4.13 g/m*3 11.9 C 0 km/h
Sensor: Nr:Datum:Temp:Abs-Feuchte:Windchill:Wind:
Aussen-T/F 2351 31-03-2010 15:24:02 11.7 C 3.56 g/m*3 11.7 C 0 km/h
2352 31-03-2010 15:36:02 8.6 C 5.41 g/m*3 8.6 C 0 km/h
2353 31-03-2010 15:48:01 9.3 C 6.02 g/m*3 9.3 C 0 km/h
2354 31-03-2010 16:00:01 11.2 C 5.17 g/m*3 11.2 C 0 km/h
2355 31-03-2010 16:12:01 12.2 C 4.21 g/m*3 12.2 C 0 km/h
2356 31-03-2010 16:24:01 12.7 C 4.01 g/m*3 12.7 C 0 km/h
2357 31-03-2010 16:36:01 13.6 C 3.77 g/m*3 13.6 C 0 km/h
2358 31-03-2010 16:48:01 13.4 C 3.25 g/m*3 13.4 C 0 km/h
2359 31-03-2010 17:00:01 13.4 C 3.14 g/m*3 13.4 C 0 km/h
2360 31-03-2010 17:12:01 13 C 2.84 g/m*3 13 C 0 km/h
2361 31-03-2010 17:24:02 12.5 C 2.86 g/m*3 12.5 C 0 km/h
2362 31-03-2010 17:36:01 13.3 C 2.66 g/m*3 13.3 C 0 km/h
2363 31-03-2010 17:48:02 12.5 C 3.3 g/m*3 12.5 C 0 km/h
2364 31-03-2010 18:00:02 11.4 C 4 g/m*3 11.4 C 0 km/h
2365 31-03-2010 18:12:02 11.9 C 3.71 g/m*3 11.9 C 0 km/h
2366 31-03-2010 18:24:02 12.2 C 3.45 g/m*3 12.2 C 0 km/h
2367 31-03-2010 18:36:02 10.3 C 3.35 g/m*3 10.3 C 0 km/h
2368 31-03-2010 18:48:02 9.3 C 4.58 g/m*3 9.3 C 0 km/h
2369 31-03-2010 19:00:02 9.6 C 4.12 g/m*3 9.6 C 0 km/h
2370 31-03-2010 19:12:02 8.4 C 4.58 g/m*3 8.4 C 0 km/h
2371 31-03-2010 19:24:02 8.1 C 4.74 g/m*3 8.1 C 0 km/h
2372 31-03-2010 19:36:01 8.2 C 4.44 g/m*3 8.2 C 0 km/h
2373 31-03-2010 19:48:02 7.9 C 4.19 g/m*3 7.9 C 0 km/h
2374 31-03-2010 20:00:02 7.5 C 4.08 g/m*3 7.5 C 0 km/h
2375 31-03-2010 20:12:01 7.3 C 4.03 g/m*3 7.3 C 0 km/h
Sensor: Nr:Datum:Temp:Abs-Feuchte:Windchill:Wind:
Aussen-T/F 2376 31-03-2010 20:24:02 7.1 C 3.98 g/m*3 7.1 C 0 km/h
2377 31-03-2010 20:36:02 7 C 3.95 g/m*3 7 C 0 km/h
2378 31-03-2010 20:48:02 6.9 C 4.16 g/m*3 6.9 C 0 km/h
2379 31-03-2010 21:00:03 7 C 4.26 g/m*3 7 C 0 km/h
2380 31-03-2010 21:12:02 6.2 C 4.85 g/m*3 6.2 C 0 km/h
2381 31-03-2010 21:24:02 5.7 C 4.98 g/m*3 5.7 C 0 km/h
2382 31-03-2010 21:36:02 5.6 C 4.95 g/m*3 5.6 C 0 km/h
2383 31-03-2010 21:48:02 5.5 C 4.92 g/m*3 5.5 C 0 km/h
2384 31-03-2010 22:00:02 5.6 C 4.74 g/m*3 5.6 C 0 km/h
2385 31-03-2010 22:12:01 5.3 C 4.78 g/m*3 5.3 C 0 km/h
2386 31-03-2010 22:25:03 5.3 C 4.71 g/m*3 5.3 C 0 km/h
2387 31-03-2010 22:37:03 5.2 C 4.68 g/m*3 5.2 C 0 km/h
2388 31-03-2010 22:49:03 5.1 C 4.65 g/m*3 5.1 C 0 km/h
2389 31-03-2010 23:01:03 5.1 C 4.65 g/m*3 5.1 C 0 km/h
2390 31-03-2010 23:13:03 5.2 C 4.54 g/m*3 5.2 C 0 km/h
2391 31-03-2010 23:25:03 5.1 C 4.51 g/m*3 5.1 C 0 km/h
2392 31-03-2010 23:37:03 5.5 C 4.28 g/m*3 5.5 C 0 km/h
2393 31-03-2010 23:49:03 5.5 C 4.21 g/m*3 5.5 C 0 km/h
2394 01-04-2010 00:01:03 5.6 C 4.1 g/m*3 5.6 C 0 km/h
2395 01-04-2010 00:13:03 5.6 C 3.96 g/m*3 5.6 C 0 km/h
2396 01-04-2010 00:25:03 5.7 C 3.77 g/m*3 5.7 C 0 km/h
2397 01-04-2010 00:37:03 5.6 C 3.75 g/m*3 5.6 C 0 km/h
2398 01-04-2010 00:49:03 5.5 C 3.65 g/m*3 5.5 C 0 km/h
2399 01-04-2010 01:01:03 5.3 C 3.6 g/m*3 5.3 C 0 km/h
2400 01-04-2010 01:13:03 5.3 C 3.6 g/m*3 5.3 C 0 km/h
Sensor: Nr:Datum:Temp:Abs-Feuchte:Windchill:Wind:
Aussen-T/F 2401 01-04-2010 01:25:03 5.2 C 3.51 g/m*3 5.2 C 0 km/h
2402 01-04-2010 01:37:04 5 C 3.53 g/m*3 5 C 0 km/h
2403 01-04-2010 01:49:04 4.9 C 3.58 g/m*3 4.9 C 0 km/h
2404 01-04-2010 02:01:04 4.8 C 3.62 g/m*3 4.8 C 0 km/h
2405 01-04-2010 02:13:04 5 C 3.53 g/m*3 5 C 0 km/h
2406 01-04-2010 02:25:04 5.1 C 3.49 g/m*3 5.1 C 0 km/h
2407 01-04-2010 02:37:04 5 C 3.47 g/m*3 5 C 0 km/h
2408 01-04-2010 02:49:04 4.6 C 3.44 g/m*3 4.6 C 0 km/h
2409 01-04-2010 03:01:04 4.4 C 3.46 g/m*3 4.4 C 0 km/h
2410 01-04-2010 03:13:04 4.7 C 3.46 g/m*3 4.7 C 0 km/h
2411 01-04-2010 03:25:04 4.7 C 3.46 g/m*3 4.7 C 0 km/h
2412 01-04-2010 03:37:04 4.4 C 3.33 g/m*3 4.4 C 0 km/h
2413 01-04-2010 03:49:04 4.2 C 3.35 g/m*3 4.2 C 0 km/h
2414 01-04-2010 04:01:04 4.2 C 3.41 g/m*3 4.2 C 0 km/h
2415 01-04-2010 04:13:04 3.8 C 3.45 g/m*3 3.8 C 0 km/h
2416 01-04-2010 04:25:04 3.9 C 3.54 g/m*3 3.9 C 0 km/h
2417 01-04-2010 04:37:04 3.8 C 3.45 g/m*3 3.8 C 0 km/h
2418 01-04-2010 04:49:04 3.8 C 3.45 g/m*3 3.8 C 0 km/h
2419 01-04-2010 05:01:04 3.5 C 3.44 g/m*3 3.5 C 0 km/h
2420 01-04-2010 05:13:04 3.6 C 3.53 g/m*3 3.6 C 0 km/h
2421 01-04-2010 05:25:04 3.6 C 3.53 g/m*3 3.6 C 0 km/h
2422 01-04-2010 05:37:04 3.5 C 3.5 g/m*3 3.5 C 0 km/h
2423 01-04-2010 05:49:05 3.5 C 3.57 g/m*3 3.5 C 0 km/h
2424 01-04-2010 06:01:05 3.6 C 3.53 g/m*3 3.6 C 0 km/h
2425 01-04-2010 06:13:05 3.5 C 3.5 g/m*3 3.5 C 0 km/h
Sensor: Nr:Datum:Temp:Abs-Feuchte:Windchill:Wind:
Aussen-T/F 2426 01-04-2010 06:25:05 3.5 C 3.5 g/m*3 3.5 C 0 km/h
2427 01-04-2010 06:37:05 3.5 C 3.5 g/m*3 3.5 C 0 km/h
2428 01-04-2010 06:49:05 3.2 C 3.56 g/m*3 3.2 C 0 km/h
2429 01-04-2010 07:01:03 3.5 C 3.69 g/m*3 3.5 C 0 km/h
2430 01-04-2010 07:13:03 3.5 C 3.69 g/m*3 3.5 C 0 km/h
2431 01-04-2010 07:25:03 3.3 C 3.64 g/m*3 3.3 C 0 km/h
2432 01-04-2010 07:37:02 3.3 C 3.64 g/m*3 3.3 C 0 km/h
2433 01-04-2010 07:49:02 3.4 C 3.66 g/m*3 3.4 C 0 km/h
2434 01-04-2010 08:01:01 3.4 C 3.66 g/m*3 3.4 C 0 km/h
2435 01-04-2010 08:13:01 3.5 C 3.69 g/m*3 3.5 C 0 km/h
2436 01-04-2010 08:25:02 3.5 C 3.63 g/m*3 3.5 C 0 km/h
2437 01-04-2010 08:37:01 3.5 C 3.69 g/m*3 3.5 C 0 km/h
2438 01-04-2010 08:49:02 3.8 C 3.7 g/m*3 3.8 C 0 km/h
2439 01-04-2010 09:01:02 3.9 C 3.73 g/m*3 3.9 C 0 km/h
2440 01-04-2010 09:13:02 4.2 C 3.67 g/m*3 4.2 C 0 km/h
2441 01-04-2010 09:25:02 4.5 C 3.68 g/m*3 4.5 C 0 km/h
2442 01-04-2010 09:37:03 5.2 C 3.72 g/m*3 5.2 C 0 km/h
2443 01-04-2010 09:49:02 5.2 C 3.65 g/m*3 5.2 C 0 km/h
2444 01-04-2010 10:01:02 5.1 C 3.69 g/m*3 5.1 C 0 km/h
2445 01-04-2010 10:13:02 5.2 C 3.72 g/m*3 5.2 C 0 km/h
2446 01-04-2010 10:25:02 5.3 C 3.67 g/m*3 5.3 C 0 km/h
2447 01-04-2010 10:37:02 5.6 C 3.68 g/m*3 5.6 C 0 km/h
2448 01-04-2010 10:49:02 6.1 C 3.65 g/m*3 6.1 C 0 km/h
2449 01-04-2010 11:01:02 6.7 C 3.57 g/m*3 6.7 C 0 km/h
2450 01-04-2010 11:13:02 6.9 C 3.46 g/m*3 6.9 C 0 km/h
Sensor: Nr:Datum:Temp:Abs-Feuchte:Windchill:Wind:
Aussen-T/F 2451 01-04-2010 11:25:02 6.9 C 3.31 g/m*3 6.9 C 0 km/h
2452 01-04-2010 11:37:02 7.2 C 3.45 g/m*3 7.2 C 0 km/h
2453 01-04-2010 11:49:02 7.5 C 3.52 g/m*3 7.5 C 0 km/h
2454 01-04-2010 12:01:02 8 C 3.39 g/m*3 8 C 0 km/h
2455 01-04-2010 12:13:03 7.9 C 3.29 g/m*3 7.9 C 0 km/h
2456 01-04-2010 12:25:02 7.7 C 3.32 g/m*3 7.7 C 0 km/h
2457 01-04-2010 12:37:02 8 C 3.22 g/m*3 8 C 0 km/h
2458 01-04-2010 12:49:02 9.1 C 3.28 g/m*3 9.1 C 0 km/h
2459 01-04-2010 13:01:02 8.7 C 2.94 g/m*3 8.7 C 0 km/h
2460 01-04-2010 13:13:02 8.5 C 2.73 g/m*3 8.5 C 0 km/h
2461 01-04-2010 13:25:03 8.8 C 2.96 g/m*3 8.8 C 0 km/h
2462 01-04-2010 13:37:02 9.3 C 2.79 g/m*3 9.3 C 0 km/h
2463 01-04-2010 13:49:02 9 C 2.73 g/m*3 9 C 0 km/h
2464 01-04-2010 14:01:02 8.8 C 2.7 g/m*3 8.8 C 0 km/h
2465 01-04-2010 14:13:02 8.9 C 2.8 g/m*3 8.9 C 0 km/h
2466 01-04-2010 14:25:02 10.2 C 2.66 g/m*3 10.2 C 0 km/h
2467 01-04-2010 14:37:02 11 C 2.6 g/m*3 11 C 0 km/h
2468 01-04-2010 14:49:02 8.2 C 3.43 g/m*3 8.2 C 0 km/h
2469 01-04-2010 15:01:01 8.7 C 3.81 g/m*3 8.7 C 0 km/h
2470 01-04-2010 15:13:01 9.7 C 3.69 g/m*3 9.7 C 0 km/h
2471 01-04-2010 15:25:02 10.7 C 3.54 g/m*3 10.7 C 0 km/h
2472 01-04-2010 15:37:01 10.6 C 3.32 g/m*3 10.6 C 0 km/h
2473 01-04-2010 15:49:02 10.5 C 2.91 g/m*3 10.5 C 0 km/h
2474 01-04-2010 16:01:01 10.4 C 2.89 g/m*3 10.4 C 0 km/h
2475 01-04-2010 16:13:01 10.8 C 2.97 g/m*3 10.8 C 0 km/h
Sensor: Nr:Datum:Temp:Abs-Feuchte:Windchill:Wind:
Aussen-T/F 2476 01-04-2010 16:25:01 10.4 C 2.89 g/m*3 10.4 C 0 km/h
2477 01-04-2010 16:37:02 10.4 C 2.99 g/m*3 10.4 C 0 km/h
2478 01-04-2010 16:49:02 11 C 3.1 g/m*3 11 C 0 km/h
2479 01-04-2010 17:01:02 11 C 2.8 g/m*3 11 C 0 km/h
2480 01-04-2010 17:13:02 10.7 C 2.75 g/m*3 10.7 C 0 km/h
2481 01-04-2010 17:25:02 9.9 C 2.61 g/m*3 9.9 C 0 km/h
2482 01-04-2010 17:37:02 9.2 C 3.04 g/m*3 9.2 C 0 km/h
2483 01-04-2010 17:49:02 8.3 C 3.54 g/m*3 8.3 C 0 km/h
2484 01-04-2010 18:01:02 8.1 C 3.41 g/m*3 8.1 C 0 km/h
2485 01-04-2010 18:13:02 9.8 C 3.25 g/m*3 9.8 C 0 km/h
2486 01-04-2010 18:25:02 8.4 C 3.31 g/m*3 8.4 C 0 km/h
2487 01-04-2010 18:37:02 7.8 C 3.43 g/m*3 7.8 C 0 km/h
2488 01-04-2010 18:49:02 5.4 C 3.28 g/m*3 5.4 C 0 km/h
2489 01-04-2010 19:01:02 5.8 C 5.52 g/m*3 5.8 C 0 km/h
2490 01-04-2010 19:13:03 6.4 C 5.51 g/m*3 6.4 C 0 km/h
2491 01-04-2010 19:25:02 6.7 C 5.24 g/m*3 6.7 C 0 km/h
2492 01-04-2010 19:37:02 6.5 C 4.8 g/m*3 6.5 C 0 km/h
2493 01-04-2010 19:49:01 5.8 C 4.58 g/m*3 5.8 C 0 km/h
2494 01-04-2010 20:01:02 5.3 C 4.44 g/m*3 5.3 C 0 km/h
2495 01-04-2010 20:13:02 5 C 4.35 g/m*3 5 C 0 km/h
2496 01-04-2010 20:25:01 4.7 C 4.53 g/m*3 4.7 C 0 km/h
2497 01-04-2010 20:37:01 4.5 C 4.54 g/m*3 4.5 C 0 km/h
2498 01-04-2010 20:49:01 4.2 C 4.51 g/m*3 4.2 C 0 km/h
2499 01-04-2010 21:01:02 4.1 C 4.48 g/m*3 4.1 C 0 km/h
2500 01-04-2010 21:13:02 3.9 C 4.48 g/m*3 3.9 C 0 km/h
Sensor: Nr:Datum:Temp:Abs-Feuchte:Windchill:Wind:
Aussen-T/F 2501 01-04-2010 21:25:01 3.7 C 4.42 g/m*3 3.7 C 0 km/h
2502 01-04-2010 21:37:01 3.6 C 4.46 g/m*3 3.6 C 0 km/h
2503 01-04-2010 21:49:01 3.5 C 4.43 g/m*3 3.5 C 0 km/h
2504 01-04-2010 22:01:02 3.2 C 4.46 g/m*3 3.2 C 0 km/h
2505 01-04-2010 22:13:02 3.2 C 4.46 g/m*3 3.2 C 0 km/h
2506 01-04-2010 22:25:01 3.2 C 4.46 g/m*3 3.2 C 0 km/h
2507 01-04-2010 22:37:02 3.1 C 4.43 g/m*3 3.1 C 0 km/h
2508 01-04-2010 22:50:02 3 C 4.46 g/m*3 3 C 0 km/h
2509 01-04-2010 23:02:02 2.8 C 4.46 g/m*3 2.8 C 0 km/h
2510 01-04-2010 23:14:02 2.6 C 4.46 g/m*3 2.6 C 0 km/h
2511 01-04-2010 23:26:02 2.5 C 4.48 g/m*3 2.5 C 0 km/h
2512 01-04-2010 23:38:02 2.4 C 4.45 g/m*3 2.4 C 0 km/h
2513 01-04-2010 23:50:02 2.3 C 4.42 g/m*3 2.3 C 0 km/h
2514 02-04-2010 00:02:02 2.3 C 4.48 g/m*3 2.3 C 0 km/h
2515 02-04-2010 00:14:02 2.1 C 4.42 g/m*3 2.1 C 0 km/h
2516 02-04-2010 00:26:02 1.9 C 4.42 g/m*3 1.9 C 0 km/h
2517 02-04-2010 00:38:02 1.8 C 4.44 g/m*3 1.8 C 0 km/h
2518 02-04-2010 00:50:02 1.6 C 4.38 g/m*3 1.6 C 0 km/h
2519 02-04-2010 01:02:02 1.4 C 4.37 g/m*3 1.4 C 0 km/h
2520 02-04-2010 01:14:02 1.2 C 4.31 g/m*3 1.2 C 0 km/h
2521 02-04-2010 01:26:02 1.1 C 4.29 g/m*3 1.1 C 0 km/h
2522 02-04-2010 01:38:02 0.9 C 4.28 g/m*3 0.9 C 0 km/h
2523 02-04-2010 01:50:02 0.7 C 4.22 g/m*3 0.7 C 0 km/h
2524 02-04-2010 02:02:02 0.6 C 4.19 g/m*3 0.6 C 0 km/h
2525 02-04-2010 02:14:02 0.6 C 4.24 g/m*3 0.6 C 0 km/h
Sensor: Nr:Datum:Temp:Abs-Feuchte:Windchill:Wind:
Aussen-T/F 2526 02-04-2010 02:26:02 0.5 C 4.26 g/m*3 0.5 C 0 km/h
2527 02-04-2010 02:38:03 0.4 C 4.23 g/m*3 0.4 C 0 km/h
2528 02-04-2010 02:50:03 0.1 C 4.15 g/m*3 0.1 C 0 km/h
2529 02-04-2010 03:02:03 0.1 C 4.15 g/m*3 0.1 C 0 km/h
2530 02-04-2010 03:14:03 -0.1 C 4.14 g/m*3 -0.1 C 0 km/h
2531 02-04-2010 03:26:03 -0.1 C 4.14 g/m*3 -0.1 C 0 km/h
2532 02-04-2010 03:38:03 -0.2 C 4.16 g/m*3 -0.2 C 0 km/h
2533 02-04-2010 03:50:03 -0.3 C 4.13 g/m*3 -0.3 C 0 km/h
2534 02-04-2010 04:02:03 -0.3 C 4.13 g/m*3 -0.3 C 0 km/h
2535 02-04-2010 04:14:03 -0.5 C 4.07 g/m*3 -0.5 C 0 km/h
2536 02-04-2010 04:26:03 -0.4 C 4.1 g/m*3 -0.4 C 0 km/h
2537 02-04-2010 04:38:03 -0.5 C 4.12 g/m*3 -0.5 C 0 km/h
2538 02-04-2010 04:50:03 -0.8 C 3.99 g/m*3 -0.8 C 0 km/h
2539 02-04-2010 05:02:03 -0.9 C 3.96 g/m*3 -0.9 C 0 km/h
2540 02-04-2010 05:14:03 -0.9 C 4.01 g/m*3 -0.9 C 0 km/h
2541 02-04-2010 05:26:03 -1 C 3.98 g/m*3 -1 C 0 km/h
2542 02-04-2010 05:38:03 -1 C 3.98 g/m*3 -1 C 0 km/h
2543 02-04-2010 05:50:03 -0.9 C 4.05 g/m*3 -0.9 C 0 km/h
2544 02-04-2010 06:02:03 -1 C 4.02 g/m*3 -1 C 0 km/h
2545 02-04-2010 06:14:03 -1 C 4.07 g/m*3 -1 C 0 km/h
2546 02-04-2010 06:26:03 -1 C 4.07 g/m*3 -1 C 0 km/h
2547 02-04-2010 06:38:04 -1 C 4.11 g/m*3 -1 C 0 km/h
2548 02-04-2010 06:50:04 -1 C 4.11 g/m*3 -1 C 0 km/h
2549 02-04-2010 07:02:04 -1 C 4.11 g/m*3 -1 C 0 km/h
2550 02-04-2010 07:14:04 -0.9 C 4.19 g/m*3 -0.9 C 0 km/h
Sensor: Nr:Datum:Temp:Abs-Feuchte:Windchill:Wind:
Aussen-T/F 2551 02-04-2010 07:26:04 -0.9 C 4.19 g/m*3 -0.9 C 0 km/h
2552 02-04-2010 07:38:04 -0.8 C 4.22 g/m*3 -0.8 C 0 km/h
2553 02-04-2010 07:50:04 -0.9 C 4.19 g/m*3 -0.9 C 0 km/h
2554 02-04-2010 08:02:04 -0.4 C 4.34 g/m*3 -0.4 C 0 km/h
2555 02-04-2010 08:14:04 -0.3 C 4.41 g/m*3 -0.3 C 0 km/h
2556 02-04-2010 08:26:04 -0.1 C 4.43 g/m*3 -0.1 C 0 km/h
2557 02-04-2010 08:38:04 0.3 C 4.55 g/m*3 0.3 C 0 km/h
2558 02-04-2010 08:50:04 0.2 C 4.52 g/m*3 0.2 C 0 km/h
2559 02-04-2010 09:02:04 0.3 C 4.5 g/m*3 0.3 C 0 km/h
2560 02-04-2010 09:14:04 0.7 C 4.58 g/m*3 0.7 C 0 km/h
2561 02-04-2010 09:26:02 1.2 C 4.68 g/m*3 1.2 C 0 km/h
2562 02-04-2010 09:38:02 1.5 C 4.73 g/m*3 1.5 C 0 km/h
2563 02-04-2010 09:50:01 1.8 C 4.77 g/m*3 1.8 C 0 km/h
2564 02-04-2010 10:02:02 2.2 C 4.79 g/m*3 2.2 C 0 km/h
2565 02-04-2010 10:14:02 2.7 C 4.89 g/m*3 2.7 C 0 km/h
2566 02-04-2010 10:26:02 3.3 C 4.97 g/m*3 3.3 C 0 km/h
2567 02-04-2010 10:38:01 4.2 C 5.22 g/m*3 4.2 C 0 km/h
2568 02-04-2010 10:50:01 5 C 5.37 g/m*3 5 C 0 km/h
2569 02-04-2010 11:02:01 5.7 C 5.34 g/m*3 5.7 C 0 km/h
2570 02-04-2010 11:14:01 6.9 C 5.62 g/m*3 6.9 C 0 km/h
2571 02-04-2010 11:26:02 8.1 C 4.83 g/m*3 8.1 C 0 km/h
2572 02-04-2010 11:38:01 9 C 4.67 g/m*3 9 C 0 km/h
2573 02-04-2010 11:50:02 9.9 C 4.67 g/m*3 9.9 C 0 km/h
2574 02-04-2010 12:02:02 10 C 4.23 g/m*3 10 C 0 km/h
2575 02-04-2010 12:14:02 10.3 C 4.21 g/m*3 10.3 C 0 km/h
Sensor: Nr:Datum:Temp:Abs-Feuchte:Windchill:Wind:
Aussen-T/F 2576 02-04-2010 12:26:02 10.5 C 4.07 g/m*3 10.5 C 0 km/h
2577 02-04-2010 12:38:02 10.9 C 4.08 g/m*3 10.9 C 0 km/h
2578 02-04-2010 12:50:02 11.4 C 4 g/m*3 11.4 C 0 km/h
2579 02-04-2010 13:02:02 11.3 C 3.88 g/m*3 11.3 C 0 km/h
2580 02-04-2010 13:14:02 11.7 C 3.66 g/m*3 11.7 C 0 km/h
2581 02-04-2010 13:26:02 11.5 C 3.41 g/m*3 11.5 C 0 km/h
2582 02-04-2010 13:38:02 11.7 C 3.45 g/m*3 11.7 C 0 km/h
2583 02-04-2010 13:50:01 12.5 C 3.52 g/m*3 12.5 C 0 km/h
2584 02-04-2010 14:02:02 12.5 C 3.41 g/m*3 12.5 C 0 km/h
2585 02-04-2010 14:14:02 12.1 C 3.32 g/m*3 12.1 C 0 km/h
2586 02-04-2010 14:26:01 12.8 C 3.36 g/m*3 12.8 C 0 km/h
2587 02-04-2010 14:38:02 12.7 C 3.23 g/m*3 12.7 C 0 km/h
2588 02-04-2010 14:50:02 13.6 C 3.18 g/m*3 13.6 C 0 km/h
2589 02-04-2010 15:02:02 12.7 C 3.01 g/m*3 12.7 C 0 km/h
2590 02-04-2010 15:14:02 12.5 C 3.08 g/m*3 12.5 C 0 km/h
2591 02-04-2010 15:26:01 13.6 C 3.06 g/m*3 13.6 C 0 km/h
2592 02-04-2010 15:38:02 12.8 C 3.14 g/m*3 12.8 C 0 km/h
2593 02-04-2010 15:50:02 14.4 C 3.21 g/m*3 14.4 C 0 km/h
2594 02-04-2010 16:02:02 13.7 C 2.72 g/m*3 13.7 C 0 km/h
2595 02-04-2010 16:14:02 14.5 C 2.86 g/m*3 14.5 C 0 km/h
2596 02-04-2010 16:26:01 14.8 C 2.53 g/m*3 14.8 C 0 km/h
2597 02-04-2010 16:38:02 15.6 C 2.66 g/m*3 15.6 C 0 km/h
2598 02-04-2010 16:50:02 14.6 C 2.5 g/m*3 14.6 C 0 km/h
2599 02-04-2010 17:02:02 15.2 C 2.6 g/m*3 15.2 C 0 km/h
2600 02-04-2010 17:14:02 16.6 C 2.83 g/m*3 16.6 C 0 km/h
Sensor: Nr:Datum:Temp:Abs-Feuchte:Windchill:Wind:
Aussen-T/F 2601 02-04-2010 17:26:02 15.9 C 2.71 g/m*3 15.9 C 0 km/h
2602 02-04-2010 17:38:02 16 C 2.72 g/m*3 16 C 0 km/h
2603 02-04-2010 17:50:02 15.1 C 2.58 g/m*3 15.1 C 0 km/h
2604 02-04-2010 18:02:02 13.8 C 2.38 g/m*3 13.8 C 0 km/h
2605 02-04-2010 18:14:02 13.3 C 2.31 g/m*3 13.3 C 0 km/h
2606 02-04-2010 18:26:02 13.1 C 2.28 g/m*3 13.1 C 0 km/h
2607 02-04-2010 18:38:02 12.8 C 2.24 g/m*3 12.8 C 0 km/h
2608 02-04-2010 18:50:02 12.3 C 2.39 g/m*3 12.3 C 0 km/h
2609 02-04-2010 19:02:01 12.2 C 2.7 g/m*3 12.2 C 0 km/h
2610 02-04-2010 19:14:01 12 C 2.77 g/m*3 12 C 0 km/h
2611 02-04-2010 19:26:02 11.8 C 2.84 g/m*3 11.8 C 0 km/h
2612 02-04-2010 19:38:01 11.6 C 3.01 g/m*3 11.6 C 0 km/h
2613 02-04-2010 19:50:02 11.4 C 2.98 g/m*3 11.4 C 0 km/h
2614 02-04-2010 20:02:01 11.3 C 3.06 g/m*3 11.3 C 0 km/h
2615 02-04-2010 20:14:01 11.1 C 3.02 g/m*3 11.1 C 0 km/h
2616 02-04-2010 20:26:01 10.8 C 3.06 g/m*3 10.8 C 0 km/h
2617 02-04-2010 20:38:02 10.7 C 3.24 g/m*3 10.7 C 0 km/h
2618 02-04-2010 20:50:02 10.7 C 3.04 g/m*3 10.7 C 0 km/h
2619 02-04-2010 21:02:02 10.7 C 3.14 g/m*3 10.7 C 0 km/h
2620 02-04-2010 21:14:02 10.5 C 3.3 g/m*3 10.5 C 0 km/h
2621 02-04-2010 21:26:02 10.3 C 3.26 g/m*3 10.3 C 0 km/h
2622 02-04-2010 21:38:02 10.3 C 3.35 g/m*3 10.3 C 0 km/h
2623 02-04-2010 21:50:01 10 C 3.38 g/m*3 10 C 0 km/h
2624 02-04-2010 22:02:01 9.7 C 3.5 g/m*3 9.7 C 0 km/h
2625 02-04-2010 22:14:01 9.5 C 3.64 g/m*3 9.5 C 0 km/h
Sensor: Nr:Datum:Temp:Abs-Feuchte:Windchill:Wind:
Aussen-T/F 2626 02-04-2010 22:26:02 9.6 C 3.66 g/m*3 9.6 C 0 km/h
2627 02-04-2010 22:38:01 9.8 C 3.71 g/m*3 9.8 C 0 km/h
2628 02-04-2010 22:50:03 9.9 C 3.83 g/m*3 9.9 C 0 km/h
2629 02-04-2010 23:02:02 9.4 C 4.25 g/m*3 9.4 C 0 km/h
2630 02-04-2010 23:14:02 9 C 4.76 g/m*3 9 C 0 km/h
2631 02-04-2010 23:26:02 8.7 C 4.84 g/m*3 8.7 C 0 km/h
2632 02-04-2010 23:38:02 8.3 C 5.06 g/m*3 8.3 C 0 km/h
2633 02-04-2010 23:50:02 8.1 C 5.33 g/m*3 8.1 C 0 km/h
2634 03-04-2010 00:02:02 8 C 5.37 g/m*3 8 C 0 km/h
2635 03-04-2010 00:14:02 7.6 C 5.8 g/m*3 7.6 C 0 km/h
2636 03-04-2010 00:26:02 7.4 C 6.12 g/m*3 7.4 C 0 km/h
2637 03-04-2010 00:38:02 7.4 C 6.28 g/m*3 7.4 C 0 km/h
2638 03-04-2010 00:50:02 7.4 C 6.36 g/m*3 7.4 C 0 km/h
2639 03-04-2010 01:02:01 7.3 C 6.32 g/m*3 7.3 C 0 km/h
2640 03-04-2010 01:14:01 7.2 C 6.28 g/m*3 7.2 C 0 km/h
2641 03-04-2010 01:26:02 7.4 C 6.36 g/m*3 7.4 C 0 km/h
2642 03-04-2010 01:38:02 7.3 C 6.24 g/m*3 7.3 C 0 km/h
2643 03-04-2010 01:50:02 7.3 C 6.24 g/m*3 7.3 C 0 km/h
2644 03-04-2010 02:02:03 7.3 C 6.24 g/m*3 7.3 C 0 km/h
2645 03-04-2010 02:14:03 7 C 6.04 g/m*3 7 C 0 km/h
2646 03-04-2010 02:26:02 7.1 C 6.16 g/m*3 7.1 C 0 km/h
2647 03-04-2010 02:38:02 7.3 C 6.16 g/m*3 7.3 C 0 km/h
2648 03-04-2010 02:50:01 7.4 C 6.12 g/m*3 7.4 C 0 km/h
2649 03-04-2010 03:02:01 7.5 C 6.08 g/m*3 7.5 C 0 km/h
2650 03-04-2010 03:14:02 7.7 C 6 g/m*3 7.7 C 0 km/h
Sensor: Nr:Datum:Temp:Abs-Feuchte:Windchill:Wind:
Aussen-T/F 2651 03-04-2010 03:26:02 7.6 C 5.88 g/m*3 7.6 C 0 km/h
2652 03-04-2010 03:38:02 7.5 C 5.84 g/m*3 7.5 C 0 km/h
2653 03-04-2010 03:50:02 7.2 C 5.81 g/m*3 7.2 C 0 km/h
2654 03-04-2010 04:02:01 7.3 C 5.93 g/m*3 7.3 C 0 km/h
2655 03-04-2010 04:14:01 7.1 C 5.93 g/m*3 7.1 C 0 km/h
2656 03-04-2010 04:26:01 7 C 5.89 g/m*3 7 C 0 km/h
2657 03-04-2010 04:38:02 7 C 5.89 g/m*3 7 C 0 km/h
2658 03-04-2010 04:50:01 7.1 C 5.93 g/m*3 7.1 C 0 km/h
2659 03-04-2010 05:02:02 6.9 C 5.93 g/m*3 6.9 C 0 km/h
2660 03-04-2010 05:14:02 6.9 C 5.93 g/m*3 6.9 C 0 km/h
2661 03-04-2010 05:26:01 6.8 C 5.81 g/m*3 6.8 C 0 km/h
2662 03-04-2010 05:38:02 6.5 C 5.7 g/m*3 6.5 C 0 km/h
2663 03-04-2010 05:50:01 6.3 C 5.7 g/m*3 6.3 C 0 km/h
2664 03-04-2010 06:02:02 6.1 C 5.7 g/m*3 6.1 C 0 km/h
2665 03-04-2010 06:14:02 6.4 C 5.81 g/m*3 6.4 C 0 km/h
2666 03-04-2010 06:26:01 6.5 C 5.85 g/m*3 6.5 C 0 km/h
2667 03-04-2010 06:38:01 6.6 C 5.89 g/m*3 6.6 C 0 km/h
2668 03-04-2010 06:50:01 6.8 C 5.97 g/m*3 6.8 C 0 km/h
2669 03-04-2010 07:02:01 6.6 C 5.81 g/m*3 6.6 C 0 km/h
2670 03-04-2010 07:14:02 6.4 C 5.81 g/m*3 6.4 C 0 km/h
2671 03-04-2010 07:26:01 6.4 C 5.81 g/m*3 6.4 C 0 km/h
2672 03-04-2010 07:38:01 6.6 C 5.89 g/m*3 6.6 C 0 km/h
2673 03-04-2010 07:50:01 6.7 C 5.85 g/m*3 6.7 C 0 km/h
2674 03-04-2010 08:02:01 7.1 C 5.85 g/m*3 7.1 C 0 km/h
2675 03-04-2010 08:14:01 7.5 C 5.76 g/m*3 7.5 C 0 km/h
Sensor: Nr:Datum:Temp:Abs-Feuchte:Windchill:Wind:
Aussen-T/F 2676 03-04-2010 08:26:01 7.8 C 5.71 g/m*3 7.8 C 0 km/h
2677 03-04-2010 08:38:01 8 C 5.54 g/m*3 8 C 0 km/h
2678 03-04-2010 08:50:01 8.6 C 5.59 g/m*3 8.6 C 0 km/h
2679 03-04-2010 09:02:01 8.9 C 5.43 g/m*3 8.9 C 0 km/h
2680 03-04-2010 09:14:01 9.2 C 5.45 g/m*3 9.2 C 0 km/h
2681 03-04-2010 09:26:01 9.4 C 5.43 g/m*3 9.4 C 0 km/h
2682 03-04-2010 09:38:01 9.9 C 5.51 g/m*3 9.9 C 0 km/h
2683 03-04-2010 09:50:01 10.2 C 5.42 g/m*3 10.2 C 0 km/h
2684 03-04-2010 10:02:01 10.3 C 5.27 g/m*3 10.3 C 0 km/h
2685 03-04-2010 10:14:01 10.4 C 5.3 g/m*3 10.4 C 0 km/h
2686 03-04-2010 10:26:01 10.6 C 5.27 g/m*3 10.6 C 0 km/h
2687 03-04-2010 10:38:01 10.9 C 5.27 g/m*3 10.9 C 0 km/h
2688 03-04-2010 10:50:01 10.9 C 5.17 g/m*3 10.9 C 0 km/h
2689 03-04-2010 11:02:01 11.2 C 4.87 g/m*3 11.2 C 0 km/h
2690 03-04-2010 11:14:01 11.4 C 4.93 g/m*3 11.4 C 0 km/h
2691 03-04-2010 11:26:02 11.9 C 5.19 g/m*3 11.9 C 0 km/h
2692 03-04-2010 11:38:01 11.9 C 4.98 g/m*3 11.9 C 0 km/h
2693 03-04-2010 11:50:02 12.2 C 4.86 g/m*3 12.2 C 0 km/h
2694 03-04-2010 12:02:01 11.9 C 4.77 g/m*3 11.9 C 0 km/h
2695 03-04-2010 12:14:01 11.9 C 4.77 g/m*3 11.9 C 0 km/h
2696 03-04-2010 12:26:02 11.8 C 4.84 g/m*3 11.8 C 0 km/h
2697 03-04-2010 12:38:01 12.2 C 4.75 g/m*3 12.2 C 0 km/h
2698 03-04-2010 12:50:02 12.2 C 4.64 g/m*3 12.2 C 0 km/h
2699 03-04-2010 13:02:01 11.5 C 4.85 g/m*3 11.5 C 0 km/h
2700 03-04-2010 13:14:01 10.9 C 5.17 g/m*3 10.9 C 0 km/h
Sensor: Nr:Datum:Temp:Abs-Feuchte:Windchill:Wind:
Aussen-T/F 2701 03-04-2010 13:26:01 11.7 C 5.12 g/m*3 11.7 C 0 km/h
2702 03-04-2010 13:38:02 12.4 C 4.92 g/m*3 12.4 C 0 km/h
2703 03-04-2010 13:50:01 12.3 C 4.78 g/m*3 12.3 C 0 km/h
2704 03-04-2010 14:02:01 11.9 C 4.66 g/m*3 11.9 C 0 km/h
2705 03-04-2010 14:14:01 12.3 C 4.45 g/m*3 12.3 C 0 km/h
2706 03-04-2010 14:26:01 12.5 C 4.4 g/m*3 12.5 C 0 km/h
2707 03-04-2010 14:38:02 12.5 C 4.29 g/m*3 12.5 C 0 km/h
2708 03-04-2010 14:50:01 12.5 C 4.18 g/m*3 12.5 C 0 km/h
2709 03-04-2010 15:02:02 12.7 C 4.34 g/m*3 12.7 C 0 km/h
2710 03-04-2010 15:14:02 12.7 C 4.45 g/m*3 12.7 C 0 km/h
2711 03-04-2010 15:26:01 12.2 C 4.64 g/m*3 12.2 C 0 km/h
2712 03-04-2010 15:38:01 12.3 C 4.99 g/m*3 12.3 C 0 km/h
2713 03-04-2010 15:50:01 12.9 C 4.62 g/m*3 12.9 C 0 km/h
2714 03-04-2010 16:02:01 13.1 C 4.34 g/m*3 13.1 C 0 km/h
2715 03-04-2010 16:14:02 13.4 C 4.3 g/m*3 13.4 C 0 km/h
2716 03-04-2010 16:26:01 13.4 C 4.3 g/m*3 13.4 C 0 km/h
2717 03-04-2010 16:38:01 13.1 C 4.34 g/m*3 13.1 C 0 km/h
2718 03-04-2010 16:50:01 13.3 C 4.51 g/m*3 13.3 C 0 km/h
2719 03-04-2010 17:02:01 13.2 C 4.59 g/m*3 13.2 C 0 km/h
2720 03-04-2010 17:14:01 13.5 C 4.44 g/m*3 13.5 C 0 km/h
2721 03-04-2010 17:26:02 13.2 C 4.59 g/m*3 13.2 C 0 km/h
2722 03-04-2010 17:38:01 12.9 C 4.62 g/m*3 12.9 C 0 km/h
2723 03-04-2010 17:50:02 13.3 C 4.74 g/m*3 13.3 C 0 km/h
2724 03-04-2010 18:02:01 12.9 C 4.62 g/m*3 12.9 C 0 km/h
2725 03-04-2010 18:14:01 12 C 4.58 g/m*3 12 C 0 km/h
Sensor: Nr:Datum:Temp:Abs-Feuchte:Windchill:Wind:
Aussen-T/F 2726 03-04-2010 18:26:02 12.1 C 4.72 g/m*3 12.1 C 0 km/h
2727 03-04-2010 18:38:01 11.9 C 4.87 g/m*3 11.9 C 0 km/h
2728 03-04-2010 18:50:02 11.7 C 4.92 g/m*3 11.7 C 0 km/h
2729 03-04-2010 19:02:01 11.4 C 4.82 g/m*3 11.4 C 0 km/h
2730 03-04-2010 19:14:01 11.4 C 4.93 g/m*3 11.4 C 0 km/h
2731 03-04-2010 19:26:01 11.2 C 4.87 g/m*3 11.2 C 0 km/h
2732 03-04-2010 19:38:02 11.1 C 4.94 g/m*3 11.1 C 0 km/h
2733 03-04-2010 19:50:01 10.7 C 5.01 g/m*3 10.7 C 0 km/h
2734 03-04-2010 20:02:02 10.7 C 5.11 g/m*3 10.7 C 0 km/h
2735 03-04-2010 20:14:02 10.5 C 5.14 g/m*3 10.5 C 0 km/h
2736 03-04-2010 20:26:01 10.5 C 5.14 g/m*3 10.5 C 0 km/h
2737 03-04-2010 20:38:02 10.4 C 5.2 g/m*3 10.4 C 0 km/h
2738 03-04-2010 20:50:01 10.3 C 5.27 g/m*3 10.3 C 0 km/h
2739 03-04-2010 21:02:02 10.3 C 5.36 g/m*3 10.3 C 0 km/h
2740 03-04-2010 21:14:02 10.3 C 5.27 g/m*3 10.3 C 0 km/h
2741 03-04-2010 21:26:01 10.2 C 5.33 g/m*3 10.2 C 0 km/h
2742 03-04-2010 21:38:01 10.1 C 5.39 g/m*3 10.1 C 0 km/h
2743 03-04-2010 21:50:01 9.9 C 5.42 g/m*3 9.9 C 0 km/h
2744 03-04-2010 22:02:02 9.7 C 5.44 g/m*3 9.7 C 0 km/h
2745 03-04-2010 22:14:02 9.5 C 5.46 g/m*3 9.5 C 0 km/h
2746 03-04-2010 22:27:04 9.4 C 5.43 g/m*3 9.4 C 0 km/h
2747 03-04-2010 22:39:04 9.3 C 5.48 g/m*3 9.3 C 0 km/h
2748 03-04-2010 22:51:04 9.2 C 5.45 g/m*3 9.2 C 0 km/h
2749 03-04-2010 23:03:04 9.1 C 5.41 g/m*3 9.1 C 0 km/h
2750 03-04-2010 23:15:04 9.2 C 5.54 g/m*3 9.2 C 0 km/h
Sensor: Nr:Datum:Temp:Abs-Feuchte:Windchill:Wind:
Aussen-T/F 2751 03-04-2010 23:27:05 9.2 C 5.54 g/m*3 9.2 C 0 km/h
2752 03-04-2010 23:39:05 9.3 C 5.48 g/m*3 9.3 C 0 km/h
2753 03-04-2010 23:51:05 9 C 5.38 g/m*3 9 C 0 km/h
2754 04-04-2010 00:03:05 8.6 C 5.5 g/m*3 8.6 C 0 km/h
2755 04-04-2010 00:15:05 8.9 C 5.61 g/m*3 8.9 C 0 km/h
2756 04-04-2010 00:27:05 8.9 C 5.61 g/m*3 8.9 C 0 km/h
2757 04-04-2010 00:39:05 8.9 C 5.61 g/m*3 8.9 C 0 km/h
2758 04-04-2010 00:51:05 8.9 C 5.61 g/m*3 8.9 C 0 km/h
2759 04-04-2010 01:03:05 8.9 C 5.61 g/m*3 8.9 C 0 km/h
2760 04-04-2010 01:15:05 9 C 5.55 g/m*3 9 C 0 km/h
2761 04-04-2010 01:27:05 9 C 5.55 g/m*3 9 C 0 km/h
2762 04-04-2010 01:39:05 9 C 5.55 g/m*3 9 C 0 km/h
2763 04-04-2010 01:51:05 8.7 C 5.53 g/m*3 8.7 C 0 km/h
2764 04-04-2010 02:03:05 7.9 C 5.59 g/m*3 7.9 C 0 km/h
2765 04-04-2010 02:15:05 8.1 C 5.66 g/m*3 8.1 C 0 km/h
2766 04-04-2010 02:27:05 8 C 5.62 g/m*3 8 C 0 km/h
2767 04-04-2010 02:39:05 7.5 C 5.6 g/m*3 7.5 C 0 km/h
2768 04-04-2010 02:51:05 7.2 C 5.49 g/m*3 7.2 C 0 km/h
2769 04-04-2010 03:03:05 7 C 5.58 g/m*3 7 C 0 km/h
2770 04-04-2010 03:15:05 6.9 C 5.7 g/m*3 6.9 C 0 km/h
2771 04-04-2010 03:27:05 6.9 C 5.7 g/m*3 6.9 C 0 km/h
2772 04-04-2010 03:39:05 6.8 C 5.66 g/m*3 6.8 C 0 km/h
2773 04-04-2010 03:51:06 7.1 C 5.69 g/m*3 7.1 C 0 km/h
2774 04-04-2010 04:03:06 7.3 C 5.69 g/m*3 7.3 C 0 km/h
2775 04-04-2010 04:15:06 7.2 C 5.65 g/m*3 7.2 C 0 km/h
Sensor: Nr:Datum:Temp:Abs-Feuchte:Windchill:Wind:
Aussen-T/F 2776 04-04-2010 04:27:06 7.2 C 5.65 g/m*3 7.2 C 0 km/h
2777 04-04-2010 04:39:06 7.3 C 5.69 g/m*3 7.3 C 0 km/h
2778 04-04-2010 04:51:06 7.4 C 5.65 g/m*3 7.4 C 0 km/h
2779 04-04-2010 05:03:06 7.6 C 5.48 g/m*3 7.6 C 0 km/h
2780 04-04-2010 05:15:06 7.3 C 5.37 g/m*3 7.3 C 0 km/h
2781 04-04-2010 05:27:06 6.9 C 5.31 g/m*3 6.9 C 0 km/h
2782 04-04-2010 05:39:06 6.5 C 5.32 g/m*3 6.5 C 0 km/h
2783 04-04-2010 05:51:06 6.3 C 5.26 g/m*3 6.3 C 0 km/h
2784 04-04-2010 06:03:06 6.2 C 5.22 g/m*3 6.2 C 0 km/h
2785 04-04-2010 06:15:06 6.4 C 5.29 g/m*3 6.4 C 0 km/h
2786 04-04-2010 06:27:06 6.4 C 5.29 g/m*3 6.4 C 0 km/h
2787 04-04-2010 06:39:06 6.1 C 5.19 g/m*3 6.1 C 0 km/h
2788 04-04-2010 06:51:06 6.4 C 5.29 g/m*3 6.4 C 0 km/h
2789 04-04-2010 07:03:06 7 C 5.19 g/m*3 7 C 0 km/h
2790 04-04-2010 07:15:04 7.3 C 4.98 g/m*3 7.3 C 0 km/h
2791 04-04-2010 07:27:05 7.5 C 4.8 g/m*3 7.5 C 0 km/h
2792 04-04-2010 07:39:03 7.3 C 4.74 g/m*3 7.3 C 0 km/h
2793 04-04-2010 07:51:02 7.3 C 4.74 g/m*3 7.3 C 0 km/h
2794 04-04-2010 08:03:01 7.1 C 4.76 g/m*3 7.1 C 0 km/h
2795 04-04-2010 08:15:02 7.4 C 4.93 g/m*3 7.4 C 0 km/h
2796 04-04-2010 08:27:03 7.6 C 4.91 g/m*3 7.6 C 0 km/h
2797 04-04-2010 08:39:01 8.1 C 4.83 g/m*3 8.1 C 0 km/h
2798 04-04-2010 08:51:02 8.1 C 4.83 g/m*3 8.1 C 0 km/h
2799 04-04-2010 09:03:01 8.6 C 4.73 g/m*3 8.6 C 0 km/h
2800 04-04-2010 09:15:01 9.2 C 4.55 g/m*3 9.2 C 0 km/h
Sensor: Nr:Datum:Temp:Abs-Feuchte:Windchill:Wind:
Aussen-T/F 2801 04-04-2010 09:27:01 9.7 C 4.52 g/m*3 9.7 C 0 km/h
2802 04-04-2010 09:39:02 10.2 C 4.38 g/m*3 10.2 C 0 km/h
2803 04-04-2010 09:51:02 9.9 C 4.29 g/m*3 9.9 C 0 km/h
2804 04-04-2010 10:03:02 10.4 C 4.34 g/m*3 10.4 C 0 km/h
2805 04-04-2010 10:15:02 10.7 C 4.22 g/m*3 10.7 C 0 km/h
2806 04-04-2010 10:27:02 10.7 C 4.22 g/m*3 10.7 C 0 km/h
2807 04-04-2010 10:39:02 10.8 C 4.35 g/m*3 10.8 C 0 km/h
2808 04-04-2010 10:51:02 11 C 4.3 g/m*3 11 C 0 km/h
2809 04-04-2010 11:03:02 11.4 C 4.31 g/m*3 11.4 C 0 km/h
2810 04-04-2010 11:15:02 11.7 C 4.29 g/m*3 11.7 C 0 km/h
2811 04-04-2010 11:27:02 11.9 C 4.34 g/m*3 11.9 C 0 km/h
2812 04-04-2010 11:39:02 11.8 C 4.32 g/m*3 11.8 C 0 km/h
2813 04-04-2010 11:51:02 11.1 C 4.33 g/m*3 11.1 C 0 km/h
2814 04-04-2010 12:03:02 11.5 C 4.13 g/m*3 11.5 C 0 km/h
2815 04-04-2010 12:15:02 12.2 C 4.21 g/m*3 12.2 C 0 km/h
2816 04-04-2010 12:27:02 12.3 C 4.02 g/m*3 12.3 C 0 km/h
2817 04-04-2010 12:39:02 12.4 C 4.04 g/m*3 12.4 C 0 km/h
2818 04-04-2010 12:51:02 12.5 C 3.96 g/m*3 12.5 C 0 km/h
2819 04-04-2010 13:03:02 11.8 C 4.21 g/m*3 11.8 C 0 km/h
2820 04-04-2010 13:15:03 10.2 C 5.52 g/m*3 10.2 C 0 km/h
2821 04-04-2010 13:27:03 11.1 C 5.44 g/m*3 11.1 C 0 km/h
2822 04-04-2010 13:39:02 11.6 C 5.09 g/m*3 11.6 C 0 km/h
2823 04-04-2010 13:51:01 11.8 C 4.84 g/m*3 11.8 C 0 km/h
2824 04-04-2010 14:03:02 12.1 C 4.61 g/m*3 12.1 C 0 km/h
2825 04-04-2010 14:15:01 11.8 C 4.53 g/m*3 11.8 C 0 km/h
Sensor: Nr:Datum:Temp:Abs-Feuchte:Windchill:Wind:
Aussen-T/F 2826 04-04-2010 14:27:01 11.9 C 4.55 g/m*3 11.9 C 0 km/h
2827 04-04-2010 14:39:01 12.2 C 4.75 g/m*3 12.2 C 0 km/h
2828 04-04-2010 14:51:01 11.5 C 4.65 g/m*3 11.5 C 0 km/h
2829 04-04-2010 15:03:02 11.4 C 4.82 g/m*3 11.4 C 0 km/h
2830 04-04-2010 15:15:01 11.5 C 4.85 g/m*3 11.5 C 0 km/h
2831 04-04-2010 15:27:01 11.7 C 4.92 g/m*3 11.7 C 0 km/h
2832 04-04-2010 15:39:02 11.4 C 5.13 g/m*3 11.4 C 0 km/h
2833 04-04-2010 15:51:02 11.2 C 5.07 g/m*3 11.2 C 0 km/h
2834 04-04-2010 16:03:02 11 C 5 g/m*3 11 C 0 km/h
2835 04-04-2010 16:15:01 11.1 C 5.14 g/m*3 11.1 C 0 km/h
2836 04-04-2010 16:27:01 11.4 C 5.13 g/m*3 11.4 C 0 km/h
2837 04-04-2010 16:39:02 11.4 C 5.13 g/m*3 11.4 C 0 km/h
2838 04-04-2010 16:51:02 12.6 C 4.98 g/m*3 12.6 C 0 km/h
2839 04-04-2010 17:03:02 12.2 C 4.96 g/m*3 12.2 C 0 km/h
2840 04-04-2010 17:15:02 11.6 C 4.78 g/m*3 11.6 C 0 km/h
2841 04-04-2010 17:27:02 11.3 C 4.9 g/m*3 11.3 C 0 km/h
2842 04-04-2010 17:39:02 11.1 C 4.94 g/m*3 11.1 C 0 km/h
2843 04-04-2010 17:51:01 10.7 C 5.3 g/m*3 10.7 C 0 km/h
2844 04-04-2010 18:03:02 9.7 C 6.08 g/m*3 9.7 C 0 km/h
2845 04-04-2010 18:15:02 8.7 C 6.14 g/m*3 8.7 C 0 km/h
2846 04-04-2010 18:27:02 8.5 C 6.32 g/m*3 8.5 C 0 km/h
2847 04-04-2010 18:39:01 8.2 C 5.95 g/m*3 8.2 C 0 km/h
2848 04-04-2010 18:51:02 7.8 C 5.96 g/m*3 7.8 C 0 km/h
2849 04-04-2010 19:03:01 7.8 C 6.12 g/m*3 7.8 C 0 km/h
2850 04-04-2010 19:15:02 7.8 C 6.12 g/m*3 7.8 C 0 km/h
Sensor: Nr:Datum:Temp:Abs-Feuchte:Windchill:Wind:
Aussen-T/F 2851 04-04-2010 19:27:03 7.8 C 6.04 g/m*3 7.8 C 0 km/h
2852 04-04-2010 19:39:01 8.1 C 5.82 g/m*3 8.1 C 0 km/h
2853 04-04-2010 19:51:02 7.8 C 5.3 g/m*3 7.8 C 0 km/h
2854 04-04-2010 20:03:02 7.8 C 5.14 g/m*3 7.8 C 0 km/h
2855 04-04-2010 20:15:02 7.7 C 5.35 g/m*3 7.7 C 0 km/h
2856 04-04-2010 20:27:02 7.6 C 5.48 g/m*3 7.6 C 0 km/h
2857 04-04-2010 20:39:03 7.5 C 5.44 g/m*3 7.5 C 0 km/h
2858 04-04-2010 20:51:02 7.6 C 5.56 g/m*3 7.6 C 0 km/h
2859 04-04-2010 21:03:02 7.7 C 5.51 g/m*3 7.7 C 0 km/h
2860 04-04-2010 21:15:01 7.8 C 5.55 g/m*3 7.8 C 0 km/h
2861 04-04-2010 21:27:01 7.7 C 5.51 g/m*3 7.7 C 0 km/h
2862 04-04-2010 21:39:02 7.8 C 5.47 g/m*3 7.8 C 0 km/h
2863 04-04-2010 21:51:02 7.8 C 5.39 g/m*3 7.8 C 0 km/h
2864 04-04-2010 22:03:02 7.8 C 5.39 g/m*3 7.8 C 0 km/h
2865 04-04-2010 22:15:02 7.7 C 5.35 g/m*3 7.7 C 0 km/h
2866 04-04-2010 22:27:02 7.5 C 5.36 g/m*3 7.5 C 0 km/h
2867 04-04-2010 22:39:02 7.4 C 5.41 g/m*3 7.4 C 0 km/h
2868 04-04-2010 22:51:02 7.2 C 5.42 g/m*3 7.2 C 0 km/h
2869 04-04-2010 23:03:01 7.1 C 5.46 g/m*3 7.1 C 0 km/h
2870 04-04-2010 23:16:03 6.9 C 5.47 g/m*3 6.9 C 0 km/h
2871 04-04-2010 23:28:03 6.9 C 5.62 g/m*3 6.9 C 0 km/h
2872 04-04-2010 23:40:03 6.9 C 5.62 g/m*3 6.9 C 0 km/h
2873 04-04-2010 23:52:03 7 C 5.66 g/m*3 7 C 0 km/h
2874 05-04-2010 00:04:03 7 C 5.66 g/m*3 7 C 0 km/h
2875 05-04-2010 00:16:03 6.9 C 5.7 g/m*3 6.9 C 0 km/h
Sensor: Nr:Datum:Temp:Abs-Feuchte:Windchill:Wind:
Aussen-T/F 2876 05-04-2010 00:28:03 6.7 C 5.62 g/m*3 6.7 C 0 km/h
2877 05-04-2010 00:40:03 6.8 C 5.74 g/m*3 6.8 C 0 km/h
2878 05-04-2010 00:52:03 6.9 C 5.77 g/m*3 6.9 C 0 km/h
2879 05-04-2010 01:04:03 7 C 5.73 g/m*3 7 C 0 km/h
2880 05-04-2010 01:16:03 6.9 C 5.7 g/m*3 6.9 C 0 km/h
2881 05-04-2010 01:28:03 7 C 5.58 g/m*3 7 C 0 km/h
2882 05-04-2010 01:40:03 7 C 5.5 g/m*3 7 C 0 km/h
2883 05-04-2010 01:52:03 7 C 5.42 g/m*3 7 C 0 km/h
2884 05-04-2010 02:04:03 7 C 5.5 g/m*3 7 C 0 km/h
2885 05-04-2010 02:16:03 7 C 5.42 g/m*3 7 C 0 km/h
2886 05-04-2010 02:28:03 7 C 5.27 g/m*3 7 C 0 km/h
2887 05-04-2010 02:40:03 7 C 5.27 g/m*3 7 C 0 km/h
2888 05-04-2010 02:52:03 6.9 C 5.31 g/m*3 6.9 C 0 km/h
2889 05-04-2010 03:04:03 6.9 C 5.31 g/m*3 6.9 C 0 km/h
2890 05-04-2010 03:16:04 6.9 C 5.23 g/m*3 6.9 C 0 km/h
2891 05-04-2010 03:28:04 6.8 C 5.2 g/m*3 6.8 C 0 km/h
2892 05-04-2010 03:40:04 6.6 C 5.28 g/m*3 6.6 C 0 km/h
2893 05-04-2010 03:52:04 6.5 C 5.32 g/m*3 6.5 C 0 km/h
2894 05-04-2010 04:04:04 6.5 C 5.32 g/m*3 6.5 C 0 km/h
2895 05-04-2010 04:16:04 6.6 C 5.36 g/m*3 6.6 C 0 km/h
2896 05-04-2010 04:28:04 6.5 C 5.32 g/m*3 6.5 C 0 km/h
2897 05-04-2010 04:40:04 6.3 C 5.33 g/m*3 6.3 C 0 km/h
2898 05-04-2010 04:52:04 6 C 5.37 g/m*3 6 C 0 km/h
2899 05-04-2010 05:04:04 6 C 5.37 g/m*3 6 C 0 km/h
2900 05-04-2010 05:16:04 6.2 C 5.44 g/m*3 6.2 C 0 km/h
Sensor: Nr:Datum:Temp:Abs-Feuchte:Windchill:Wind:
Aussen-T/F 2901 05-04-2010 05:28:04 6.3 C 5.48 g/m*3 6.3 C 0 km/h
2902 05-04-2010 05:40:04 6.5 C 5.55 g/m*3 6.5 C 0 km/h
2903 05-04-2010 05:52:04 6.3 C 5.48 g/m*3 6.3 C 0 km/h
2904 05-04-2010 06:04:04 6.1 C 5.48 g/m*3 6.1 C 0 km/h
2905 05-04-2010 06:16:04 5.8 C 5.52 g/m*3 5.8 C 0 km/h
2906 05-04-2010 06:28:04 5.6 C 5.51 g/m*3 5.6 C 0 km/h
2907 05-04-2010 06:40:04 5.4 C 5.51 g/m*3 5.4 C 0 km/h
2908 05-04-2010 06:52:04 5.2 C 5.44 g/m*3 5.2 C 0 km/h
2909 05-04-2010 07:04:04 5.1 C 5.34 g/m*3 5.1 C 0 km/h
2910 05-04-2010 07:16:04 5 C 5.23 g/m*3 5 C 0 km/h
2911 05-04-2010 07:28:04 4.9 C 5.27 g/m*3 4.9 C 0 km/h
2912 05-04-2010 07:40:05 4.8 C 5.23 g/m*3 4.8 C 0 km/h
2913 05-04-2010 07:52:05 4.9 C 5.27 g/m*3 4.9 C 0 km/h
2914 05-04-2010 08:04:05 4.9 C 5.33 g/m*3 4.9 C 0 km/h
2915 05-04-2010 08:16:05 5 C 5.23 g/m*3 5 C 0 km/h
2916 05-04-2010 08:28:05 5.1 C 5.2 g/m*3 5.1 C 0 km/h
2917 05-04-2010 08:40:03 5.2 C 5.1 g/m*3 5.2 C 0 km/h
2918 05-04-2010 08:52:02 5.5 C 5.13 g/m*3 5.5 C 0 km/h
2919 05-04-2010 09:04:02 5.7 C 5.12 g/m*3 5.7 C 0 km/h
2920 05-04-2010 09:16:01 5.8 C 5.09 g/m*3 5.8 C 0 km/h
2921 05-04-2010 09:28:01 5.9 C 5.12 g/m*3 5.9 C 0 km/h
2922 05-04-2010 09:40:02 6.4 C 5.07 g/m*3 6.4 C 0 km/h
2923 05-04-2010 09:52:02 6.6 C 4.91 g/m*3 6.6 C 0 km/h
2924 05-04-2010 10:04:02 6.9 C 4.93 g/m*3 6.9 C 0 km/h
2925 05-04-2010 10:16:02 7.3 C 4.98 g/m*3 7.3 C 0 km/h
Sensor: Nr:Datum:Temp:Abs-Feuchte:Windchill:Wind:
Aussen-T/F 2926 05-04-2010 10:28:02 7.6 C 4.83 g/m*3 7.6 C 0 km/h
2927 05-04-2010 10:40:02 8 C 4.8 g/m*3 8 C 0 km/h
2928 05-04-2010 10:52:02 8.4 C 4.75 g/m*3 8.4 C 0 km/h
2929 05-04-2010 11:04:02 8.7 C 4.67 g/m*3 8.7 C 0 km/h
2930 05-04-2010 11:16:01 9.1 C 4.7 g/m*3 9.1 C 0 km/h
2931 05-04-2010 11:28:01 9.5 C 4.64 g/m*3 9.5 C 0 km/h
2932 05-04-2010 11:40:02 9.9 C 4.76 g/m*3 9.9 C 0 km/h
2933 05-04-2010 11:52:02 10.4 C 4.63 g/m*3 10.4 C 0 km/h
2934 05-04-2010 12:04:02 10.6 C 4.39 g/m*3 10.6 C 0 km/h
2935 05-04-2010 12:16:01 10.7 C 4.32 g/m*3 10.7 C 0 km/h
2936 05-04-2010 12:28:01 11.3 C 4.08 g/m*3 11.3 C 0 km/h
2937 05-04-2010 12:40:02 11.5 C 3.93 g/m*3 11.5 C 0 km/h
2938 05-04-2010 12:52:02 11.4 C 4 g/m*3 11.4 C 0 km/h
2939 05-04-2010 13:04:02 11.7 C 3.97 g/m*3 11.7 C 0 km/h
2940 05-04-2010 13:16:02 11.7 C 3.97 g/m*3 11.7 C 0 km/h
2941 05-04-2010 13:28:02 11.9 C 3.92 g/m*3 11.9 C 0 km/h
2942 05-04-2010 13:40:02 12.4 C 3.82 g/m*3 12.4 C 0 km/h
2943 05-04-2010 13:52:02 12.3 C 3.26 g/m*3 12.3 C 0 km/h
2944 05-04-2010 14:04:02 12.3 C 3.26 g/m*3 12.3 C 0 km/h
2945 05-04-2010 14:16:02 12.8 C 3.36 g/m*3 12.8 C 0 km/h
2946 05-04-2010 14:28:02 12.8 C 3.25 g/m*3 12.8 C 0 km/h
2947 05-04-2010 14:40:02 12.6 C 3.32 g/m*3 12.6 C 0 km/h
2948 05-04-2010 14:52:01 12.8 C 3.25 g/m*3 12.8 C 0 km/h
2949 05-04-2010 15:04:02 13.1 C 2.97 g/m*3 13.1 C 0 km/h
2950 05-04-2010 15:16:02 13.6 C 2.94 g/m*3 13.6 C 0 km/h
Sensor: Nr:Datum:Temp:Abs-Feuchte:Windchill:Wind:
Aussen-T/F 2951 05-04-2010 15:28:02 13.6 C 2.71 g/m*3 13.6 C 0 km/h
2952 05-04-2010 15:40:02 13.9 C 2.64 g/m*3 13.9 C 0 km/h
2953 05-04-2010 15:52:02 14.5 C 2.49 g/m*3 14.5 C 0 km/h
2954 05-04-2010 16:04:01 14.6 C 2.5 g/m*3 14.6 C 0 km/h
2955 05-04-2010 16:16:02 14.1 C 2.43 g/m*3 14.1 C 0 km/h
2956 05-04-2010 16:28:03 15.4 C 2.63 g/m*3 15.4 C 0 km/h
2957 05-04-2010 16:40:01 13.8 C 2.38 g/m*3 13.8 C 0 km/h
2958 05-04-2010 16:52:02 13.8 C 2.38 g/m*3 13.8 C 0 km/h
2959 05-04-2010 17:04:01 14.8 C 2.53 g/m*3 14.8 C 0 km/h
2960 05-04-2010 17:16:01 15.7 C 2.68 g/m*3 15.7 C 0 km/h
2961 05-04-2010 17:28:01 15.8 C 2.69 g/m*3 15.8 C 0 km/h
2962 05-04-2010 17:40:02 15 C 2.56 g/m*3 15 C 0 km/h
2963 05-04-2010 17:52:02 13.8 C 2.38 g/m*3 13.8 C 0 km/h
2964 05-04-2010 18:04:02 13.1 C 2.62 g/m*3 13.1 C 0 km/h
2965 05-04-2010 18:16:01 12.8 C 2.8 g/m*3 12.8 C 0 km/h
2966 05-04-2010 18:28:01 12.5 C 2.97 g/m*3 12.5 C 0 km/h
2967 05-04-2010 18:40:02 12.6 C 2.88 g/m*3 12.6 C 0 km/h
2968 05-04-2010 18:52:02 12.3 C 2.93 g/m*3 12.3 C 0 km/h
2969 05-04-2010 19:04:02 12.1 C 3 g/m*3 12.1 C 0 km/h
2970 05-04-2010 19:16:02 12 C 2.98 g/m*3 12 C 0 km/h
2971 05-04-2010 19:28:02 11.9 C 3.07 g/m*3 11.9 C 0 km/h
2972 05-04-2010 19:40:02 11.8 C 3.16 g/m*3 11.8 C 0 km/h
2973 05-04-2010 19:52:02 11.8 C 3.16 g/m*3 11.8 C 0 km/h
2974 05-04-2010 20:04:02 11.7 C 3.24 g/m*3 11.7 C 0 km/h
2975 05-04-2010 20:16:02 11.6 C 3.22 g/m*3 11.6 C 0 km/h
Sensor: Nr:Datum:Temp:Abs-Feuchte:Windchill:Wind:
Aussen-T/F 2976 05-04-2010 20:28:02 11.4 C 3.39 g/m*3 11.4 C 0 km/h
2977 05-04-2010 20:40:02 11.3 C 3.37 g/m*3 11.3 C 0 km/h
2978 05-04-2010 20:52:01 11 C 3.4 g/m*3 11 C 0 km/h
2979 05-04-2010 21:04:01 10.8 C 3.56 g/m*3 10.8 C 0 km/h
2980 05-04-2010 21:16:02 10.6 C 3.61 g/m*3 10.6 C 0 km/h
2981 05-04-2010 21:28:02 10.2 C 3.62 g/m*3 10.2 C 0 km/h
2982 05-04-2010 21:40:01 9.7 C 3.69 g/m*3 9.7 C 0 km/h
2983 05-04-2010 21:52:01 9.1 C 3.64 g/m*3 9.1 C 0 km/h
2984 05-04-2010 22:04:01 8.8 C 3.57 g/m*3 8.8 C 0 km/h
2985 05-04-2010 22:16:02 8.8 C 3.57 g/m*3 8.8 C 0 km/h
2986 05-04-2010 22:28:02 8.4 C 3.56 g/m*3 8.4 C 0 km/h
2987 05-04-2010 22:41:02 8.1 C 3.58 g/m*3 8.1 C 0 km/h
2988 05-04-2010 22:53:02 8 C 3.64 g/m*3 8 C 0 km/h
2989 05-04-2010 23:05:02 7.6 C 3.87 g/m*3 7.6 C 0 km/h
2990 05-04-2010 23:17:02 7.3 C 3.87 g/m*3 7.3 C 0 km/h
2991 05-04-2010 23:29:02 7 C 3.87 g/m*3 7 C 0 km/h
2992 05-04-2010 23:41:02 7 C 3.95 g/m*3 7 C 0 km/h
2993 05-04-2010 23:53:02 6.8 C 3.98 g/m*3 6.8 C 0 km/h
2994 06-04-2010 00:05:02 6.5 C 3.9 g/m*3 6.5 C 0 km/h
2995 06-04-2010 00:17:02 6.3 C 4 g/m*3 6.3 C 0 km/h
2996 06-04-2010 00:29:02 6.1 C 4.02 g/m*3 6.1 C 0 km/h
2997 06-04-2010 00:41:02 5.9 C 4.11 g/m*3 5.9 C 0 km/h
2998 06-04-2010 00:53:02 5.8 C 4.08 g/m*3 5.8 C 0 km/h
2999 06-04-2010 01:05:02 5.6 C 4.03 g/m*3 5.6 C 0 km/h
3000 06-04-2010 01:17:02 5.4 C 3.98 g/m*3 5.4 C 0 km/h
Sensor: Nr:Datum:Temp:Abs-Feuchte:Windchill:Wind:
Aussen-T/F 3001 06-04-2010 01:29:02 5.3 C 4.02 g/m*3 5.3 C 0 km/h
3002 06-04-2010 01:41:02 5.2 C 4.06 g/m*3 5.2 C 0 km/h
3003 06-04-2010 01:53:02 5.1 C 4.1 g/m*3 5.1 C 0 km/h
3004 06-04-2010 02:05:03 5 C 4.08 g/m*3 5 C 0 km/h
3005 06-04-2010 02:17:03 4.7 C 4.13 g/m*3 4.7 C 0 km/h
3006 06-04-2010 02:29:03 4.5 C 4.21 g/m*3 4.5 C 0 km/h
3007 06-04-2010 02:41:03 4.3 C 4.15 g/m*3 4.3 C 0 km/h
3008 06-04-2010 02:53:03 4.2 C 4.12 g/m*3 4.2 C 0 km/h
3009 06-04-2010 03:05:03 4.1 C 4.1 g/m*3 4.1 C 0 km/h
3010 06-04-2010 03:17:03 3.9 C 4.17 g/m*3 3.9 C 0 km/h
3011 06-04-2010 03:29:03 3.8 C 4.14 g/m*3 3.8 C 0 km/h
3012 06-04-2010 03:41:03 3.6 C 4.09 g/m*3 3.6 C 0 km/h
3013 06-04-2010 03:53:03 3.5 C 4.12 g/m*3 3.5 C 0 km/h
3014 06-04-2010 04:05:03 3.3 C 4.06 g/m*3 3.3 C 0 km/h
3015 06-04-2010 04:17:03 3.2 C 4.16 g/m*3 3.2 C 0 km/h
3016 06-04-2010 04:29:03 3.2 C 4.22 g/m*3 3.2 C 0 km/h
3017 06-04-2010 04:41:03 3 C 4.22 g/m*3 3 C 0 km/h
3018 06-04-2010 04:53:03 2.8 C 4.22 g/m*3 2.8 C 0 km/h
3019 06-04-2010 05:05:03 2.7 C 4.2 g/m*3 2.7 C 0 km/h
3020 06-04-2010 05:17:03 2.5 C 4.14 g/m*3 2.5 C 0 km/h
3021 06-04-2010 05:29:03 2.4 C 4.11 g/m*3 2.4 C 0 km/h
3022 06-04-2010 05:41:03 2.3 C 4.14 g/m*3 2.3 C 0 km/h
3023 06-04-2010 05:53:03 2.1 C 4.08 g/m*3 2.1 C 0 km/h
3024 06-04-2010 06:05:03 2 C 4.06 g/m*3 2 C 0 km/h
3025 06-04-2010 06:17:03 1.7 C 4.03 g/m*3 1.7 C 0 km/h
Sensor: Nr:Datum:Temp:Abs-Feuchte:Windchill:Wind:
Aussen-T/F 3026 06-04-2010 06:29:04 1.7 C 4.08 g/m*3 1.7 C 0 km/h
3027 06-04-2010 06:41:04 1.7 C 4.08 g/m*3 1.7 C 0 km/h
3028 06-04-2010 06:53:04 1.7 C 4.08 g/m*3 1.7 C 0 km/h
3029 06-04-2010 07:05:01 1.5 C 4.08 g/m*3 1.5 C 0 km/h
3030 06-04-2010 07:17:02 1.5 C 4.08 g/m*3 1.5 C 0 km/h
3031 06-04-2010 07:29:02 1.5 C 4.08 g/m*3 1.5 C 0 km/h
3032 06-04-2010 07:41:02 1.4 C 4.11 g/m*3 1.4 C 0 km/h
3033 06-04-2010 07:53:02 1.5 C 4.14 g/m*3 1.5 C 0 km/h
3034 06-04-2010 08:05:02 1.8 C 4.22 g/m*3 1.8 C 0 km/h
3035 06-04-2010 08:17:02 1.8 C 4.22 g/m*3 1.8 C 0 km/h
3036 06-04-2010 08:29:02 1.9 C 4.3 g/m*3 1.9 C 0 km/h
3037 06-04-2010 08:41:02 2.1 C 4.31 g/m*3 2.1 C 0 km/h
3038 06-04-2010 08:53:02 2.3 C 4.37 g/m*3 2.3 C 0 km/h
3039 06-04-2010 09:05:02 2.6 C 4.51 g/m*3 2.6 C 0 km/h
3040 06-04-2010 09:17:03 3 C 4.52 g/m*3 3 C 0 km/h
3041 06-04-2010 09:29:03 3.5 C 4.61 g/m*3 3.5 C 0 km/h
3042 06-04-2010 09:41:02 4.1 C 4.54 g/m*3 4.1 C 0 km/h
3043 06-04-2010 09:53:02 4.5 C 4.54 g/m*3 4.5 C 0 km/h
3044 06-04-2010 10:05:02 5.1 C 4.58 g/m*3 5.1 C 0 km/h
3045 06-04-2010 10:17:02 5.9 C 4.69 g/m*3 5.9 C 0 km/h
3046 06-04-2010 10:29:02 7.1 C 4.68 g/m*3 7.1 C 0 km/h
3047 06-04-2010 10:41:02 9.2 C 3.93 g/m*3 9.2 C 0 km/h
3048 06-04-2010 10:53:02 9.8 C 3.62 g/m*3 9.8 C 0 km/h
3049 06-04-2010 11:05:01 10.4 C 3.47 g/m*3 10.4 C 0 km/h
3050 06-04-2010 11:17:02 10.9 C 3.28 g/m*3 10.9 C 0 km/h
Sensor: Nr:Datum:Temp:Abs-Feuchte:Windchill:Wind:
Aussen-T/F 3051 06-04-2010 11:29:03 11.2 C 3.14 g/m*3 11.2 C 0 km/h
3052 06-04-2010 11:41:01 11.5 C 3.1 g/m*3 11.5 C 0 km/h
3053 06-04-2010 11:53:02 12.2 C 3.02 g/m*3 12.2 C 0 km/h
3054 06-04-2010 12:05:01 12.4 C 2.84 g/m*3 12.4 C 0 km/h
3055 06-04-2010 12:17:01 12.7 C 2.78 g/m*3 12.7 C 0 km/h
3056 06-04-2010 12:29:01 13 C 2.72 g/m*3 13 C 0 km/h
3057 06-04-2010 12:41:02 13.4 C 2.91 g/m*3 13.4 C 0 km/h
3058 06-04-2010 12:53:02 13.5 C 2.81 g/m*3 13.5 C 0 km/h
3059 06-04-2010 13:05:02 13.9 C 3 g/m*3 13.9 C 0 km/h
3060 06-04-2010 13:17:02 14.2 C 3.05 g/m*3 14.2 C 0 km/h
3061 06-04-2010 13:29:02 14.2 C 3.05 g/m*3 14.2 C 0 km/h
3062 06-04-2010 13:41:02 14.8 C 3.17 g/m*3 14.8 C 0 km/h
3063 06-04-2010 13:53:02 15.4 C 2.89 g/m*3 15.4 C 0 km/h
3064 06-04-2010 14:05:03 16.7 C 3.13 g/m*3 16.7 C 0 km/h
3065 06-04-2010 14:17:02 16.8 C 3 g/m*3 16.8 C 0 km/h
3066 06-04-2010 14:29:02 17 C 2.89 g/m*3 17 C 0 km/h
3067 06-04-2010 14:41:02 17.3 C 2.95 g/m*3 17.3 C 0 km/h
3068 06-04-2010 14:53:01 17.4 C 2.96 g/m*3 17.4 C 0 km/h
3069 06-04-2010 15:05:02 18 C 3.07 g/m*3 18 C 0 km/h
3070 06-04-2010 15:17:01 18.6 C 3.18 g/m*3 18.6 C 0 km/h
3071 06-04-2010 15:29:01 18.5 C 3.16 g/m*3 18.5 C 0 km/h
3072 06-04-2010 15:41:01 19 C 3.26 g/m*3 19 C 0 km/h
3073 06-04-2010 15:53:01 19 C 3.26 g/m*3 19 C 0 km/h
3074 06-04-2010 16:05:02 19.4 C 3.34 g/m*3 19.4 C 0 km/h
3075 06-04-2010 16:17:02 19.7 C 3.4 g/m*3 19.7 C 0 km/h
Sensor: Nr:Datum:Temp:Abs-Feuchte:Windchill:Wind:
Aussen-T/F 3076 06-04-2010 16:29:02 20.5 C 3.56 g/m*3 20.5 C 0 km/h
3077 06-04-2010 16:41:01 20.7 C 3.6 g/m*3 20.7 C 0 km/h
3078 06-04-2010 16:53:01 21.5 C 3.77 g/m*3 21.5 C 0 km/h
3079 06-04-2010 17:05:02 21.4 C 3.75 g/m*3 21.4 C 0 km/h
3080 06-04-2010 17:17:02 21.6 C 3.79 g/m*3 21.6 C 0 km/h
3081 06-04-2010 17:29:02 21 C 3.66 g/m*3 21 C 0 km/h
3082 06-04-2010 17:41:01 21.1 C 3.69 g/m*3 21.1 C 0 km/h
3083 06-04-2010 17:53:01 21.9 C 3.86 g/m*3 21.9 C 0 km/h
3084 06-04-2010 18:05:02 21.7 C 3.82 g/m*3 21.7 C 0 km/h
3085 06-04-2010 18:17:02 21.3 C 3.73 g/m*3 21.3 C 0 km/h
3086 06-04-2010 18:29:02 21.5 C 3.77 g/m*3 21.5 C 0 km/h
3087 06-04-2010 18:41:01 21.9 C 3.86 g/m*3 21.9 C 0 km/h
3088 06-04-2010 18:53:02 21.2 C 3.71 g/m*3 21.2 C 0 km/h
3089 06-04-2010 19:05:01 21.1 C 3.69 g/m*3 21.1 C 0 km/h
3090 06-04-2010 19:17:02 19.8 C 3.42 g/m*3 19.8 C 0 km/h
3091 06-04-2010 19:29:02 19.9 C 3.44 g/m*3 19.9 C 0 km/h
3092 06-04-2010 19:41:01 19.7 C 3.4 g/m*3 19.7 C 0 km/h
3093 06-04-2010 19:53:02 18.2 C 3.26 g/m*3 18.2 C 0 km/h
3094 06-04-2010 20:05:02 16.8 C 3.57 g/m*3 16.8 C 0 km/h
3095 06-04-2010 20:17:02 15.5 C 3.83 g/m*3 15.5 C 0 km/h
3096 06-04-2010 20:29:02 14.7 C 4.03 g/m*3 14.7 C 0 km/h
3097 06-04-2010 20:41:02 14.3 C 3.93 g/m*3 14.3 C 0 km/h
3098 06-04-2010 20:53:02 13.8 C 4.05 g/m*3 13.8 C 0 km/h
3099 06-04-2010 21:05:01 13.5 C 4.09 g/m*3 13.5 C 0 km/h
3100 06-04-2010 21:17:02 13.2 C 4.13 g/m*3 13.2 C 0 km/h
Sensor: Nr:Datum:Temp:Abs-Feuchte:Windchill:Wind:
Aussen-T/F 3101 06-04-2010 21:29:02 12.9 C 4.17 g/m*3 12.9 C 0 km/h
3102 06-04-2010 21:41:02 12.8 C 4.14 g/m*3 12.8 C 0 km/h
3103 06-04-2010 21:53:02 12.5 C 4.29 g/m*3 12.5 C 0 km/h
3104 06-04-2010 22:05:02 12.2 C 4.32 g/m*3 12.2 C 0 km/h
3105 06-04-2010 22:17:02 12.1 C 4.29 g/m*3 12.1 C 0 km/h
3106 06-04-2010 22:29:03 11.8 C 4.32 g/m*3 11.8 C 0 km/h
3107 06-04-2010 22:41:02 11.5 C 4.44 g/m*3 11.5 C 0 km/h
3108 06-04-2010 22:53:02 11.3 C 4.59 g/m*3 11.3 C 0 km/h
3109 06-04-2010 23:05:02 10.9 C 4.58 g/m*3 10.9 C 0 km/h
3110 06-04-2010 23:17:02 10.8 C 4.65 g/m*3 10.8 C 0 km/h
3111 06-04-2010 23:29:02 10.5 C 4.56 g/m*3 10.5 C 0 km/h
3112 06-04-2010 23:41:01 10.3 C 4.5 g/m*3 10.3 C 0 km/h
3113 06-04-2010 23:53:02 10.1 C 4.63 g/m*3 10.1 C 0 km/h
3114 07-04-2010 00:05:01 10 C 4.6 g/m*3 10 C 0 km/h
3115 07-04-2010 00:17:01 9.7 C 4.61 g/m*3 9.7 C 0 km/h
3116 07-04-2010 00:29:01 9.3 C 4.67 g/m*3 9.3 C 0 km/h
3117 07-04-2010 00:41:02 9.1 C 4.7 g/m*3 9.1 C 0 km/h
3118 07-04-2010 00:53:02 8.9 C 4.73 g/m*3 8.9 C 0 km/h
3119 07-04-2010 01:05:02 8.6 C 4.73 g/m*3 8.6 C 0 km/h
3120 07-04-2010 01:17:02 8.4 C 4.75 g/m*3 8.4 C 0 km/h
3121 07-04-2010 01:29:02 8.2 C 4.77 g/m*3 8.2 C 0 km/h
3122 07-04-2010 01:41:03 8.1 C 4.74 g/m*3 8.1 C 0 km/h
3123 07-04-2010 01:53:02 7.9 C 4.76 g/m*3 7.9 C 0 km/h
3124 07-04-2010 02:05:02 7.6 C 4.67 g/m*3 7.6 C 0 km/h
3125 07-04-2010 02:17:02 7.4 C 4.69 g/m*3 7.4 C 0 km/h
Sensor: Nr:Datum:Temp:Abs-Feuchte:Windchill:Wind:
Aussen-T/F 3126 07-04-2010 02:29:03 7.3 C 4.74 g/m*3 7.3 C 0 km/h
3127 07-04-2010 02:41:02 7.1 C 4.76 g/m*3 7.1 C 0 km/h
3128 07-04-2010 02:54:02 7.1 C 4.76 g/m*3 7.1 C 0 km/h
3129 07-04-2010 03:06:02 7 C 4.73 g/m*3 7 C 0 km/h
3130 07-04-2010 03:18:02 6.8 C 4.74 g/m*3 6.8 C 0 km/h
3131 07-04-2010 03:30:02 6.7 C 4.71 g/m*3 6.7 C 0 km/h
3132 07-04-2010 03:42:02 6.5 C 4.72 g/m*3 6.5 C 0 km/h
3133 07-04-2010 03:54:02 6.5 C 4.72 g/m*3 6.5 C 0 km/h
3134 07-04-2010 04:06:02 6.2 C 4.71 g/m*3 6.2 C 0 km/h
3135 07-04-2010 04:18:02 6.1 C 4.75 g/m*3 6.1 C 0 km/h
3136 07-04-2010 04:30:02 5.9 C 4.76 g/m*3 5.9 C 0 km/h
3137 07-04-2010 04:42:03 5.8 C 4.8 g/m*3 5.8 C 0 km/h
3138 07-04-2010 04:54:03 5.8 C 4.73 g/m*3 5.8 C 0 km/h
3139 07-04-2010 05:06:03 5.5 C 4.64 g/m*3 5.5 C 0 km/h
3140 07-04-2010 05:18:03 5.6 C 4.67 g/m*3 5.6 C 0 km/h
3141 07-04-2010 05:30:03 5.3 C 4.64 g/m*3 5.3 C 0 km/h
3142 07-04-2010 05:42:03 5.2 C 4.61 g/m*3 5.2 C 0 km/h
3143 07-04-2010 05:54:03 5.1 C 4.58 g/m*3 5.1 C 0 km/h
3144 07-04-2010 06:06:03 4.8 C 4.63 g/m*3 4.8 C 0 km/h
3145 07-04-2010 06:18:03 4.8 C 4.69 g/m*3 4.8 C 0 km/h
3146 07-04-2010 06:30:03 4.5 C 4.6 g/m*3 4.5 C 0 km/h
3147 07-04-2010 06:42:03 4.5 C 4.67 g/m*3 4.5 C 0 km/h
3148 07-04-2010 06:54:03 4.3 C 4.54 g/m*3 4.3 C 0 km/h
3149 07-04-2010 07:06:02 4.3 C 4.67 g/m*3 4.3 C 0 km/h
3150 07-04-2010 07:18:02 4.3 C 4.61 g/m*3 4.3 C 0 km/h
Sensor: Nr:Datum:Temp:Abs-Feuchte:Windchill:Wind:
Aussen-T/F 3151 07-04-2010 07:30:03 4.3 C 4.61 g/m*3 4.3 C 0 km/h
3152 07-04-2010 07:42:02 4.4 C 4.64 g/m*3 4.4 C 0 km/h
3153 07-04-2010 07:54:02 4.4 C 4.64 g/m*3 4.4 C 0 km/h
3154 07-04-2010 08:06:02 4.4 C 4.64 g/m*3 4.4 C 0 km/h
3155 07-04-2010 08:18:03 4.5 C 4.73 g/m*3 4.5 C 0 km/h
3156 07-04-2010 08:30:03 4.7 C 4.8 g/m*3 4.7 C 0 km/h
3157 07-04-2010 08:42:02 4.8 C 4.83 g/m*3 4.8 C 0 km/h
3158 07-04-2010 08:54:02 5.1 C 4.86 g/m*3 5.1 C 0 km/h
3159 07-04-2010 09:06:01 5.4 C 4.88 g/m*3 5.4 C 0 km/h
3160 07-04-2010 09:18:01 5.9 C 5.05 g/m*3 5.9 C 0 km/h
3161 07-04-2010 09:30:01 6.5 C 5.02 g/m*3 6.5 C 0 km/h
3162 07-04-2010 09:42:02 7.1 C 5.07 g/m*3 7.1 C 0 km/h
3163 07-04-2010 09:54:02 8.1 C 4.91 g/m*3 8.1 C 0 km/h
3164 07-04-2010 10:06:01 9.1 C 4.97 g/m*3 9.1 C 0 km/h
3165 07-04-2010 10:18:02 9.7 C 4.98 g/m*3 9.7 C 0 km/h
3166 07-04-2010 10:30:02 10.7 C 4.52 g/m*3 10.7 C 0 km/h
3167 07-04-2010 10:42:02 11.7 C 4.5 g/m*3 11.7 C 0 km/h
3168 07-04-2010 10:54:01 12.4 C 4.15 g/m*3 12.4 C 0 km/h
3169 07-04-2010 11:06:02 13.2 C 4.13 g/m*3 13.2 C 0 km/h
3170 07-04-2010 11:18:01 13.6 C 4 g/m*3 13.6 C 0 km/h
3171 07-04-2010 11:30:01 14.1 C 3.88 g/m*3 14.1 C 0 km/h
3172 07-04-2010 11:42:02 14.9 C 4.21 g/m*3 14.9 C 0 km/h
3173 07-04-2010 11:54:02 15.7 C 4.01 g/m*3 15.7 C 0 km/h
3174 07-04-2010 12:06:02 16 C 3.95 g/m*3 16 C 0 km/h
3175 07-04-2010 12:18:01 16.4 C 4.05 g/m*3 16.4 C 0 km/h
Sensor: Nr:Datum:Temp:Abs-Feuchte:Windchill:Wind:
Aussen-T/F 3176 07-04-2010 12:30:01 16.8 C 3.86 g/m*3 16.8 C 0 km/h
3177 07-04-2010 12:42:02 17.3 C 3.83 g/m*3 17.3 C 0 km/h
3178 07-04-2010 12:54:01 18.1 C 3.71 g/m*3 18.1 C 0 km/h
3179 07-04-2010 13:06:02 18.5 C 3.48 g/m*3 18.5 C 0 km/h
3180 07-04-2010 13:18:02 19.1 C 3.44 g/m*3 19.1 C 0 km/h
3181 07-04-2010 13:30:03 19.2 C 3.3 g/m*3 19.2 C 0 km/h
3182 07-04-2010 13:42:01 19.7 C 3.4 g/m*3 19.7 C 0 km/h
3183 07-04-2010 13:54:02 20.6 C 3.58 g/m*3 20.6 C 0 km/h
3184 07-04-2010 14:06:02 20.9 C 3.64 g/m*3 20.9 C 0 km/h
3185 07-04-2010 14:18:02 21.3 C 3.73 g/m*3 21.3 C 0 km/h
3186 07-04-2010 14:30:02 21.7 C 3.82 g/m*3 21.7 C 0 km/h
3187 07-04-2010 14:42:03 22.7 C 4.04 g/m*3 22.7 C 0 km/h
3188 07-04-2010 14:54:02 23.3 C 4.18 g/m*3 23.3 C 0 km/h
3189 07-04-2010 15:06:02 23.7 C 4.28 g/m*3 23.7 C 0 km/h
3190 07-04-2010 15:18:01 24 C 4.35 g/m*3 24 C 0 km/h
3191 07-04-2010 15:30:01 24.1 C 4.38 g/m*3 24.1 C 0 km/h
3192 07-04-2010 15:42:02 24.4 C 4.45 g/m*3 24.4 C 0 km/h
3193 07-04-2010 15:54:02 25.2 C 4.66 g/m*3 25.2 C 0 km/h
3194 07-04-2010 16:06:02 25.4 C 4.71 g/m*3 25.4 C 0 km/h
3195 07-04-2010 16:18:02 25.8 C 4.82 g/m*3 25.8 C 0 km/h
3196 07-04-2010 16:30:02 24.2 C 4.4 g/m*3 24.2 C 0 km/h
3197 07-04-2010 16:42:02 24.7 C 4.53 g/m*3 24.7 C 0 km/h
3198 07-04-2010 16:54:02 25.1 C 4.63 g/m*3 25.1 C 0 km/h
3199 07-04-2010 17:06:03 25.9 C 4.84 g/m*3 25.9 C 0 km/h
3200 07-04-2010 17:18:02 25.9 C 4.84 g/m*3 25.9 C 0 km/h
Sensor: Nr:Datum:Temp:Abs-Feuchte:Windchill:Wind:
Aussen-T/F 3201 07-04-2010 17:30:02 25.4 C 4.71 g/m*3 25.4 C 0 km/h
3202 07-04-2010 17:42:02 25.2 C 4.66 g/m*3 25.2 C 0 km/h
3203 07-04-2010 17:54:01 25.2 C 4.66 g/m*3 25.2 C 0 km/h
3204 07-04-2010 18:06:02 24.9 C 4.58 g/m*3 24.9 C 0 km/h
3205 07-04-2010 18:18:01 24.7 C 4.53 g/m*3 24.7 C 0 km/h
3206 07-04-2010 18:30:01 24 C 4.35 g/m*3 24 C 0 km/h
3207 07-04-2010 18:42:01 23.5 C 4.23 g/m*3 23.5 C 0 km/h
3208 07-04-2010 18:54:01 23.1 C 4.13 g/m*3 23.1 C 0 km/h
3209 07-04-2010 19:06:02 22.5 C 3.99 g/m*3 22.5 C 0 km/h
3210 07-04-2010 19:18:01 21.5 C 3.77 g/m*3 21.5 C 0 km/h
3211 07-04-2010 19:30:01 20.5 C 3.91 g/m*3 20.5 C 0 km/h
3212 07-04-2010 19:42:01 19.5 C 4.03 g/m*3 19.5 C 0 km/h
3213 07-04-2010 19:54:01 18.7 C 4.16 g/m*3 18.7 C 0 km/h
3214 07-04-2010 20:06:16 18.1 C 3.86 g/m*3 18.1 C 0 km/h
3215 07-04-2010 20:18:02 17.8 C 3.95 g/m*3 17.8 C 0 km/h
3216 07-04-2010 20:30:02 17.5 C 4.03 g/m*3 17.5 C 0 km/h
3217 07-04-2010 20:42:03 17.2 C 4.1 g/m*3 17.2 C 0 km/h
3218 07-04-2010 20:54:03 16.8 C 4.29 g/m*3 16.8 C 0 km/h
3219 07-04-2010 21:06:03 16.4 C 4.19 g/m*3 16.4 C 0 km/h
3220 07-04-2010 21:18:02 16.1 C 4.25 g/m*3 16.1 C 0 km/h
3221 07-04-2010 21:30:02 15.8 C 4.31 g/m*3 15.8 C 0 km/h
3222 07-04-2010 21:42:03 15.4 C 4.6 g/m*3 15.4 C 0 km/h
3223 07-04-2010 21:54:02 15.1 C 4.64 g/m*3 15.1 C 0 km/h
3224 07-04-2010 22:06:03 14.7 C 4.78 g/m*3 14.7 C 0 km/h
3225 07-04-2010 22:18:04 14.4 C 4.94 g/m*3 14.4 C 0 km/h
Sensor: Nr:Datum:Temp:Abs-Feuchte:Windchill:Wind:
Aussen-T/F 3226 07-04-2010 22:30:04 14.2 C 4.76 g/m*3 14.2 C 0 km/h
3227 07-04-2010 22:43:04 14.1 C 4.61 g/m*3 14.1 C 0 km/h
3228 07-04-2010 22:55:04 13.8 C 4.77 g/m*3 13.8 C 0 km/h
3229 07-04-2010 23:07:04 13.5 C 4.91 g/m*3 13.5 C 0 km/h
3230 07-04-2010 23:19:04 13.4 C 5 g/m*3 13.4 C 0 km/h
3231 07-04-2010 23:31:04 13.2 C 5.05 g/m*3 13.2 C 0 km/h
3232 07-04-2010 23:43:04 13.2 C 4.82 g/m*3 13.2 C 0 km/h
3233 07-04-2010 23:55:04 13.1 C 4.91 g/m*3 13.1 C 0 km/h
3234 08-04-2010 00:07:04 12.8 C 5.04 g/m*3 12.8 C 0 km/h
3235 08-04-2010 00:19:04 12.6 C 5.09 g/m*3 12.6 C 0 km/h
3236 08-04-2010 00:31:04 12.2 C 5.07 g/m*3 12.2 C 0 km/h
3237 08-04-2010 00:43:04 12 C 5.12 g/m*3 12 C 0 km/h
3238 08-04-2010 00:55:05 11.8 C 5.26 g/m*3 11.8 C 0 km/h
3239 08-04-2010 01:07:05 11.6 C 5.3 g/m*3 11.6 C 0 km/h
3240 08-04-2010 01:19:05 11.6 C 5.3 g/m*3 11.6 C 0 km/h
3241 08-04-2010 01:31:05 11.6 C 5.3 g/m*3 11.6 C 0 km/h
3242 08-04-2010 01:43:05 11.4 C 5.34 g/m*3 11.4 C